GFSNGP_500_spd_003.txt.gz
Wind_Speed
35 36 35 32 34 37 39 39 40 36 36 39 40 42 44 43 47 51 53 56 59 63 67 68 69 72 75 78 80 79 76 78 84 85 87 91 96 100 85 69 54 48 45 46
41 41 38 28 31 34 37 37 37 40 40 42 44 45 46 48 52 53 57 61 65 68 71 72 73 77 80 80 80 78 76 83 85 88 90 96 98 77 58 50 50 50 50 48
43 41 37 29 30 35 36 35 39 42 43 44 44 46 48 51 55 60 64 68 71 71 75 78 79 82 81 82 82 80 80 84 87 91 91 86 68 57 53 53 52 50 49 48
46 43 38 26 33 36 36 35 38 40 41 44 45 49 54 57 63 69 72 72 72 74 75 79 84 83 84 84 81 81 82 86 90 85 75 67 57 55 55 52 52 54 55 55
45 46 42 26 30 32 35 35 38 39 41 44 51 56 61 65 70 74 75 75 74 65 75 88 86 85 81 79 80 86 85 88 82 70 60 53 55 54 54 56 58 60 61 61
42 43 40 32 36 38 40 40 45 44 49 55 60 65 70 73 77 77 76 77 76 77 89 90 86 82 79 78 82 85 83 77 65 55 51 52 53 55 57 60 61 60 58 56
37 38 33 34 37 40 44 48 51 54 58 62 65 70 74 76 76 74 75 76 77 86 87 84 79 77 80 80 78 80 73 66 55 50 50 52 54 58 60 59 56 54 52 49
36 34 35 38 41 45 47 50 53 57 60 65 70 74 77 76 74 73 77 80 82 80 78 74 74 77 77 78 76 70 64 51 48 48 50 53 56 58 57 55 51 46 44 43
40 36 40 42 45 48 50 55 57 61 65 69 74 76 77 77 78 77 77 77 77 74 70 74 76 75 75 73 68 63 52 46 46 47 50 53 55 54 52 49 46 44 43 37
43 39 44 47 50 52 55 60 62 66 71 74 76 77 77 78 78 79 79 77 74 72 75 76 76 75 72 64 59 52 43 43 44 47 48 51 52 51 49 49 45 41 37 36
43 44 48 48 53 57 60 61 66 71 75 76 77 80 81 81 82 83 81 77 76 78 78 75 74 69 63 58 53 41 40 40 43 44 46 49 49 48 47 44 41 36 34 28
49 51 52 55 58 62 67 71 75 76 75 78 79 80 82 82 82 79 78 78 79 77 77 74 70 65 58 50 40 37 36 39 41 41 44 46 46 44 43 43 41 36 31 26
54 56 58 61 64 68 72 75 75 76 77 79 80 82 82 81 79 76 77 78 76 76 74 72 68 58 45 36 32 32 34 37 38 39 42 43 44 40 39 42 41 35 30 27
58 60 63 66 70 73 74 74 74 76 78 79 79 79 79 74 74 75 74 75 75 74 72 64 51 38 28 26 27 28 32 35 35 37 40 41 41 38 38 38 35 32 29 20
60 64 68 71 72 73 72 73 75 75 76 76 75 74 72 73 73 73 73 73 74 67 52 40 27 19 21 23 22 26 31 33 35 35 38 39 39 38 36 36 33 28 24 16
65 68 69 70 69 70 74 75 75 74 74 73 72 71 72 72 71 70 72 71 60 46 32 18 15 19 21 20 21 25 30 34 36 35 37 38 38 36 34 34 31 26 20 14
68 67 66 66 70 72 74 73 74 74 73 71 72 71 70 68 68 69 65 56 43 25 14 16 18 19 20 18 21 26 31 35 36 36 36 37 35 34 32 31 29 23 18 13
65 65 69 72 72 72 73 73 73 71 71 72 70 67 65 66 66 57 51 41 23 14 18 19 18 22 20 18 23 28 32 36 35 36 36 37 33 32 30 29 27 23 19 14
68 70 71 72 73 73 73 72 71 71 70 69 65 63 64 60 50 44 37 24 16 18 22 20 22 25 21 20 24 28 32 36 35 35 36 36 32 30 29 27 26 23 19 16
69 71 72 72 71 71 69 69 71 68 65 63 62 62 56 43 39 35 27 23 19 22 23 23 25 26 23 23 25 29 33 35 34 34 36 36 32 28 27 27 26 22 20 16
69 70 70 71 69 67 68 68 66 62 61 61 61 52 42 36 34 31 27 27 24 24 25 26 27 27 25 25 26 30 32 33 33 34 36 35 32 28 26 26 25 24 21 19
67 67 64 64 65 63 62 61 60 60 61 58 52 44 35 34 34 31 30 28 27 28 28 29 29 27 25 25 26 29 31 30 33 35 37 34 30 27 26 26 25 24 23 21
63 61 62 63 62 59 57 58 59 59 55 51 47 40 34 33 31 29 28 27 27 27 28 28 28 24 24 25 27 29 27 29 33 36 36 32 28 27 27 27 25 24 23 22
58 59 60 58 56 56 57 57 55 51 49 48 41 36 35 30 27 27 26 26 27 29 29 28 24 23 24 25 26 24 26 29 33 36 35 31 27 27 27 28 26 24 23 24
59 58 56 54 54 54 53 51 48 46 45 36 33 33 30 26 25 27 26 25 26 27 27 23 22 23 24 23 22 24 27 30 34 36 36 32 29 27 28 29 27 25 26 25
56 54 52 50 48 48 48 47 44 42 35 29 28 28 26 25 26 27 26 26 25 23 21 21 23 23 22 22 24 26 28 31 34 36 37 34 30 28 28 29 29 28 27 25
52 51 48 42 42 43 44 44 42 37 31 29 26 28 27 24 22 22 23 23 22 22 21 23 25 23 22 23 25 27 29 32 35 36 37 35 31 29 29 29 31 30 27 24

GFSNGP_500_spd_006.txt.gz
Wind_Speed
33 34 31 29 30 34 34 34 35 31 30 34 35 37 38 38 42 45 49 54 58 63 68 71 72 73 74 75 74 70 83 95 89 84 83 83 85 85 85 72 62 55 55 55
35 38 32 29 31 32 33 35 35 34 33 33 37 38 40 43 47 52 55 59 65 71 75 77 76 76 77 77 76 84 94 90 86 84 85 86 84 78 67 61 55 56 54 53
41 36 30 27 29 28 26 29 31 33 34 36 38 41 44 48 53 57 62 68 73 76 77 77 72 70 78 82 85 87 88 84 84 84 83 81 70 63 56 53 54 54 56 58
45 40 31 31 29 25 22 24 28 31 32 36 39 44 49 52 58 63 68 72 76 78 77 77 77 78 82 84 84 84 81 81 82 81 75 67 57 52 52 53 55 58 60 61
49 45 33 28 30 26 27 25 29 34 38 40 43 48 54 57 61 67 73 76 77 77 78 78 78 79 80 81 79 77 80 79 78 72 65 55 49 49 51 54 56 60 60 58
49 45 40 34 31 31 32 35 36 38 42 45 50 55 60 65 70 73 76 77 79 80 80 81 81 80 80 77 76 77 76 74 69 64 56 48 48 49 52 55 58 58 55 53
44 41 37 35 37 38 39 42 44 49 51 55 59 63 68 71 75 77 79 80 81 82 81 81 80 79 76 77 77 75 73 68 62 57 48 47 47 50 52 55 55 53 50 47
42 38 38 37 40 42 43 45 48 50 53 59 64 69 72 74 76 79 79 80 80 80 80 79 77 76 77 78 77 73 68 63 57 48 46 44 47 48 51 54 52 48 45 45
43 38 42 42 43 45 49 50 53 56 60 65 70 74 76 77 77 78 80 80 80 80 80 78 78 79 79 76 73 70 65 55 46 42 41 44 45 47 50 52 49 44 45 43
43 40 43 43 44 48 51 55 57 61 65 70 74 76 78 78 79 79 80 82 83 81 80 80 79 77 77 74 73 66 53 42 37 37 39 42 43 47 50 50 45 44 42 39
42 44 45 46 49 52 55 57 61 66 70 74 78 79 79 79 80 82 84 84 82 81 80 78 76 74 75 69 59 46 34 30 33 34 38 39 41 44 48 48 42 42 41 37
47 49 51 54 56 57 59 62 66 71 76 79 79 78 79 80 81 82 82 81 79 76 76 74 74 71 57 47 35 24 24 28 28 33 36 37 40 44 46 44 41 40 39 34
52 56 57 59 59 60 63 68 72 75 77 76 76 79 80 81 80 78 78 76 74 72 72 72 65 51 39 25 16 21 24 23 28 33 36 37 39 42 43 41 38 38 36 29
56 58 59 60 62 64 68 71 74 74 75 76 77 78 79 76 74 74 73 71 69 70 68 60 46 31 20 17 19 22 20 24 29 35 37 37 38 41 40 38 35 36 32 27
57 57 59 62 64 67 70 72 73 74 74 74 75 76 74 72 72 70 68 67 67 63 56 42 26 19 21 20 23 20 21 27 31 36 37 37 38 40 38 36 33 33 30 25
57 60 61 63 65 67 69 71 72 71 72 73 73 73 72 71 69 67 64 64 57 49 40 25 20 23 22 23 24 22 23 28 32 37 38 37 38 39 37 35 31 29 28 24
57 59 61 64 65 67 68 69 71 72 74 75 73 72 70 67 64 62 61 51 44 37 26 19 23 23 25 26 25 23 25 29 33 37 37 36 38 39 36 32 31 27 26 23
58 60 62 64 65 67 68 70 72 73 72 73 71 68 65 62 61 58 50 41 36 29 24 22 24 24 28 28 25 25 27 30 33 36 36 37 38 39 36 31 29 28 24 23
61 63 64 65 67 68 70 71 72 71 70 69 66 62 60 61 59 52 40 36 32 27 28 26 27 27 29 30 27 26 28 30 32 35 35 37 39 38 34 31 29 27 25 22
62 63 64 66 67 69 68 68 69 68 67 64 61 61 61 57 50 43 34 34 31 28 29 27 29 29 31 33 29 26 27 29 31 32 33 37 39 36 31 29 29 29 25 23
62 64 65 66 67 67 65 66 66 64 61 60 61 59 54 49 46 37 31 31 29 27 26 27 28 28 30 31 27 25 26 28 30 30 32 37 38 34 29 28 29 30 27 24
63 63 64 65 65 62 62 62 62 59 58 58 56 51 49 46 38 32 31 28 27 25 25 26 26 28 29 28 24 24 26 27 27 29 33 36 38 34 29 27 28 29 28 25
62 63 63 61 60 60 59 59 56 56 55 53 49 46 44 35 33 30 25 24 25 26 26 26 26 27 25 23 23 24 25 25 27 30 33 36 37 37 31 28 26 28 28 27
62 59 57 58 59 59 57 53 51 50 49 46 45 43 38 30 29 28 25 25 26 26 25 25 25 23 21 23 24 23 23 25 27 31 34 37 38 38 34 29 27 27 28 29
55 55 56 57 58 55 51 48 43 42 43 42 42 40 35 31 29 28 27 26 25 25 25 24 22 22 23 25 24 23 23 25 28 31 34 37 39 38 38 31 28 27 28 30
54 55 56 56 52 49 46 43 40 41 42 40 40 38 35 32 30 28 27 27 24 23 22 21 22 24 26 27 24 23 24 26 29 31 34 37 39 38 40 32 29 27 29 31
54 55 54 50 48 44 42 40 40 41 42 41 39 37 34 31 28 27 26 26 26 25 24 24 26 28 28 28 24 24 26 27 30 32 36 37 39 38 40 33 29 28 30 31

GFSNGP_500_spd_009.txt.gz
Wind_Speed
21 28 33 33 33 33 33 33 32 24 25 26 28 27 31 35 37 42 45 50 55 60 65 70 74 77 80 81 82 80 79 81 81 82 83 84 84 82 80 73 66 59 53 51
23 30 35 36 35 33 31 29 29 28 24 24 27 29 32 38 40 44 50 55 60 65 71 76 80 83 83 81 80 81 83 83 83 82 81 82 81 78 71 65 57 51 52 54
28 33 39 40 34 31 29 30 25 27 28 30 34 37 41 44 47 52 57 61 68 74 79 82 83 82 82 84 84 86 87 86 83 81 81 79 77 71 63 56 51 52 54 55
35 38 43 43 36 31 29 26 27 30 34 36 39 42 48 50 54 60 64 69 74 78 80 80 81 82 83 84 84 84 84 83 83 81 80 75 69 64 58 51 51 53 54 58
40 43 45 38 34 29 28 28 29 34 37 39 44 48 52 56 61 65 71 76 79 81 82 82 83 84 86 86 85 80 79 79 80 78 74 69 64 58 50 49 50 51 56 58
42 47 47 42 36 31 33 33 36 36 39 44 48 53 56 60 65 69 75 79 83 86 86 85 84 85 85 83 80 78 84 77 75 74 71 63 54 47 46 47 49 51 55 57
44 48 46 41 37 34 36 38 41 43 48 52 57 60 63 68 72 78 82 85 86 86 85 84 84 84 82 81 78 77 78 77 76 72 58 48 42 44 43 46 48 52 54 52
45 47 49 42 40 37 38 40 43 47 52 57 61 64 67 73 77 80 83 84 84 85 84 84 83 83 81 78 75 74 73 72 64 52 42 36 41 40 43 44 48 52 52 48
48 44 41 42 44 44 44 46 51 55 59 62 64 67 71 75 79 81 82 83 83 84 84 84 84 82 80 75 73 73 64 55 43 35 31 37 37 40 41 43 47 50 49 45
49 40 41 41 43 44 48 52 55 58 60 64 67 70 74 77 80 81 81 82 84 84 84 83 80 76 75 74 68 57 47 36 24 25 30 32 37 39 41 43 47 48 45 43
51 44 44 43 48 50 52 55 56 59 62 65 68 71 75 77 79 80 82 83 83 83 81 78 75 72 72 63 50 38 27 20 23 25 27 32 37 39 40 43 45 45 41 40
51 47 45 50 53 57 57 56 59 62 64 66 70 74 77 79 79 81 81 81 81 78 74 70 69 67 58 44 31 24 22 25 24 24 29 35 38 39 39 42 42 40 39 37
52 51 53 54 55 53 56 59 62 64 66 70 73 76 77 77 79 80 80 79 76 71 67 67 63 53 40 27 26 25 27 27 25 27 32 36 39 39 41 43 40 37 36 34
51 53 54 56 58 58 61 63 65 67 70 73 74 75 77 77 77 77 76 74 70 66 63 60 51 39 25 26 25 27 30 28 26 30 34 37 40 39 40 42 37 36 34 32
53 54 56 57 60 63 64 65 67 69 71 72 73 75 75 76 76 75 73 69 66 64 60 48 40 29 25 26 26 30 31 29 28 31 35 37 40 39 40 41 35 33 33 31
55 57 59 61 63 63 64 66 68 69 69 71 73 73 74 74 73 71 68 66 65 59 49 39 32 26 26 27 28 30 31 30 29 32 34 36 38 38 40 40 33 31 30 30
58 62 64 64 63 63 65 66 67 69 70 71 72 73 73 71 70 66 65 64 58 50 41 35 29 28 29 29 29 30 33 31 30 31 33 36 36 37 41 39 31 29 30 28
63 65 64 62 62 64 64 67 68 70 71 72 72 71 70 68 65 63 62 55 50 45 35 33 29 28 29 29 30 31 33 32 29 30 31 34 34 37 40 38 30 28 29 28
65 64 61 61 62 64 66 68 69 70 70 70 70 68 66 63 63 61 55 52 45 36 29 30 28 27 27 28 29 29 32 31 29 29 31 31 32 36 39 38 30 26 27 28
64 61 60 61 63 66 67 68 69 69 66 67 67 65 60 59 59 52 50 43 36 30 28 26 26 25 26 27 28 28 31 29 28 29 30 29 32 36 37 38 32 27 26 26
59 59 61 63 64 66 67 68 66 64 63 64 63 60 57 56 50 46 42 37 34 28 24 24 24 25 26 27 27 28 26 26 27 29 27 29 32 35 38 37 35 29 26 26
59 61 62 64 65 65 65 63 62 61 61 60 58 55 53 50 45 40 37 35 32 27 25 25 25 25 26 27 26 23 25 26 27 26 26 29 33 36 37 38 37 33 28 27
61 62 63 64 64 62 60 59 60 60 58 56 54 50 49 47 44 39 33 33 32 28 26 26 25 26 25 24 23 23 26 27 26 25 26 29 32 35 37 39 38 36 30 28
61 62 62 61 59 58 58 58 58 57 55 52 49 46 46 45 40 39 35 33 32 29 27 25 24 24 23 22 23 25 27 27 25 26 27 30 32 35 38 39 39 39 32 29
60 60 59 57 56 57 58 57 56 54 52 50 46 44 45 45 41 37 34 31 30 28 27 26 25 24 23 23 26 28 29 27 26 27 28 29 32 35 37 39 40 41 33 30
57 55 55 55 56 57 57 56 54 51 49 46 42 43 43 41 37 34 33 30 29 28 28 28 27 26 26 25 28 30 29 27 27 28 28 30 33 35 38 40 39 41 34 31
53 54 53 55 55 56 54 52 49 45 43 42 42 42 39 35 32 30 31 30 29 29 29 30 30 29 28 28 29 30 29 29 29 29 29 30 33 35 37 40 39 41 36 32

GFSNGP_500_spd_012.txt.gz
Wind_Speed
16 20 24 28 35 35 33 30 29 24 26 23 24 24 29 29 35 39 43 47 51 57 62 67 72 77 82 84 86 87 88 89 89 91 92 89 83 82 78 76 73 68 60 53
20 24 27 29 36 38 34 30 29 28 21 28 28 28 33 36 40 44 48 53 57 63 68 73 77 81 86 88 89 85 85 85 84 85 87 90 86 79 77 76 70 56 48 47
24 27 29 31 36 40 36 33 30 29 30 32 34 37 41 41 43 49 55 59 64 69 73 78 82 85 87 87 86 85 85 88 84 77 67 78 69 77 76 66 51 43 44 46
29 31 32 35 37 41 36 33 31 32 36 36 39 40 44 48 51 55 60 65 68 72 76 81 84 86 86 85 86 87 86 89 78 74 71 68 67 72 65 46 41 43 44 47
35 36 36 37 38 39 40 31 34 33 36 36 38 41 47 50 56 61 64 67 70 75 78 82 87 89 88 87 87 86 87 83 73 68 71 58 62 69 45 39 42 43 47 48
38 41 41 40 44 45 39 36 37 34 36 37 41 46 50 53 56 60 63 68 73 78 84 86 86 87 87 86 86 84 83 74 70 65 43 57 59 43 37 38 42 43 44 48
41 43 43 43 44 43 42 41 37 38 40 43 47 50 54 56 60 64 71 75 79 83 85 85 86 86 87 87 84 79 74 72 63 53 36 49 42 33 34 39 42 42 44 47
43 44 45 47 48 47 45 42 44 44 46 50 53 56 59 63 66 71 74 77 81 83 84 85 85 87 87 84 78 71 69 61 50 36 28 24 27 30 35 39 40 42 45 45
45 45 45 48 52 50 48 48 47 49 53 55 57 59 63 66 70 73 76 79 81 83 83 84 87 88 84 77 70 65 57 42 31 24 24 26 27 33 38 39 41 43 46 42
49 45 47 48 50 53 52 52 53 55 56 58 61 63 66 70 72 75 77 79 81 82 83 84 85 81 74 68 64 55 39 27 26 28 28 27 30 34 39 40 41 44 43 41
46 46 51 50 53 55 54 53 56 59 59 61 63 66 70 72 74 76 78 80 82 84 84 84 80 73 67 64 53 41 28 27 28 31 29 29 32 36 39 39 41 44 40 39
46 50 49 53 54 54 53 54 56 59 62 64 66 69 71 73 76 78 80 81 82 82 82 80 73 68 63 51 41 30 27 27 30 31 29 30 33 37 39 39 41 42 37 36
46 51 54 54 56 55 55 57 60 64 65 67 69 71 73 75 76 79 80 80 81 81 79 73 68 61 52 40 31 28 28 28 29 31 30 31 34 36 38 37 40 41 32 32
48 51 54 55 55 55 56 60 64 67 67 68 70 71 73 75 77 78 78 79 80 78 73 68 61 53 45 35 30 27 29 29 29 31 32 32 34 36 37 37 41 41 30 30
52 55 55 55 55 57 59 64 66 67 67 67 70 72 74 76 76 76 77 79 77 71 68 61 53 48 39 34 31 30 29 30 30 31 32 32 33 35 35 37 40 40 30 29
57 55 55 54 57 61 64 67 68 68 68 69 70 72 74 75 75 75 76 76 71 65 61 56 49 41 33 33 31 31 30 29 30 30 31 31 31 34 32 36 39 39 29 27
53 55 55 59 61 65 67 68 68 68 68 68 70 72 73 73 74 74 72 68 63 60 55 50 43 33 31 31 30 30 28 29 28 29 30 30 30 31 31 35 38 38 31 26
55 57 61 64 66 68 67 66 66 66 67 69 71 72 72 73 72 69 65 61 58 53 49 44 38 32 29 28 28 26 27 28 28 29 28 27 29 28 30 35 38 38 35 27
60 62 65 67 67 65 65 64 65 67 69 70 70 70 70 70 68 63 59 55 54 48 44 40 36 30 27 26 26 26 28 28 28 26 25 26 27 26 30 34 37 38 36 31
65 65 66 65 64 63 62 65 68 69 69 70 70 69 68 66 62 57 55 51 51 45 41 37 33 29 27 27 26 27 27 27 24 24 25 26 25 26 30 33 36 37 36 33
66 66 62 60 60 62 65 66 67 68 68 69 69 67 66 62 57 54 51 47 47 43 38 35 33 30 28 28 26 28 26 23 23 25 26 25 25 26 29 32 35 37 36 35
64 59 58 60 63 64 64 65 67 67 67 67 67 65 62 59 55 51 48 47 44 41 36 32 31 29 27 26 26 25 22 22 24 26 26 25 25 27 29 32 34 36 37 37
56 59 61 62 62 63 64 66 67 67 67 66 65 62 61 57 52 48 42 43 43 38 34 31 29 28 26 25 25 25 23 24 26 28 27 26 26 27 29 31 33 35 37 38
57 58 61 63 63 64 64 65 66 65 64 62 60 59 55 50 45 43 42 42 39 35 32 30 28 27 26 26 27 28 28 26 27 29 28 27 29 29 30 31 33 34 37 39
59 60 62 63 63 62 62 63 63 63 63 59 55 52 48 46 44 42 41 38 34 30 31 30 29 28 28 29 29 29 29 28 29 29 28 28 30 30 30 31 33 34 36 38
58 59 59 59 59 60 62 62 61 58 56 50 47 45 43 42 40 38 34 32 29 28 30 31 30 30 31 31 31 31 30 30 29 29 28 30 31 31 30 32 33 35 37 37
55 55 56 55 56 59 58 54 53 50 47 44 41 39 39 37 33 31 28 25 26 29 32 33 33 33 33 32 31 30 30 30 30 30 29 31 31 31 31 32 34 36 38 38

GFSNGP_500_spd_015.txt.gz
Wind_Speed
11 13 16 20 22 25 27 31 33 30 29 32 29 29 30 29 34 36 38 41 46 50 54 59 63 68 73 76 80 85 88 90 91 90 91 89 85 78 59 62 72 80 65 68
15 17 19 22 25 28 29 31 33 33 29 35 30 28 31 34 36 38 41 45 49 54 58 62 67 72 76 81 85 88 90 92 90 91 89 84 78 70 58 64 68 63 60 62
19 20 23 25 28 31 33 35 37 37 34 31 31 34 35 34 35 40 44 49 53 58 62 68 73 78 81 86 89 90 91 89 90 89 84 75 70 59 54 59 55 54 53 46
23 24 27 30 31 33 35 37 37 38 37 37 37 38 38 38 42 46 51 55 58 63 68 74 78 81 84 87 89 89 89 90 88 83 74 68 59 43 54 48 51 51 43 45
27 29 31 35 35 35 38 38 37 39 40 40 40 41 42 45 49 53 56 59 64 68 72 76 78 82 86 89 88 89 89 90 85 73 66 59 46 36 45 43 42 38 43 44
32 34 37 39 41 42 42 40 41 39 39 39 41 42 45 49 51 54 56 61 65 69 74 77 81 85 89 87 87 88 90 85 75 66 55 42 29 35 38 33 34 39 41 43
36 38 39 41 46 45 43 44 45 43 43 44 44 47 49 52 53 56 62 66 69 73 77 81 84 87 87 87 89 90 85 73 65 53 35 25 27 26 23 30 36 39 40 43
39 41 43 46 48 47 43 46 48 48 48 48 48 49 51 53 57 62 66 68 72 76 80 82 84 87 87 87 89 86 75 64 50 36 28 29 30 26 28 33 38 39 40 44
41 44 44 49 51 51 49 49 47 50 53 53 52 51 54 58 63 66 68 72 75 78 79 81 84 86 86 88 83 76 64 51 38 30 28 31 29 27 30 35 38 39 40 43
47 47 49 53 53 51 51 50 51 53 54 53 53 55 59 63 67 69 72 75 77 78 80 82 83 85 86 84 74 65 54 41 31 28 29 30 29 29 31 36 39 39 40 44
47 46 51 52 51 53 51 50 52 56 55 55 56 58 63 67 69 71 73 75 76 77 79 81 82 83 83 77 65 53 44 35 29 27 29 28 28 29 32 35 38 37 40 43
45 49 49 49 51 50 50 53 56 56 55 56 58 62 66 68 71 71 72 73 75 77 80 80 80 81 79 68 55 46 37 31 29 27 28 27 28 29 32 35 37 37 40 41
47 46 47 52 50 50 53 56 56 55 55 58 61 65 68 69 70 70 72 74 76 78 79 79 79 77 70 58 48 39 32 29 29 28 28 28 28 29 30 33 34 35 38 39
45 45 49 50 50 53 57 56 55 55 59 62 66 69 70 70 70 70 72 75 76 76 77 77 75 68 60 51 43 33 29 28 29 28 29 29 28 28 29 30 30 34 37 37
46 47 50 52 54 57 57 55 56 60 64 68 70 71 71 70 70 72 75 76 75 75 75 72 65 60 52 47 38 32 30 28 29 28 27 28 27 27 27 29 30 33 37 37
47 49 50 51 57 59 57 59 63 66 70 72 73 71 69 69 71 74 75 75 74 73 70 64 57 54 47 43 37 31 29 28 27 25 27 27 27 24 25 27 29 32 35 37
52 50 51 54 57 59 62 66 68 71 72 72 70 67 68 71 73 73 74 73 71 68 63 59 53 49 43 39 33 29 29 27 26 27 28 28 23 22 24 25 28 32 35 36
49 51 56 59 60 62 64 67 70 71 69 67 65 68 70 72 72 73 73 70 66 63 58 53 48 45 41 36 31 29 28 28 28 27 26 23 22 23 23 24 28 31 34 35
52 57 60 63 63 64 66 68 69 65 63 64 67 69 71 73 73 72 70 66 63 59 52 47 44 42 38 34 30 29 29 28 27 25 21 22 23 22 22 24 27 30 33 34
58 62 65 65 64 65 68 67 62 62 64 66 69 71 72 72 71 69 66 62 59 54 47 43 41 39 35 31 30 28 27 26 24 21 21 22 23 22 22 24 26 29 30 33
64 65 64 63 65 65 61 61 62 65 67 71 73 73 71 69 67 66 63 57 52 46 42 41 40 36 31 28 27 26 25 23 23 22 23 23 24 23 23 24 26 28 29 30
60 60 62 61 59 59 62 64 67 70 70 71 70 69 68 66 65 60 55 51 45 41 39 38 36 33 29 26 24 24 24 24 24 25 27 25 25 23 23 25 26 27 28 29
58 56 56 58 60 62 65 67 67 66 67 66 65 65 64 60 55 50 46 44 42 39 37 34 30 29 28 26 26 26 25 25 26 27 26 26 26 24 24 26 27 27 27 28
55 57 61 63 63 62 62 63 63 62 62 62 61 57 53 51 46 46 44 41 38 34 30 27 26 27 28 27 28 28 29 30 30 30 30 28 27 25 25 27 27 27 28 29
57 57 57 58 58 59 58 58 57 59 60 60 55 51 50 49 47 42 42 39 34 29 24 23 25 28 29 30 30 30 31 31 31 31 30 29 28 27 26 27 28 29 29 30
54 55 55 54 54 55 55 56 57 55 54 52 49 48 47 45 42 40 38 36 33 27 24 26 28 31 33 34 34 33 32 33 33 32 31 29 28 27 27 29 29 29 30 31
51 51 51 51 52 54 55 56 56 55 55 54 49 47 45 42 39 37 38 36 33 31 31 33 35 36 38 38 38 37 36 34 34 33 32 29 29 29 29 29 30 31 32 33

GFSNGP_500_spd_018.txt.gz
Wind_Speed
9 11 13 15 17 20 22 24 24 25 27 24 22 24 27 29 31 33 35 38 40 43 48 51 54 58 63 68 72 76 80 84 89 93 94 94 95 93 86 77 71 62 50 48
14 16 16 17 19 22 24 26 28 31 31 31 32 32 32 31 32 34 37 41 44 48 52 54 58 63 67 71 75 80 84 88 92 92 93 94 92 88 76 65 58 49 42 49
19 21 22 21 24 26 28 30 31 33 34 35 36 35 34 35 36 39 42 46 49 52 54 57 62 67 70 74 79 83 87 89 90 90 92 92 88 75 61 51 41 33 36 44
23 25 26 26 27 30 32 31 34 36 37 39 40 39 39 40 40 43 46 48 52 54 56 61 65 69 74 77 81 84 86 88 88 90 92 89 73 57 43 33 26 30 38 39
28 28 29 29 31 35 35 34 38 39 41 43 44 43 43 43 45 46 48 50 52 56 60 63 67 71 75 79 82 84 87 87 88 91 88 74 55 38 33 34 31 29 35 40
32 33 34 33 35 37 39 38 39 40 43 42 43 44 45 47 49 50 50 53 56 60 63 66 69 73 77 81 83 85 88 87 89 87 75 57 41 31 32 33 31 33 38 41
35 37 37 37 38 42 42 41 45 46 47 46 45 46 47 50 50 50 52 56 59 62 66 70 74 77 80 81 84 86 86 87 87 75 59 45 33 30 32 33 33 35 40 42
38 38 39 40 43 44 44 45 48 48 48 48 48 48 51 52 51 53 56 59 62 67 71 75 78 79 80 82 84 83 85 87 76 61 49 37 30 30 32 32 33 36 40 41
38 38 39 43 45 46 44 48 52 50 49 52 51 51 55 53 54 57 60 63 68 72 75 78 78 78 79 82 81 81 84 79 67 53 42 33 30 31 33 31 33 36 38 39
39 37 40 44 46 47 51 55 53 52 53 53 53 56 57 57 57 61 65 69 73 76 77 76 76 78 81 81 80 82 78 69 58 45 36 31 30 30 32 31 33 35 37 37
44 42 46 45 47 52 55 56 53 53 53 54 56 58 58 58 61 65 69 74 76 77 75 74 76 79 78 79 80 74 69 60 51 37 33 30 30 31 33 33 33 33 35 35
42 42 43 45 50 53 53 52 52 53 54 56 59 59 59 62 66 70 74 76 75 73 73 76 78 77 78 78 72 67 61 52 43 33 31 30 31 31 33 33 32 32 33 34
40 41 43 45 49 52 51 52 52 53 54 58 59 60 63 67 70 73 75 75 74 72 75 77 76 78 76 71 66 60 53 44 37 33 29 30 29 29 32 32 30 30 32 33
40 42 45 48 50 50 50 51 51 52 56 58 59 63 66 70 72 75 76 74 72 74 76 77 76 74 71 65 59 54 46 39 33 30 28 28 27 28 29 28 27 29 30 32
44 46 48 50 50 51 52 54 55 57 61 63 65 66 69 72 74 75 72 71 73 76 77 76 73 70 64 59 54 49 41 35 30 28 26 26 27 27 28 26 25 27 29 32
43 45 48 49 51 53 53 53 58 62 65 66 68 69 72 74 74 71 71 75 76 77 76 74 69 64 59 53 49 44 38 33 28 28 27 27 27 27 24 24 25 25 28 31
44 45 47 49 49 49 50 55 61 65 67 70 70 71 72 71 69 71 75 78 77 75 72 69 65 59 53 48 44 40 36 33 28 28 27 26 24 22 23 24 23 24 27 30
49 51 50 50 52 54 57 61 64 67 68 70 70 70 68 68 72 78 78 75 73 71 69 65 58 52 47 43 40 37 34 31 28 26 26 22 20 21 23 22 22 24 26 28
52 52 56 57 57 59 63 65 65 66 68 69 66 67 72 77 79 76 73 71 68 66 61 55 50 45 41 39 37 34 31 29 26 24 22 20 20 22 23 23 22 23 25 26
55 58 60 61 59 59 61 63 63 65 64 64 70 75 76 75 74 71 67 64 63 58 52 46 44 40 37 37 34 32 28 26 25 22 20 20 21 23 24 24 23 23 24 26
59 60 60 59 57 56 59 62 60 61 68 72 71 71 71 70 67 64 61 55 54 50 46 43 40 37 34 31 30 29 27 26 24 23 23 23 24 26 26 25 24 24 25 26
58 57 54 54 57 58 57 61 66 68 67 68 68 68 66 63 60 55 54 53 50 45 43 40 38 33 28 26 27 27 27 26 27 27 27 27 27 27 28 27 25 24 25 26
49 53 54 52 56 61 63 63 63 63 64 64 63 62 61 59 56 54 49 47 45 41 39 38 35 29 23 23 24 25 26 27 28 28 28 29 29 29 29 29 28 27 26 26
50 56 60 61 60 58 58 60 61 61 60 59 58 59 59 56 55 54 49 45 41 38 36 36 33 27 24 25 27 29 30 30 29 30 30 30 30 29 28 29 29 28 26 27
58 55 55 55 57 58 59 57 56 55 56 56 58 59 58 58 55 51 46 43 39 37 35 36 34 31 31 32 34 35 36 36 35 34 32 31 32 31 31 30 29 28 28 29
52 54 55 56 55 55 54 55 55 54 56 57 56 55 55 56 58 50 42 41 38 37 37 37 36 35 35 37 38 39 40 39 38 36 36 35 33 34 33 31 31 31 31 30
51 51 52 52 53 54 54 55 57 56 56 54 51 51 53 55 57 46 39 40 38 38 38 39 37 37 38 38 38 39 39 38 37 37 37 36 34 35 35 35 34 34 33 33

GFSNGP_500_spd_021.txt.gz
Wind_Speed
13 14 15 16 17 18 18 19 21 23 22 26 27 28 30 32 32 33 34 36 38 41 44 47 50 54 56 57 61 65 69 75 80 85 88 89 92 96 95 96 95 77 57 48
17 17 19 19 21 24 23 24 25 27 27 28 30 31 34 35 36 38 38 40 42 45 48 50 54 55 57 61 65 69 73 79 84 87 88 90 94 94 93 94 75 55 43 39
22 23 24 22 24 28 28 27 30 32 32 32 34 37 39 39 40 41 43 44 46 48 50 53 54 57 61 65 69 73 78 84 85 86 87 92 92 91 90 75 56 44 39 37
28 29 31 26 28 31 33 30 33 35 36 35 37 40 41 43 44 44 46 46 49 51 53 54 56 60 64 69 73 78 83 86 86 86 89 90 89 89 78 58 44 39 39 37
34 34 36 32 30 34 37 34 36 38 39 39 42 44 45 48 47 48 48 49 53 54 53 55 59 63 68 73 78 83 84 84 85 88 89 89 88 80 61 47 37 37 37 37
38 41 41 36 35 39 41 38 39 41 42 43 44 47 47 48 49 50 50 53 55 54 55 58 62 67 73 77 81 83 82 84 87 89 90 86 80 66 50 40 35 35 37 38
41 43 44 39 40 42 42 42 41 43 44 44 46 49 50 50 51 51 53 56 56 56 58 62 67 73 77 80 83 82 82 86 88 88 85 79 68 55 42 36 34 35 37 39
40 42 44 40 43 44 43 43 45 46 46 47 50 51 51 52 52 54 56 58 57 58 63 68 73 76 79 83 83 81 84 88 88 82 79 69 59 45 36 33 33 35 38 40
40 40 40 43 45 44 45 46 48 46 46 51 53 51 53 53 54 57 59 60 61 64 69 73 76 79 82 81 80 83 86 87 80 75 69 60 50 38 34 32 33 35 38 40
39 37 39 43 45 45 47 48 47 46 52 53 52 53 53 55 57 59 60 62 65 69 71 75 77 81 81 80 83 87 85 78 72 66 61 52 42 36 33 33 34 35 38 39
42 39 43 43 43 45 46 47 48 52 52 52 53 53 55 57 58 60 63 66 69 71 74 76 79 78 79 82 85 82 76 70 65 60 53 46 38 34 32 32 32 33 36 36
39 41 43 43 44 45 46 49 51 51 52 53 54 57 57 58 61 65 69 71 72 74 76 77 76 77 82 84 82 76 70 65 60 54 47 40 34 31 31 30 30 31 33 32
41 42 42 42 43 46 47 49 49 50 52 54 57 59 59 59 63 68 71 73 73 76 76 75 77 82 84 81 76 71 66 59 53 48 42 35 31 29 28 29 29 30 31 30
39 41 41 43 46 47 47 48 49 51 53 55 56 56 59 64 68 71 73 73 75 74 73 78 83 82 80 76 71 66 59 53 47 43 38 34 30 28 28 29 30 31 29 29
42 43 45 47 47 46 45 46 49 52 53 54 56 58 60 65 69 72 73 74 72 73 78 81 80 79 75 70 65 58 51 47 42 39 34 32 30 29 28 28 26 27 28 27
45 44 45 46 47 49 51 53 55 55 55 57 59 62 66 68 69 71 72 69 73 78 79 79 78 72 66 63 58 51 46 42 39 35 32 30 29 28 27 24 24 26 27 26
44 43 42 45 48 49 55 54 52 53 57 62 64 65 67 69 70 69 68 74 75 77 77 74 67 61 60 58 53 47 42 38 36 32 30 29 27 27 23 22 24 26 26 25
44 47 49 50 50 50 52 55 59 61 62 61 64 66 69 68 64 69 72 73 74 73 70 63 57 58 58 54 49 43 38 36 32 29 28 27 26 24 23 23 25 26 26 25
49 50 50 51 50 51 54 57 58 59 60 62 65 66 63 66 69 70 72 73 71 67 62 57 56 56 54 50 44 38 34 31 30 28 26 26 25 24 24 25 26 28 27 26
57 57 55 56 58 59 58 57 56 59 61 63 59 64 67 68 70 71 70 67 66 62 58 57 55 53 49 44 38 33 29 28 28 27 27 26 26 27 27 27 27 29 29 27
58 57 57 59 56 55 57 57 56 56 55 62 66 67 68 68 70 69 65 62 60 59 57 55 53 48 42 38 34 29 27 26 26 26 27 27 28 29 30 30 29 29 30 30
55 53 53 52 52 53 55 56 56 62 65 66 66 67 68 66 65 64 61 61 57 57 57 53 48 42 37 35 31 27 27 28 28 29 29 29 30 31 31 31 31 31 31 31
48 47 49 51 55 56 59 63 64 64 63 65 66 65 63 61 60 60 59 59 59 57 59 49 43 38 35 33 31 30 31 32 33 35 35 35 34 33 33 33 32 31 30 31
53 57 59 59 61 61 61 60 61 63 64 62 60 60 60 59 60 63 60 57 57 56 58 43 38 36 34 33 32 32 33 35 37 38 38 38 37 36 35 35 34 33 32 32
52 51 53 54 55 58 59 60 59 58 57 56 57 58 61 61 62 58 55 54 54 53 52 39 35 35 34 34 34 34 34 36 37 38 38 38 37 37 37 37 37 35 33 32
53 54 56 58 60 60 59 58 58 58 57 58 59 60 59 61 58 54 52 51 51 50 47 37 35 34 35 34 34 34 36 37 38 39 40 40 39 39 38 37 37 37 36 34
57 57 56 56 57 58 58 58 58 59 60 60 59 60 59 55 53 51 50 49 47 46 43 37 35 35 35 34 35 36 38 40 42 43 42 42 41 39 39 39 38 38 39 39

GFSNGP_500_spd_024.txt.gz
Wind_Speed
17 16 17 16 18 19 21 22 23 25 26 29 28 28 29 31 34 36 38 39 41 42 43 45 48 51 55 55 56 58 61 65 69 75 79 83 87 89 90 92 97 94 89 76
20 20 21 22 21 22 25 27 28 31 30 32 33 34 34 35 37 40 41 42 43 45 48 49 51 54 56 56 58 60 64 68 74 79 83 87 89 89 90 95 93 88 76 59
25 25 27 26 21 29 30 30 33 34 35 36 35 36 37 38 40 43 44 45 47 49 50 51 53 56 57 58 59 63 67 74 79 82 86 88 89 90 93 91 85 75 60 46
30 30 35 27 29 33 36 37 37 38 40 41 41 41 41 42 43 45 47 47 50 52 52 52 55 58 58 59 62 67 73 77 82 85 87 87 89 93 90 83 74 62 47 38
35 35 38 37 35 37 41 42 41 42 46 45 44 44 43 45 44 48 48 50 53 53 52 54 57 59 59 62 67 72 76 80 83 85 86 89 91 88 82 73 63 50 39 35
37 41 44 42 39 42 45 47 42 46 47 47 47 47 46 46 48 50 52 53 52 52 53 56 58 59 62 67 71 74 79 82 84 85 88 91 88 81 72 63 53 41 35 33
38 42 45 42 43 43 46 46 48 47 48 49 48 49 48 48 51 52 53 53 53 54 56 58 59 62 66 69 74 78 81 82 83 88 91 88 80 72 63 54 45 37 34 33
40 43 45 42 44 44 46 47 48 48 49 49 50 50 50 50 53 54 55 54 55 57 58 60 63 67 70 74 77 80 81 83 88 90 87 81 72 62 54 48 39 35 33 34
41 40 41 43 45 45 46 47 47 48 49 51 52 51 50 53 55 56 58 56 58 60 61 64 67 71 73 76 80 79 81 87 88 87 81 73 63 55 48 42 36 34 33 32
41 38 41 45 46 45 47 47 48 49 50 50 50 51 53 55 56 55 56 59 61 62 64 69 73 76 77 79 77 80 85 87 86 80 72 65 56 49 43 37 34 32 31 30
40 37 41 42 42 43 44 46 47 48 48 49 51 53 53 55 57 58 59 60 61 64 68 73 76 79 79 76 79 84 85 83 77 70 65 57 49 43 38 34 31 29 29 29
40 39 41 39 40 41 42 44 45 47 49 51 52 52 54 55 57 58 59 59 62 67 69 74 78 79 76 79 82 84 81 74 68 65 59 51 43 39 35 31 30 29 30 29
40 40 40 41 42 44 44 45 47 49 50 51 51 53 54 57 59 60 61 63 65 69 74 75 76 74 78 80 82 80 72 65 64 61 53 45 40 36 31 31 30 29 28 27
39 41 42 43 45 46 47 48 49 50 51 53 55 58 60 59 60 63 66 67 70 75 78 76 74 77 79 81 79 72 63 64 61 55 47 40 37 34 30 29 30 29 26 23
42 44 46 47 47 47 47 47 47 50 52 55 57 59 58 59 62 66 68 71 81 78 74 74 76 78 80 77 71 64 61 60 57 49 42 38 35 31 29 27 27 26 24 24
43 44 46 47 47 47 47 50 52 54 54 57 58 57 61 60 61 66 74 77 77 73 74 73 77 78 75 70 64 60 59 56 51 44 38 35 32 29 27 26 25 23 23 24
45 46 46 46 46 47 50 53 56 58 56 57 58 59 61 63 67 74 77 73 71 73 73 75 76 73 69 64 59 58 55 51 45 39 34 32 29 26 26 25 24 24 24 25
45 47 48 50 52 55 57 57 55 55 57 54 59 63 66 71 74 73 72 69 72 72 74 74 70 66 63 58 57 55 51 46 39 34 30 30 28 26 25 25 26 26 27 28
50 52 53 54 56 58 59 55 53 55 59 59 62 69 68 68 70 68 69 70 71 73 70 68 65 62 59 56 56 51 44 41 35 30 29 29 28 27 27 27 28 28 29 30
60 63 64 63 60 56 55 54 52 56 60 62 64 67 69 65 67 69 70 69 68 69 66 64 63 60 57 55 54 45 39 37 33 29 28 28 28 28 28 28 28 30 31 31
59 55 55 54 52 51 50 52 55 60 65 63 62 64 65 66 68 69 68 66 63 64 63 64 62 58 57 55 51 41 36 34 32 30 31 32 32 32 33 32 31 30 31 31
56 56 56 56 54 54 53 52 53 56 59 62 65 67 66 64 64 63 63 64 61 63 63 62 59 57 55 54 49 39 36 34 32 31 33 35 36 37 36 36 35 33 32 32
55 53 51 51 52 54 56 57 60 60 61 62 63 63 63 63 63 62 61 61 62 61 61 59 56 54 52 52 46 38 36 35 34 33 33 34 35 35 36 36 36 35 35 34
51 53 55 55 54 55 56 57 59 62 63 62 63 63 62 62 58 62 63 61 63 63 57 53 51 51 49 48 42 38 36 36 35 35 34 34 35 36 36 37 37 37 37 37
47 48 48 50 53 58 62 62 62 63 63 62 61 60 62 65 66 59 59 60 57 55 52 50 48 47 46 43 40 38 37 36 36 35 35 36 38 39 39 39 39 38 38 37
45 45 51 56 59 60 61 62 62 62 62 61 60 62 62 61 61 61 60 58 56 55 52 50 48 46 44 42 40 39 38 37 36 35 36 37 39 41 42 41 41 39 38 37
47 52 58 59 61 62 64 64 64 64 64 64 60 59 61 61 61 60 59 58 57 55 53 50 49 47 45 43 41 40 39 38 37 36 37 38 41 42 43 44 43 41 40 39

GFSNGP_500_spd_027.txt.gz
Wind_Speed
19 20 20 19 19 18 19 22 23 23 25 31 30 32 33 34 36 37 38 39 40 41 43 45 48 50 50 51 53 56 59 60 60 62 67 72 76 81 83 85 89 94 97 93
22 22 22 22 21 20 23 26 28 31 28 36 36 38 37 38 40 41 43 43 44 45 47 48 52 51 52 53 55 57 59 60 61 66 71 75 79 82 84 88 93 96 91 77
23 25 26 27 20 25 29 30 34 35 36 39 40 42 42 43 44 45 45 46 47 48 49 51 53 52 53 55 56 59 59 61 65 69 74 77 81 83 88 91 94 89 77 65
25 27 31 26 27 30 35 37 39 40 42 45 47 46 45 45 46 46 47 49 50 50 52 54 53 54 55 56 59 59 61 65 69 73 77 80 82 87 91 94 86 76 65 56
27 30 32 33 34 35 39 41 43 45 48 50 51 50 48 49 47 48 50 52 53 53 55 55 55 56 56 59 60 62 65 70 74 78 80 81 86 89 93 86 75 66 57 49
28 32 34 33 35 38 42 43 43 46 47 49 50 50 49 48 49 50 53 54 54 54 56 56 57 57 59 61 62 65 70 74 79 81 83 85 87 92 85 76 69 60 50 44
29 33 35 36 37 39 41 46 47 47 47 48 47 48 48 49 51 52 53 53 53 55 56 56 57 60 62 61 64 70 75 77 80 84 85 86 89 85 74 70 63 53 45 39
31 34 38 39 40 42 44 46 47 46 46 45 46 47 49 50 51 51 51 53 54 56 57 57 60 62 61 64 69 75 76 80 81 80 84 88 86 74 70 66 56 46 39 34
35 35 37 42 44 45 45 44 44 45 46 46 46 48 49 49 50 50 53 55 55 56 56 58 61 61 64 68 73 77 79 79 80 83 86 85 75 70 67 59 49 41 35 31
38 35 39 42 44 43 44 43 44 44 45 46 47 48 49 50 52 54 54 53 57 57 60 61 63 66 70 75 78 79 81 81 84 85 82 77 68 68 61 51 42 36 31 29
37 37 40 40 39 40 41 42 43 44 45 46 48 50 52 54 55 56 57 57 60 61 62 62 66 70 74 76 80 85 85 84 85 81 75 68 66 63 52 43 37 33 29 28
39 38 38 38 39 40 41 42 44 46 47 48 50 52 53 54 54 56 58 60 61 58 62 67 72 76 78 77 84 87 84 83 81 76 69 64 61 55 44 37 33 30 27 26
39 41 40 41 41 42 44 46 47 48 49 49 48 50 51 53 56 57 59 61 59 64 69 73 75 74 76 76 81 86 86 79 75 70 62 60 54 46 38 35 30 29 25 24
40 41 41 43 45 45 47 48 49 49 49 49 50 54 56 59 60 60 59 60 64 71 74 69 70 73 77 76 83 82 77 75 69 63 59 53 47 40 34 31 28 28 24 22
40 42 44 46 47 46 46 47 47 49 50 52 54 57 60 60 58 58 61 66 63 62 66 69 74 78 79 82 80 75 71 66 62 58 54 46 40 35 32 29 26 25 23 20
40 40 41 42 44 46 47 48 51 54 55 58 60 61 57 54 53 57 60 65 67 68 68 78 83 83 78 77 74 69 63 62 58 54 48 41 36 31 29 28 25 24 22 21
41 43 45 47 48 49 51 53 54 56 58 60 60 58 56 54 61 65 64 66 68 72 78 80 78 76 76 72 66 63 61 56 53 50 42 37 32 28 27 26 25 25 25 24
42 45 46 48 51 54 57 58 59 60 58 57 53 50 55 59 62 65 67 67 71 75 75 73 73 72 68 64 63 60 57 53 50 46 38 33 29 26 25 24 24 25 26 27
48 50 53 55 56 58 59 61 60 58 53 50 52 55 60 62 63 67 69 70 70 72 71 69 65 63 62 62 60 57 55 52 49 42 36 32 29 28 27 27 27 28 28 29
56 60 63 63 62 59 56 54 51 48 50 54 58 63 68 69 68 69 70 70 70 69 66 63 61 61 61 60 60 59 54 51 47 41 35 32 31 31 31 31 32 32 32 32
62 61 60 58 57 57 56 56 55 53 53 55 57 59 62 66 68 67 66 65 63 62 60 60 62 60 58 59 59 54 50 48 46 40 34 34 33 32 32 31 31 31 30 31
59 59 58 56 55 53 51 49 49 51 53 56 58 60 62 64 66 66 65 65 62 61 61 62 59 57 57 56 54 50 47 46 44 38 34 34 35 34 33 32 31 30 30 31
52 51 50 49 51 51 53 50 48 49 54 59 62 64 66 67 67 67 65 63 64 63 61 60 59 56 54 51 49 47 45 43 40 36 35 35 35 35 35 34 33 33 33 34
49 53 56 51 49 48 48 47 52 56 61 64 66 69 70 68 65 67 65 63 60 60 61 60 57 54 52 50 49 46 44 41 38 36 36 36 36 36 36 36 36 36 35 35
49 47 48 49 48 47 49 53 57 62 65 68 71 70 69 69 69 66 66 65 64 63 60 58 56 54 53 51 49 47 44 41 39 37 37 37 36 36 37 37 37 37 37 37
45 46 48 50 51 53 56 60 64 69 72 75 74 73 72 69 66 63 61 60 60 58 57 56 55 54 53 52 49 47 45 42 40 39 38 38 38 37 36 36 37 39 39 40
47 49 51 53 56 59 63 68 72 76 80 80 76 71 68 65 64 64 63 61 60 58 57 56 55 53 52 51 49 46 44 42 40 39 39 39 39 38 37 37 39 40 41 42

GFSNGP_500_spd_030.txt.gz
Wind_Speed
17 18 19 20 22 20 20 22 22 22 24 26 33 31 33 34 36 38 41 43 45 47 48 49 51 51 52 53 54 57 58 60 60 61 65 64 66 71 76 80 83 85 89 92
18 17 20 22 22 22 23 24 25 29 28 32 37 39 40 41 43 45 47 48 49 49 50 52 52 53 54 54 56 56 59 59 60 63 64 66 71 76 79 82 84 88 90 93
17 20 22 24 21 24 27 27 31 34 35 38 42 45 46 48 49 50 49 49 49 50 52 53 54 55 55 54 56 58 58 59 61 62 65 70 75 82 83 84 85 90 93 81
18 22 26 21 24 27 31 33 37 40 42 44 47 49 51 52 50 49 48 48 49 50 52 54 55 53 52 54 57 57 58 60 65 66 68 74 80 83 84 86 88 93 84 74
22 22 25 26 27 29 34 36 39 43 44 46 48 49 48 49 49 49 48 49 50 51 53 53 51 52 53 55 57 57 59 62 67 68 72 77 81 82 88 88 92 88 75 71
21 25 26 26 29 31 34 37 39 40 43 46 48 48 48 48 49 49 49 50 51 52 51 50 52 53 55 56 57 58 60 65 68 72 75 78 80 84 89 90 89 77 70 67
22 25 26 29 31 32 36 40 42 43 45 46 47 47 48 48 49 49 49 49 49 50 51 52 54 53 55 58 59 61 66 71 73 76 77 77 80 82 87 88 81 74 68 59
25 28 32 34 37 40 41 43 43 44 45 45 45 45 45 46 46 47 47 48 49 51 53 54 58 56 59 64 65 64 67 73 77 77 76 77 82 83 84 84 77 69 62 51
29 31 36 41 43 44 43 43 42 42 43 44 44 45 46 46 47 48 48 50 53 54 54 54 55 57 63 67 65 69 74 76 77 74 79 80 81 80 78 77 69 62 54 43
35 36 41 43 42 42 42 42 41 42 43 44 45 46 46 48 50 51 53 53 52 54 55 56 56 63 67 66 73 74 77 79 76 79 81 81 79 79 75 68 62 55 46 39
38 38 39 39 40 41 40 42 43 43 43 43 45 47 49 51 52 52 52 53 56 57 59 60 61 62 62 69 73 78 82 77 77 80 79 81 84 78 68 61 54 47 41 36
39 38 39 38 38 40 41 42 42 43 45 46 48 48 48 48 49 51 53 54 56 61 63 62 59 65 69 76 78 78 74 75 79 79 82 84 77 67 59 54 47 40 37 32
37 38 40 41 42 42 43 44 45 45 46 45 46 47 47 49 49 51 56 62 61 62 62 60 64 71 74 73 74 74 74 76 77 79 76 73 65 58 53 47 40 36 33 29
38 40 41 42 43 45 45 46 44 43 45 46 48 50 53 55 57 58 59 54 61 62 65 72 72 69 70 71 70 76 75 74 73 70 67 61 56 51 47 40 36 32 30 27
37 39 42 43 44 45 44 44 45 47 49 51 53 56 59 62 63 64 63 59 59 67 66 67 70 70 69 72 73 73 71 68 68 64 59 54 50 47 42 36 32 30 28 25
40 41 43 43 44 44 45 47 49 51 53 56 59 62 63 63 63 58 56 58 63 65 66 65 66 69 73 76 75 70 69 65 61 58 54 52 48 45 38 33 29 27 26 25
42 43 45 45 46 47 49 51 54 57 59 61 61 62 61 59 57 57 58 59 60 62 66 69 74 77 74 71 71 69 63 59 58 56 55 50 46 42 36 32 29 27 26 24
44 43 44 46 48 51 54 56 58 59 61 61 60 59 55 52 54 56 60 66 71 72 74 76 75 74 70 67 63 60 58 58 53 54 52 47 44 41 35 32 30 30 30 29
41 44 47 49 52 55 58 61 62 60 56 53 51 51 54 58 64 67 68 67 65 65 65 66 66 65 63 62 60 59 57 54 53 53 51 46 44 41 35 32 31 31 32 32
48 49 52 55 58 58 54 52 51 51 52 52 50 51 50 49 49 50 55 59 65 69 69 68 67 65 63 62 59 57 56 55 52 50 48 45 43 41 35 33 32 32 32 32
54 57 56 50 48 50 52 52 51 51 54 54 50 47 48 51 56 61 65 68 71 72 69 67 64 63 62 60 58 58 57 53 50 48 46 43 42 39 34 33 33 34 34 33
45 44 46 48 50 52 52 55 55 53 51 51 50 51 54 58 62 66 72 76 75 71 68 65 63 61 60 59 58 56 53 50 47 45 43 41 39 36 33 33 34 35 36 35
43 46 49 51 53 54 54 52 51 52 52 54 56 58 61 65 70 74 77 80 74 68 65 61 59 57 57 55 53 51 49 47 46 44 42 39 37 36 34 34 35 36 36 37
48 51 52 53 52 52 52 51 52 55 56 57 60 63 66 70 74 83 86 77 70 68 67 65 62 60 58 56 53 52 50 48 46 44 42 40 37 36 36 36 36 37 37 37
51 52 51 50 49 50 51 53 55 57 59 62 65 68 72 79 82 86 80 73 71 67 63 60 58 56 55 53 52 50 48 46 45 43 41 39 37 37 36 37 37 37 37 37
51 50 48 47 49 51 54 57 59 62 64 66 69 73 78 83 88 81 75 70 65 62 59 56 53 50 48 47 46 46 45 44 42 40 39 38 37 37 36 37 39 40 38 36
47 46 46 48 51 54 57 60 63 65 68 71 74 79 85 87 80 75 68 64 63 60 56 53 51 50 49 48 47 47 46 46 44 41 40 39 38 37 37 37 36 35 35 35

GFSNGP_500_spd_033.txt.gz
Wind_Speed
22 21 20 20 21 22 23 20 23 18 26 22 31 35 34 35 37 40 43 45 47 49 51 52 52 53 54 54 54 56 57 56 56 58 60 61 60 62 68 73 73 76 80 79
21 22 21 22 21 22 22 22 24 25 28 29 34 37 39 42 45 47 49 50 51 51 52 52 53 53 54 55 55 57 56 55 57 58 59 60 62 66 73 74 77 79 81 81
22 20 21 19 18 21 23 24 28 31 31 37 39 41 43 47 49 51 51 53 53 53 52 52 52 52 54 55 55 54 54 55 56 57 59 61 64 71 78 81 85 83 79 83
20 20 21 17 19 22 25 27 32 36 36 41 46 45 48 50 51 52 52 52 52 50 50 51 53 53 54 53 53 54 55 56 56 59 64 67 69 77 80 83 81 76 84 84
21 21 21 20 21 24 27 30 37 36 39 42 45 47 49 52 50 51 51 50 49 49 51 51 52 51 51 52 54 55 55 56 60 63 70 74 74 77 79 77 72 84 84 84
18 20 21 22 23 26 29 32 34 36 39 42 45 48 49 50 51 50 47 48 48 49 50 49 50 51 52 54 56 58 58 59 59 67 72 75 79 81 80 74 79 80 81 81
18 19 20 21 24 27 30 35 37 40 42 44 46 47 45 46 47 47 47 46 45 46 49 50 51 52 53 53 56 59 60 64 72 73 78 80 83 81 78 81 80 76 76 79
18 21 25 27 30 32 35 38 40 42 44 44 44 46 47 46 47 47 47 46 47 48 49 51 52 51 49 60 61 62 56 64 70 77 81 81 80 75 81 78 78 78 77 69
23 27 30 34 35 37 39 41 42 43 43 45 45 47 50 47 46 47 49 50 49 50 49 50 52 56 56 54 64 67 65 71 74 80 82 76 74 72 75 77 73 70 69 66
29 32 36 37 40 42 43 43 43 44 44 44 46 47 48 46 48 49 50 50 51 51 53 55 56 59 64 62 69 67 71 74 79 77 73 71 73 76 75 70 68 66 61 57
33 36 38 42 44 41 43 44 43 44 46 45 45 47 48 49 49 49 50 51 53 55 57 59 62 66 65 61 65 71 76 75 75 72 72 71 76 72 65 61 63 59 55 49
38 40 40 42 43 41 43 43 44 46 47 47 47 49 48 47 49 51 53 55 57 59 62 64 66 61 71 68 69 77 74 71 72 73 75 75 69 63 60 57 56 52 49 44
40 41 42 41 41 44 45 45 45 45 47 48 48 48 49 51 53 54 57 59 62 63 65 64 60 58 63 76 76 71 74 75 75 79 75 68 62 61 59 54 51 48 44 40
38 39 42 43 46 45 44 46 46 47 48 47 47 49 51 54 57 59 62 64 66 66 63 60 62 68 69 73 78 74 75 78 72 68 66 62 61 58 55 53 50 44 40 35
39 40 43 43 44 45 47 48 48 49 48 48 50 53 56 59 61 63 64 64 62 60 60 62 67 72 74 74 76 76 73 72 70 67 64 60 56 53 51 50 47 42 38 33
40 41 43 44 46 47 48 49 48 48 50 53 56 59 61 63 63 60 58 57 58 60 63 65 68 71 72 70 74 74 73 73 70 63 58 55 53 51 50 49 44 41 36 32
42 43 45 46 47 47 46 47 50 53 56 59 61 62 60 57 56 56 56 57 59 65 68 69 66 66 65 68 71 73 70 65 62 59 56 53 51 50 49 46 43 40 36 33
45 45 44 44 45 47 50 53 56 57 58 57 55 55 55 57 57 58 58 59 58 58 59 58 60 65 71 76 74 69 66 63 61 59 56 54 53 50 47 45 42 39 36 34
43 43 44 47 49 52 53 54 54 51 52 53 55 57 57 58 58 56 54 54 55 57 59 64 67 72 79 77 69 64 62 59 58 56 54 54 52 49 45 43 41 39 35 33
43 46 48 50 51 53 48 48 48 52 54 55 56 58 57 55 55 53 56 59 63 65 65 68 73 78 82 71 64 60 58 57 54 52 50 49 47 44 43 41 39 37 33 32
47 49 50 50 47 45 47 50 52 54 55 56 56 55 54 55 56 60 61 62 65 68 71 76 79 86 78 69 65 62 60 56 55 53 51 49 46 43 41 39 38 35 32 31
51 49 44 43 45 48 51 52 54 56 56 56 56 56 57 59 62 63 66 69 70 73 76 81 88 82 72 67 62 57 55 54 53 51 48 47 46 43 41 39 37 35 32 32
45 42 44 47 50 51 53 55 56 57 56 57 57 59 61 64 65 67 68 72 76 79 84 88 82 72 65 60 57 55 52 50 49 48 47 45 44 42 40 38 37 36 34 34
43 46 49 50 52 54 56 57 58 57 56 57 59 61 63 65 67 70 73 77 81 87 84 78 68 63 60 56 53 51 49 48 47 44 43 41 40 39 38 37 37 36 36 36
48 50 52 54 56 57 58 56 56 56 56 58 60 62 66 68 71 73 78 83 85 80 71 67 64 59 55 52 50 48 48 46 46 45 44 42 40 38 37 36 36 36 36 37
52 53 55 56 57 57 56 55 56 57 58 59 62 65 68 71 75 80 84 83 76 69 66 64 61 57 53 50 48 46 46 44 44 44 43 43 41 39 38 37 36 36 36 36
55 56 57 57 56 56 55 56 56 57 59 62 65 69 72 75 81 82 79 73 68 65 63 61 56 52 52 52 51 49 48 47 46 45 44 43 42 41 38 38 37 37 37 38

GFSNGP_500_spd_036.txt.gz
Wind_Speed
22 18 25 25 20 19 21 19 21 18 21 20 23 32 37 38 37 38 38 46 47 49 51 52 54 53 52 54 52 51 55 56 57 55 55 56 58 59 61 64 67 70 73 77
23 22 24 24 21 21 21 21 22 23 26 25 34 36 34 40 41 44 46 48 51 47 49 52 54 55 52 53 53 54 55 54 53 54 55 58 60 62 64 68 69 71 76 80
22 23 22 22 19 20 20 23 24 27 28 32 34 40 40 37 43 46 46 47 51 53 51 52 55 56 54 53 53 52 52 53 54 56 57 58 59 61 66 71 73 76 85 81
22 23 23 19 18 19 21 22 27 31 34 32 36 40 42 45 46 48 52 52 51 53 54 52 51 53 52 51 51 52 53 55 55 55 57 61 63 66 73 84 80 85 85 76
23 23 20 19 21 19 21 26 29 30 31 35 39 39 44 47 48 50 51 53 52 49 49 50 51 50 50 51 53 55 55 56 57 63 66 67 68 71 76 81 87 79 70 71
19 20 21 23 20 21 23 28 28 28 32 35 38 43 46 47 50 50 48 49 47 46 48 48 49 49 52 55 56 56 56 57 60 62 72 67 74 76 75 87 75 71 73 78
18 19 18 22 17 21 23 26 29 32 35 38 41 46 48 47 49 49 49 50 48 47 48 49 51 52 53 52 55 57 58 58 65 69 66 73 81 75 80 69 71 72 78 75
14 15 18 19 22 23 26 30 33 36 39 42 43 44 46 48 48 43 51 52 49 50 50 51 51 52 53 55 58 59 61 62 63 71 70 83 84 67 66 71 76 77 77 69
16 20 21 24 26 29 31 33 37 40 42 44 45 46 47 49 50 48 50 50 51 50 49 52 53 55 58 60 63 65 62 65 71 78 80 74 66 70 75 77 78 71 64 59
20 25 29 29 31 33 34 39 41 43 45 45 44 47 49 50 49 50 51 51 48 50 53 55 57 60 63 65 66 68 66 67 75 78 75 72 71 78 80 73 68 63 58 55
26 29 32 36 38 38 41 42 44 46 46 45 47 48 48 48 50 50 49 50 52 54 57 60 63 65 66 67 67 66 66 71 78 76 74 77 78 71 68 65 61 56 53 51
33 34 35 40 41 43 45 45 45 46 46 47 47 47 49 49 49 50 51 53 56 59 62 65 67 69 69 66 64 65 69 71 74 79 77 72 71 68 65 60 56 53 51 48
40 40 42 42 43 42 46 46 46 46 45 46 48 48 49 50 51 52 54 58 61 64 66 67 65 63 66 65 66 69 73 76 72 69 70 72 73 72 66 57 55 51 47 46
41 44 45 46 45 45 46 45 45 46 47 48 49 51 51 51 54 57 61 63 64 63 61 60 61 63 64 66 69 71 70 69 69 68 71 75 73 68 61 56 51 46 46 44
43 44 47 48 47 46 45 46 47 48 49 51 50 50 52 56 59 62 62 59 59 60 62 64 64 64 66 67 66 66 65 64 67 72 76 72 67 63 59 54 51 46 45 43
45 45 46 45 45 46 46 48 50 50 48 49 52 55 58 61 61 57 58 60 60 63 65 64 63 61 61 63 64 65 68 70 74 79 79 69 62 58 55 52 49 48 46 43
45 45 46 46 46 47 49 49 48 49 51 54 57 58 60 54 55 58 59 61 62 64 65 61 58 59 61 65 69 71 72 74 77 83 71 64 61 57 54 50 48 45 43 40
46 47 46 47 49 49 48 49 50 53 55 57 58 54 53 56 58 59 61 62 63 61 60 61 63 64 66 69 72 74 76 80 83 75 66 62 60 57 54 51 49 45 41 38
47 46 47 49 48 48 49 51 53 56 58 53 51 54 56 58 60 61 63 61 60 60 62 65 66 68 69 71 76 79 84 82 74 67 61 58 56 54 52 50 47 44 40 38
45 47 47 47 48 50 52 54 56 52 50 51 54 57 59 60 61 62 62 61 63 64 67 68 69 70 73 77 82 84 77 70 64 59 57 54 52 51 49 47 45 43 40 38
46 45 46 48 51 53 55 53 49 49 52 55 57 60 61 61 62 62 61 62 65 67 69 71 73 75 78 85 82 74 66 64 60 55 53 52 50 48 46 44 42 41 39 37
45 47 50 53 54 54 50 48 49 53 55 58 60 61 62 63 62 62 64 66 67 69 72 75 76 80 85 80 73 67 63 61 56 52 50 48 46 45 43 40 40 39 38 37
51 52 54 54 49 46 48 51 54 57 60 61 62 63 63 63 63 64 66 67 69 72 75 78 82 84 78 71 66 63 61 57 51 49 48 48 47 44 42 39 37 37 36 35
54 54 49 45 47 50 53 56 59 60 62 63 64 64 63 63 65 65 67 70 74 75 80 83 81 75 69 65 63 59 54 50 49 48 47 45 44 44 43 40 38 37 36 34
48 46 47 50 52 55 58 61 62 64 65 65 64 64 64 64 64 67 70 73 76 80 81 78 72 67 65 63 59 55 54 53 52 51 49 47 45 44 43 42 40 38 37 36
48 50 53 55 57 59 61 63 64 64 64 63 64 63 63 64 68 71 73 77 79 79 74 70 66 64 62 60 57 56 57 57 54 51 48 46 46 45 45 43 41 40 38 36
53 56 57 58 61 62 63 63 62 62 61 60 61 62 65 68 71 74 76 78 76 72 68 66 63 61 59 56 57 60 60 57 53 48 46 44 43 42 42 43 42 41 40 38

GFSNGP_500_spd_039.txt.gz
Wind_Speed
22 21 26 21 22 23 18 21 19 13 17 15 22 26 31 33 33 35 38 40 45 48 44 42 41 47 45 47 47 54 51 53 54 54 55 55 56 58 60 58 61 63 67 69
24 24 26 25 23 22 20 18 18 16 18 20 28 32 33 34 34 38 43 45 46 48 46 46 46 40 41 48 51 51 53 53 53 54 55 57 59 58 59 62 68 72 82 76
27 26 26 27 16 24 20 20 21 23 25 27 30 32 35 36 38 39 42 44 45 47 49 51 52 48 44 45 48 49 52 55 55 56 58 58 59 61 63 64 69 72 82 86
24 25 26 18 21 19 20 22 24 25 27 27 29 31 34 39 41 43 45 47 47 48 48 47 48 44 41 42 46 52 55 57 57 56 57 59 60 62 69 73 80 77 79 84
24 24 22 22 19 16 21 23 24 24 25 28 31 34 37 39 41 44 46 49 50 49 46 46 47 46 47 50 51 55 55 54 55 57 60 62 64 66 69 70 74 81 82 70
23 23 22 22 21 18 23 26 23 24 26 29 31 34 37 40 43 46 48 47 45 44 43 44 46 48 50 51 52 52 54 56 60 62 64 65 66 70 74 78 82 77 70 70
20 20 20 18 18 22 24 24 21 24 26 29 33 36 40 43 46 46 45 44 45 47 49 48 49 50 50 50 53 55 57 59 62 64 69 68 70 74 77 80 84 76 75 78
17 18 19 17 18 19 20 20 24 28 31 34 36 39 43 46 46 44 43 45 47 48 49 51 51 51 52 54 57 59 62 66 68 69 68 70 68 73 77 76 75 73 67 64
16 15 17 18 19 19 20 24 29 32 34 37 40 43 44 44 44 44 45 46 47 49 49 50 51 52 54 57 61 65 67 69 69 70 71 70 70 72 74 72 67 66 65 63
19 19 21 21 22 24 25 30 33 37 40 41 43 44 44 45 46 46 47 49 50 50 51 52 53 56 60 63 65 65 65 66 68 71 71 71 72 69 67 65 66 69 69 63
22 24 25 28 29 31 34 35 39 42 42 43 44 45 46 47 47 49 51 51 52 52 52 54 58 62 64 63 62 64 66 67 69 70 69 67 66 66 66 68 71 74 70 62
27 28 30 33 36 38 41 43 45 45 45 45 46 46 47 48 50 51 52 52 51 52 56 59 62 62 60 61 63 66 68 70 70 68 66 65 64 64 68 71 73 75 66 59
33 34 35 37 39 42 45 46 46 46 46 46 46 47 49 51 52 52 50 51 55 57 60 61 59 60 60 63 66 68 69 69 66 63 62 64 67 68 68 69 74 65 58 55
38 39 40 41 43 46 47 48 48 48 47 48 49 50 52 53 51 51 54 56 59 60 59 59 59 62 64 67 67 68 69 67 61 61 64 67 70 72 75 78 74 57 53 51
41 43 45 46 47 48 48 47 47 47 48 50 51 53 52 51 52 55 57 59 59 58 59 61 63 65 67 69 69 69 67 66 66 68 69 73 75 79 80 74 65 58 52 47
45 46 48 50 50 49 48 48 48 50 50 52 53 52 52 53 56 58 58 57 57 60 62 63 66 68 68 68 68 67 68 68 70 73 75 77 83 80 73 67 63 57 53 48
47 48 49 50 49 48 48 50 50 51 53 53 52 53 55 57 59 57 56 57 60 63 65 68 69 70 70 71 70 71 71 71 75 77 79 84 79 71 63 59 56 53 49 47
49 49 49 49 49 49 51 51 51 53 53 52 53 55 57 57 55 55 57 61 63 66 68 70 71 69 70 71 72 72 73 76 78 82 84 77 69 63 60 57 52 49 47 44
48 49 49 49 50 51 50 50 51 51 52 54 56 57 54 53 54 57 61 63 65 68 70 71 71 71 73 72 72 75 77 79 83 82 76 67 60 57 56 53 49 47 45 42
47 49 51 50 49 50 50 49 50 53 55 57 56 54 52 55 58 61 64 67 69 71 72 73 73 72 71 72 75 77 81 85 80 73 65 61 57 55 52 50 47 43 41 40
50 50 50 49 46 45 48 51 54 56 57 55 52 53 56 59 62 64 67 69 70 71 72 72 71 71 73 74 78 81 83 77 70 65 63 59 53 49 47 45 44 42 38 36
44 42 41 43 47 51 53 55 57 56 53 51 53 57 60 63 65 67 69 70 71 71 71 70 70 73 77 79 82 81 75 69 66 63 59 54 51 49 49 46 44 42 38 37
38 42 47 50 53 55 56 56 53 50 51 55 58 61 64 65 67 68 69 69 68 67 68 71 74 78 81 83 78 74 69 66 64 61 55 53 53 53 51 48 46 44 41 38
47 50 53 56 56 54 51 50 51 54 57 59 62 64 65 66 67 68 67 67 66 69 72 76 78 81 80 77 73 68 67 65 61 57 57 57 55 52 49 47 46 45 43 41
54 57 57 54 49 49 51 54 56 59 61 62 64 67 68 66 65 63 64 65 69 73 77 80 80 77 75 71 68 65 62 59 57 59 60 58 53 47 44 43 42 42 42 41
52 50 49 49 51 54 56 59 61 62 63 65 66 66 63 60 61 62 66 68 72 76 78 76 76 72 68 66 61 57 54 55 60 60 56 52 46 40 37 35 35 36 37 37
48 49 52 55 57 59 60 62 64 65 64 62 61 59 57 58 61 66 68 71 74 74 74 72 68 66 63 57 53 51 53 58 57 53 48 43 38 34 31 28 27 27 29 31

GFSNGP_500_spd_042.txt.gz
Wind_Speed
16 19 22 23 21 23 22 21 22 20 22 19 26 30 28 28 25 23 25 29 31 33 36 37 35 41 42 42 44 44 43 47 44 47 57 56 57 59 60 60 61 63 65 67
22 24 26 28 25 23 27 27 22 19 22 23 30 30 27 27 28 30 32 34 36 40 45 47 46 40 38 36 36 40 48 44 47 54 55 59 60 58 60 62 64 67 70 73
27 27 29 34 27 25 26 31 27 26 25 24 24 27 27 28 29 32 36 38 40 43 44 45 47 45 34 42 40 40 44 51 54 56 58 58 59 60 62 66 71 75 76 78
31 31 36 29 29 31 27 26 28 26 25 23 23 24 27 30 33 35 37 39 41 43 45 47 46 46 43 44 46 46 51 53 54 55 56 58 60 64 62 75 80 79 83 82
29 29 30 27 27 26 25 26 25 23 23 23 25 27 31 33 35 37 39 41 43 45 46 47 46 46 46 46 47 49 49 51 53 56 57 62 59 67 69 71 74 77 79 77
27 25 26 22 25 24 25 26 22 21 22 24 28 30 32 34 36 39 40 44 46 47 47 46 46 46 46 47 48 48 50 52 54 57 61 67 68 68 70 73 76 80 75 74
26 26 24 19 23 24 25 20 20 22 25 27 30 31 34 36 39 41 44 45 46 46 46 48 47 47 49 50 50 52 53 55 55 57 63 66 67 69 72 76 77 77 74 66
24 25 21 19 20 20 18 20 20 23 26 28 31 33 36 39 42 44 45 46 46 47 47 48 49 50 51 51 50 52 55 58 61 60 61 65 69 72 74 75 75 72 66 62
23 22 19 17 15 14 15 19 24 26 29 31 34 37 40 41 44 45 45 46 47 47 49 51 52 53 52 51 54 57 60 60 60 62 64 69 71 73 75 75 70 64 64 65
21 18 16 15 16 17 20 24 27 29 32 35 38 41 43 44 45 46 47 47 48 49 51 53 53 51 52 56 58 58 58 60 63 66 69 70 72 74 74 69 67 67 66 68
21 19 20 20 22 24 26 28 31 34 37 39 41 42 44 46 47 47 47 49 51 52 54 53 51 54 56 57 57 59 61 64 66 69 71 73 73 73 71 67 68 69 71 73
24 25 25 27 28 30 33 36 38 40 42 44 45 46 47 48 48 48 51 52 54 54 52 53 55 57 57 56 58 60 63 66 68 71 73 74 74 73 69 68 69 73 76 78
27 29 30 32 34 36 38 40 43 45 46 46 48 50 49 49 50 52 53 55 54 54 54 56 57 56 57 59 61 64 67 70 72 73 73 73 75 75 72 67 73 75 79 80
32 33 34 36 39 40 42 45 46 47 48 50 51 50 50 52 53 53 55 55 54 55 56 57 57 58 60 62 65 69 71 74 75 77 78 78 77 74 74 76 77 78 79 74
35 37 39 40 43 44 46 47 48 49 51 51 51 52 53 53 54 55 55 55 56 57 58 57 59 61 63 67 70 72 73 75 77 77 77 76 75 75 77 79 82 80 72 63
40 41 43 45 46 48 48 49 51 52 52 53 53 54 54 54 55 55 55 57 58 59 58 59 61 64 67 70 72 74 77 79 80 80 77 75 76 78 81 83 77 69 60 55
45 46 47 48 49 50 50 53 53 52 53 53 54 54 54 55 55 55 58 59 59 57 58 61 64 68 71 74 77 79 80 80 80 76 75 77 79 81 81 73 66 61 57 53
46 47 49 49 50 53 54 52 52 53 54 54 54 54 53 54 56 59 60 58 57 59 62 65 69 73 75 77 78 80 82 80 76 76 78 79 83 77 71 64 61 59 53 48
47 48 49 51 52 52 51 52 53 54 53 53 51 51 54 58 61 59 57 57 59 62 65 69 72 73 75 78 80 80 77 76 77 80 83 81 76 71 64 59 56 52 48 44
47 49 50 50 49 50 52 54 53 50 48 48 53 57 60 61 58 56 56 59 63 66 69 71 74 77 79 79 78 76 75 79 83 81 77 76 69 64 62 58 52 48 46 45
47 47 48 49 51 53 52 49 47 48 51 56 60 62 61 57 56 58 61 64 67 70 72 73 75 76 75 74 73 75 82 82 79 78 72 67 65 62 57 53 50 50 50 49
46 48 50 52 51 47 45 47 50 54 59 62 62 59 56 56 59 62 65 67 69 71 73 73 72 71 70 72 75 82 78 78 74 71 69 64 58 54 54 54 53 51 49 48
51 50 46 44 41 45 50 53 57 60 63 60 56 55 57 60 63 65 68 69 70 70 69 67 66 68 71 75 80 77 75 71 71 67 60 56 57 60 58 53 49 45 44 44
43 43 45 47 49 53 55 59 63 61 56 55 56 58 61 63 64 66 68 68 65 64 62 63 68 70 74 77 75 74 70 70 65 57 53 58 59 55 53 50 45 40 37 37
45 47 50 53 56 61 64 60 56 54 55 58 60 62 63 64 67 67 65 62 61 62 64 67 70 73 75 74 72 71 68 65 57 51 54 57 52 50 48 45 42 37 32 29
52 55 58 61 61 58 54 53 55 57 60 62 63 64 65 64 62 62 63 62 63 63 66 69 72 75 72 72 72 68 64 58 52 49 54 50 47 45 44 42 40 36 32 27
58 58 55 53 53 54 56 58 59 61 62 64 65 63 61 59 59 59 60 61 62 66 69 72 75 73 72 73 70 64 58 53 47 47 50 46 44 43 42 40 38 36 32 28

GFSNGP_500_spd_045.txt.gz
Wind_Speed
18 18 23 24 24 26 25 25 24 18 20 22 30 32 32 29 25 22 21 22 25 26 27 29 32 32 32 34 34 43 47 38 40 48 52 55 56 57 63 63 63 63 65 68
21 19 22 26 28 29 26 27 28 29 28 27 29 32 30 26 26 25 25 27 30 31 32 33 33 37 40 41 47 46 43 46 48 49 53 54 58 58 59 61 63 64 68 71
26 26 26 31 27 28 28 29 31 33 31 29 27 28 28 26 26 27 29 30 32 34 36 38 41 44 47 48 47 46 47 49 51 53 54 56 57 59 60 61 61 71 75 78
30 28 32 26 29 31 34 33 31 35 35 28 27 25 26 26 27 29 30 32 34 36 39 42 45 47 47 46 46 48 49 50 52 54 56 56 57 58 54 67 72 73 78 80
32 32 30 28 28 30 31 32 32 30 30 28 27 26 26 28 30 31 32 34 36 39 42 44 46 47 46 46 47 48 50 51 52 53 55 54 57 59 56 67 72 76 75 76
33 33 30 25 28 28 28 31 27 27 27 25 25 27 30 31 31 31 33 37 40 42 45 47 47 47 48 48 49 51 52 52 52 51 45 57 62 63 62 64 68 71 74 78
34 34 32 28 27 30 30 20 22 23 25 28 29 30 29 29 31 34 37 39 43 45 47 47 47 47 47 48 51 52 53 51 50 53 56 58 60 62 64 67 70 75 76 76
32 34 31 26 26 25 19 20 20 24 26 28 28 27 29 32 35 37 40 43 45 46 46 46 46 47 49 51 53 54 51 52 55 56 57 59 61 64 67 72 74 75 78 78
33 30 28 24 21 20 20 20 21 23 24 25 26 29 32 35 37 40 42 43 44 46 46 47 48 50 52 54 54 53 54 55 56 57 59 61 64 69 72 74 76 78 80 79
30 25 22 22 19 19 19 21 22 23 24 26 29 32 35 37 40 42 44 46 47 48 48 50 51 53 54 54 55 55 57 58 59 60 62 66 70 73 75 77 79 81 80 79
28 22 19 19 20 22 22 23 25 27 29 31 33 36 38 40 43 45 47 48 49 50 51 52 54 55 55 55 56 58 59 60 62 64 67 70 73 76 78 79 81 82 81 78
26 26 25 24 24 24 26 27 30 32 33 36 38 40 42 44 46 48 49 50 51 52 53 54 56 56 56 57 59 60 61 62 64 67 70 73 75 77 79 80 80 79 77 78
29 31 31 28 29 30 32 33 35 36 38 41 44 46 46 47 49 50 51 52 53 55 56 56 57 57 58 60 61 61 62 64 67 71 74 77 80 83 86 85 83 77 74 76
33 33 36 34 34 35 37 38 38 40 43 45 47 48 50 51 52 52 53 55 56 56 57 58 57 58 62 61 61 62 65 68 72 75 78 82 85 87 87 87 84 75 73 76
36 37 38 38 38 39 40 41 43 45 47 48 49 50 51 52 53 54 55 56 56 57 57 57 60 63 63 61 62 65 69 72 75 78 82 85 87 86 85 82 82 82 78 70
41 41 41 40 41 42 43 45 47 48 49 50 51 52 53 54 55 56 56 56 56 55 58 62 64 64 62 62 64 68 71 75 79 82 84 86 85 83 82 83 80 76 72 67
47 45 44 44 44 46 48 49 49 49 50 52 53 54 54 56 56 56 56 53 54 59 63 66 65 62 62 64 68 71 75 78 81 84 85 83 80 83 81 78 74 68 63 60
44 45 47 47 48 48 49 51 50 51 52 53 53 55 56 57 56 53 52 56 61 65 67 65 63 63 65 69 72 75 78 81 83 82 80 78 81 78 76 72 71 66 59 53
44 45 46 47 48 49 49 50 50 51 52 54 55 56 55 53 53 54 57 62 67 69 65 63 64 67 69 72 74 78 79 79 76 76 75 79 76 74 73 71 63 55 53 51
43 45 46 47 48 48 48 49 51 52 54 55 56 53 51 53 56 59 65 69 68 64 63 65 67 70 72 74 76 76 75 74 73 73 79 75 73 71 71 61 55 57 56 52
45 46 47 47 47 47 48 51 53 55 55 55 52 51 54 58 61 66 70 67 63 63 65 68 70 72 74 74 73 73 71 71 73 78 74 72 70 69 63 56 58 57 54 50
43 43 43 44 47 49 52 54 54 51 52 53 53 56 60 64 67 70 67 64 64 66 69 71 72 73 72 71 70 67 68 72 77 75 72 73 69 64 57 56 56 54 53 50
41 44 45 46 49 49 49 49 49 51 53 55 58 63 66 69 69 65 63 65 67 69 70 72 71 69 67 66 65 67 72 76 75 74 75 72 65 58 53 54 52 51 50 48
46 48 47 45 46 47 48 50 53 56 59 61 65 68 68 65 63 64 67 68 69 70 70 68 66 64 63 64 67 72 75 73 76 77 72 64 58 52 50 50 48 48 48 46
51 49 48 49 50 51 52 55 58 61 64 66 66 63 63 64 65 67 68 69 68 67 64 62 61 61 63 68 72 73 72 75 77 72 63 56 51 47 47 45 44 46 46 43
49 50 51 52 54 57 59 61 63 63 63 61 61 63 64 66 67 68 68 66 63 59 59 60 61 64 68 70 70 70 73 74 69 62 54 50 46 44 44 42 42 45 45 41
53 55 57 58 59 60 59 58 59 59 61 62 64 66 67 68 68 65 62 59 57 58 61 62 65 68 69 68 68 72 72 67 62 55 49 46 43 42 42 41 40 43 42 39

GFSNGP_500_spd_051.txt.gz
Wind_Speed
20 23 26 27 30 30 31 31 32 28 26 20 21 18 22 23 21 21 22 24 24 25 29 30 31 32 34 35 35 36 35 35 36 39 40 41 43 46 48 49 52 53 57 61
22 22 24 26 27 29 30 29 31 30 24 23 22 24 25 27 26 23 23 23 24 27 28 28 30 31 32 33 34 35 35 37 39 40 42 45 47 48 48 51 54 57 59 60
23 23 25 26 22 19 22 23 23 23 21 24 25 27 27 27 26 25 25 25 26 27 28 29 30 31 32 33 34 35 38 40 42 44 46 48 49 50 53 54 57 58 58 59
28 26 28 13 17 20 18 21 24 24 25 28 29 29 30 31 30 28 26 26 27 27 28 28 29 31 32 33 36 38 40 42 45 47 48 50 51 54 54 57 58 59 61 62
35 31 27 20 16 18 22 15 23 23 28 29 28 29 30 31 31 29 27 26 26 26 26 28 28 30 33 36 38 40 42 45 47 49 50 52 54 55 58 59 61 61 61 65
34 36 29 16 18 20 22 11 19 26 31 30 30 30 28 29 29 28 26 24 24 27 28 28 30 33 35 37 40 43 45 47 49 51 53 55 56 57 58 60 60 61 64 68
33 35 29 21 21 22 23 22 22 26 29 30 29 29 28 27 25 25 24 26 27 27 28 30 32 34 37 40 42 44 47 49 52 53 55 56 57 58 59 59 61 64 67 70
33 35 34 21 25 26 22 22 24 25 27 28 29 26 25 24 23 23 25 25 26 28 30 32 35 37 40 43 44 47 49 51 52 54 55 56 58 58 58 61 65 67 69 70
34 32 30 26 26 25 24 24 25 25 26 25 25 22 21 20 21 22 23 26 28 30 33 36 39 41 43 45 48 50 52 54 54 55 56 57 56 58 63 66 68 70 71 71
34 29 29 28 28 28 27 24 25 26 24 25 22 20 20 21 22 25 27 30 33 35 38 40 43 45 47 49 52 55 55 55 56 57 57 55 58 63 67 69 71 73 74 76
32 28 28 28 29 31 26 25 24 24 21 21 22 24 24 26 28 30 32 34 37 40 43 45 48 50 52 54 56 57 57 58 59 57 54 58 63 68 71 73 74 75 77 80
28 24 28 28 30 30 25 25 23 23 25 26 26 28 29 32 33 35 37 39 42 45 47 49 52 54 56 57 57 58 59 60 59 55 58 63 69 72 73 73 74 77 80 84
37 34 31 34 36 33 28 28 26 25 27 30 31 33 34 36 38 40 42 45 47 49 51 53 56 57 58 58 59 60 61 59 56 59 63 68 73 74 74 74 76 79 83 88
42 40 33 31 35 39 35 31 30 29 31 33 35 38 39 40 42 45 47 49 51 53 55 56 57 58 58 59 61 62 59 57 60 64 70 75 78 78 77 76 78 82 87 90
44 44 34 36 34 40 44 38 34 34 35 37 39 42 44 46 47 49 51 53 55 57 57 57 58 59 60 62 64 61 60 63 66 70 76 80 80 77 77 79 83 86 88 84
37 38 37 36 39 42 47 46 44 43 42 43 45 47 49 50 51 52 54 55 57 58 59 59 59 62 63 63 62 63 66 69 70 75 79 77 77 77 79 83 85 85 81 81
48 39 42 45 37 35 38 40 43 47 47 46 49 51 50 51 52 54 56 56 57 57 58 60 63 64 63 63 65 68 70 71 75 78 77 77 77 80 82 83 81 77 79 77
41 38 40 40 40 43 49 46 44 45 46 46 46 41 53 54 55 56 57 57 56 59 61 63 64 63 64 66 68 71 73 76 79 77 76 77 80 82 81 76 74 76 73 72
48 45 47 44 40 43 41 43 45 44 43 42 41 46 55 60 59 57 56 58 61 62 63 63 64 65 67 69 72 74 78 78 76 75 76 79 81 77 72 72 74 71 70 71
49 52 56 40 36 41 47 47 40 42 42 38 44 58 60 57 55 56 60 62 62 62 64 65 66 68 70 73 75 78 76 73 74 76 78 78 72 68 70 71 68 69 71 71
36 41 39 37 38 38 40 41 39 41 43 47 58 57 53 54 58 60 61 61 62 63 64 67 69 72 74 77 76 73 72 74 77 77 75 68 66 69 69 65 67 70 72 70
33 30 29 32 33 34 36 40 45 50 53 54 53 54 58 60 59 60 61 61 63 65 68 70 72 74 76 75 72 73 75 77 76 70 65 65 68 68 64 66 69 72 71 65
27 30 34 39 40 42 45 48 49 49 48 51 56 61 62 60 60 61 62 63 66 69 71 73 75 75 74 74 75 76 76 72 66 63 66 68 69 64 64 68 71 71 67 60
33 36 39 40 42 44 45 45 48 50 53 58 60 60 60 59 60 61 64 66 69 71 75 76 75 74 75 76 76 73 67 63 64 67 68 69 67 64 67 70 70 68 62 56
38 38 39 40 42 45 47 50 55 56 57 58 59 60 60 61 63 65 67 69 72 76 75 76 77 77 77 75 71 65 65 67 69 69 69 68 65 66 69 70 66 62 56 52
40 41 42 46 49 52 54 56 57 58 58 58 59 60 61 64 67 70 72 73 74 76 77 78 78 76 74 72 71 71 71 71 70 70 70 67 66 68 69 66 61 56 51 48
42 45 48 52 54 54 55 56 57 57 58 59 61 64 67 69 71 73 75 76 78 78 78 77 76 75 76 76 76 75 74 73 73 71 68 67 68 68 64 60 55 50 46 44

GFSNGP_500_spd_054.txt.gz
Wind_Speed
23 23 26 28 28 28 30 28 29 25 26 25 27 27 25 24 23 24 24 22 22 25 29 31 33 34 34 34 35 36 37 37 38 38 38 38 39 41 43 44 46 49 51 54
25 23 26 28 28 31 31 29 27 30 28 25 25 26 26 24 25 26 27 29 26 25 27 30 31 31 31 32 33 34 35 36 35 36 36 38 40 43 44 46 50 53 54 56
25 24 26 28 26 28 23 22 23 24 20 20 22 23 25 27 28 29 29 28 28 28 27 28 30 30 31 31 31 32 33 34 35 37 38 41 43 46 48 50 53 56 57 58
30 27 34 19 20 23 22 21 21 20 18 21 22 24 26 29 31 33 33 32 29 30 30 31 31 31 31 32 32 32 33 35 37 39 42 43 45 48 51 54 56 57 58 59
34 29 28 25 21 21 20 19 20 21 22 23 24 26 27 30 31 33 34 33 30 29 28 28 26 28 30 30 31 32 35 37 39 41 43 46 49 52 54 56 57 58 59 61
34 34 32 18 22 22 25 14 18 22 20 20 23 24 25 27 27 30 30 30 28 27 25 25 27 29 29 30 33 35 36 39 42 44 47 51 53 55 56 57 58 59 59 57
32 33 29 20 22 25 31 12 24 23 23 23 23 25 24 24 24 24 25 25 25 25 26 27 28 28 30 33 35 37 40 42 45 48 52 54 56 57 57 58 59 57 56 59
35 35 31 16 21 26 24 27 27 27 25 23 23 23 21 21 21 21 22 23 24 25 25 26 28 31 33 36 38 41 44 47 49 52 55 57 58 58 59 59 56 56 58 63
40 36 29 24 23 26 29 31 30 29 25 25 23 22 21 20 20 21 22 22 23 25 27 30 32 35 37 39 43 46 49 51 54 56 58 58 58 59 61 59 57 59 63 68
39 31 28 22 21 23 28 31 35 30 28 27 24 24 22 21 21 22 23 25 27 29 31 34 37 39 42 45 48 50 53 55 57 58 59 59 60 63 62 59 61 64 68 74
37 31 29 24 22 27 29 33 32 31 30 28 26 24 24 24 25 26 28 30 32 34 37 39 41 44 47 49 52 54 57 59 60 61 61 62 64 63 60 61 65 69 73 78
40 31 31 29 28 34 32 31 32 32 31 29 28 28 29 29 29 31 33 35 37 39 41 43 46 49 52 55 58 59 60 61 62 62 62 65 63 61 63 67 71 75 80 84
40 41 40 35 31 33 35 33 33 32 34 34 32 32 33 32 34 36 37 38 41 43 45 48 51 54 56 58 59 60 62 63 62 63 64 63 62 64 68 71 75 80 85 86
39 44 41 39 40 39 35 36 33 36 40 38 37 37 37 37 38 39 41 43 45 47 50 53 56 57 58 59 61 63 63 63 64 64 62 63 65 68 72 76 80 84 85 83
39 43 44 44 43 39 37 36 38 33 38 44 47 47 48 44 43 43 44 47 50 52 53 54 55 57 59 61 63 61 63 65 65 64 64 66 69 73 77 80 83 83 83 83
38 39 44 42 43 43 37 35 36 38 37 44 50 51 51 52 51 51 53 53 55 49 51 54 58 60 61 60 62 66 66 65 65 66 68 71 74 78 81 82 82 82 82 83
43 37 41 41 44 38 44 39 40 44 41 41 42 45 49 50 50 49 52 58 50 51 50 58 65 62 61 64 67 69 68 68 68 70 72 75 78 80 82 81 81 82 82 79
43 46 48 46 46 47 46 41 40 40 42 42 44 48 46 47 50 47 50 53 53 47 54 68 66 63 66 70 70 69 70 70 72 74 76 78 80 82 80 80 81 80 76 73
41 41 45 49 49 49 45 43 42 39 42 45 48 46 48 48 50 51 47 59 53 59 64 66 65 68 71 71 72 72 72 73 75 76 78 81 81 79 79 80 78 73 71 72
41 41 40 41 40 44 51 47 46 44 42 39 43 39 47 46 52 55 50 54 65 66 64 66 69 71 72 73 73 73 75 76 77 80 81 80 80 80 80 75 69 69 72 72
36 34 36 40 47 48 47 45 48 51 35 35 38 46 52 52 54 58 63 67 67 67 68 71 72 73 74 73 74 76 78 80 81 82 80 80 80 78 72 68 69 72 72 71
39 43 41 38 34 38 36 33 35 38 42 50 53 51 51 53 60 65 63 64 66 71 73 74 74 73 73 75 77 79 81 83 84 82 81 80 76 70 69 71 72 72 71 69
35 36 37 41 33 29 34 39 41 41 45 48 50 55 58 57 57 60 63 67 70 72 73 73 72 73 76 77 79 82 83 82 82 81 79 75 73 73 73 73 72 71 70 67
24 24 23 27 33 38 41 45 49 50 51 51 52 55 57 58 61 64 68 70 71 72 73 74 76 77 79 82 83 82 82 81 79 79 77 77 77 77 75 73 73 71 68 66
28 32 34 37 40 41 43 45 47 49 51 53 55 58 62 65 67 69 71 72 73 75 76 77 79 82 83 83 83 82 80 80 81 81 80 80 79 78 76 74 72 68 67 66
37 40 44 44 44 46 48 50 52 54 56 59 62 65 67 69 71 72 73 74 75 77 79 81 81 83 82 81 81 82 83 83 83 83 83 82 80 77 74 71 69 68 66 61
44 46 47 49 50 52 54 56 58 61 63 64 67 67 68 70 71 73 75 76 77 78 80 80 80 81 82 84 84 85 85 85 84 83 82 80 78 75 73 71 68 63 57 53

GFSNGP_500_spd_057.txt.gz
Wind_Speed
31 27 21 19 21 25 27 28 28 24 21 20 21 21 21 23 25 25 24 25 26 25 24 27 32 35 33 36 36 37 38 40 41 42 42 43 43 43 44 43 44 45 47 51
33 30 29 28 27 26 25 28 31 26 23 27 28 28 31 29 29 27 26 27 27 28 30 30 31 32 33 33 32 35 37 37 38 39 40 40 40 41 42 43 45 47 51 54
36 30 26 34 29 27 26 28 26 28 26 20 27 26 28 29 26 28 29 30 31 33 31 31 31 32 33 33 33 33 33 34 36 37 37 38 39 41 43 46 49 51 54 56
38 36 40 26 26 22 27 24 26 26 24 23 23 27 27 25 28 27 29 32 35 36 36 34 34 35 35 35 35 34 35 36 35 36 38 39 41 44 46 49 52 55 58 60
42 38 36 29 30 23 21 22 23 25 24 24 29 22 27 29 29 30 30 31 33 36 38 37 37 36 35 35 34 35 35 35 36 37 39 41 44 47 50 52 56 59 60 61
41 41 41 26 24 22 24 28 23 26 29 28 29 26 26 25 30 29 29 29 29 32 34 34 34 33 33 33 33 34 34 35 37 39 42 44 47 50 53 56 59 61 62 62
41 41 37 26 22 23 30 5 19 26 29 29 30 26 25 28 29 28 29 28 28 28 29 29 30 32 32 32 32 33 35 38 40 43 46 49 51 54 57 60 61 62 63 63
38 39 39 26 20 25 16 23 33 33 33 31 32 30 30 29 28 29 28 26 25 25 27 29 30 31 31 32 33 36 39 42 44 47 50 53 56 59 61 62 63 63 63 65
41 39 36 28 26 24 24 24 28 32 36 38 33 33 33 30 30 30 30 28 26 26 28 28 29 30 32 34 37 40 43 45 48 51 53 57 60 61 62 63 63 63 66 65
42 37 38 33 32 30 28 29 29 29 35 36 34 35 34 33 32 32 32 31 29 29 30 31 32 34 36 39 42 44 46 49 51 55 59 61 61 62 64 63 63 65 65 65
46 41 38 43 33 31 34 36 36 33 35 33 34 35 35 35 34 33 33 32 32 33 34 36 37 38 41 43 45 47 50 53 57 59 60 62 63 65 63 65 67 66 67 68
40 38 41 43 42 34 35 36 35 31 31 33 34 35 34 34 34 34 34 36 37 37 39 39 41 42 45 46 48 51 54 57 59 61 62 63 65 64 65 66 67 69 71 73
32 34 40 41 40 38 40 34 34 34 34 34 35 36 35 36 37 37 37 39 41 42 42 43 44 46 47 49 53 55 56 57 59 61 63 64 64 67 69 69 70 72 74 77
34 35 34 32 32 36 37 40 36 36 35 37 39 39 41 41 40 42 42 44 44 46 49 49 53 56 58 57 58 54 52 55 59 62 63 65 68 72 72 73 75 76 77 80
31 32 34 35 36 38 40 41 40 42 42 36 41 42 39 39 43 48 52 52 56 56 53 55 57 59 58 61 55 55 56 61 62 62 62 67 72 74 75 77 78 79 81 82
28 31 34 35 36 37 40 42 45 47 47 41 36 40 41 45 47 50 52 53 51 49 52 52 55 59 63 57 56 56 60 66 65 66 68 70 72 75 78 79 80 81 82 85
28 30 33 37 40 42 41 42 45 47 47 50 47 46 45 49 53 52 49 49 51 51 53 56 55 59 71 60 54 57 69 68 68 70 70 71 74 77 79 80 81 84 86 88
31 33 37 39 41 43 47 47 42 45 45 48 47 48 48 46 47 49 52 53 54 55 57 52 55 62 62 60 61 71 70 70 71 72 73 73 75 77 79 82 85 87 88 88
35 36 38 41 42 44 44 46 47 47 49 51 50 49 50 51 48 54 53 55 55 55 61 61 59 61 65 63 72 72 71 73 75 74 73 73 76 79 83 86 88 88 86 84
37 35 36 39 42 45 44 41 41 44 43 42 44 47 49 51 56 51 58 58 59 56 55 61 64 57 63 70 72 74 77 78 78 76 75 77 80 84 86 89 87 85 82 79
32 34 36 37 38 39 40 42 42 45 48 52 55 53 52 51 48 48 54 57 54 62 65 62 65 68 70 73 75 77 79 79 78 78 79 83 85 88 89 86 84 82 81 80
35 38 38 38 37 36 39 39 40 38 39 42 44 46 46 47 51 53 52 57 62 65 65 66 69 71 73 75 77 79 79 80 81 83 85 87 89 88 86 84 83 83 82 81
39 41 43 41 39 38 38 40 42 44 42 41 45 45 48 47 51 58 61 62 63 65 67 70 71 73 76 78 79 80 81 84 85 88 90 90 89 87 85 85 84 83 82 81
31 31 30 28 29 30 31 29 35 38 41 43 46 50 53 55 57 60 63 66 68 69 71 74 76 77 79 80 83 85 87 89 90 89 88 87 87 87 86 85 84 83 81 79
27 30 31 32 33 37 40 41 43 45 48 51 54 57 59 62 63 65 67 69 71 73 75 76 78 81 83 85 87 88 89 89 89 88 88 88 87 86 85 84 83 82 80 77
34 36 38 39 39 42 47 51 52 53 55 57 59 61 63 65 67 68 71 72 73 75 78 80 83 85 86 87 88 89 89 90 90 88 88 87 86 85 84 82 80 77 72 67
41 43 46 48 51 53 54 56 58 60 61 62 62 63 65 67 68 70 72 75 77 79 82 83 85 86 87 89 90 89 88 88 87 85 84 83 83 83 81 79 74 69 63 57

GFSNGP_500_spd_060.txt.gz
Wind_Speed
44 36 28 24 21 27 29 31 34 26 29 27 19 25 26 29 28 26 27 27 25 23 25 26 28 27 29 34 36 36 36 36 38 38 39 40 41 42 43 43 43 45 45 45
47 42 35 34 26 24 22 28 31 24 21 20 22 22 26 30 34 30 29 31 29 30 26 25 26 27 30 30 32 33 34 35 37 35 37 39 39 41 42 42 43 43 44 46
50 44 40 44 32 31 26 24 23 26 27 29 26 29 33 31 37 34 30 27 29 32 34 28 28 26 29 31 32 33 34 34 36 38 37 37 38 38 39 40 42 44 47 49
43 41 49 42 39 40 41 36 34 34 33 28 27 29 32 31 33 26 23 25 29 34 36 38 38 36 33 34 35 35 36 38 38 36 36 37 37 38 40 42 44 47 50 53
50 48 45 44 35 39 32 30 25 28 27 23 19 30 36 29 24 29 26 29 32 34 35 38 38 38 37 37 38 38 38 38 38 38 39 38 39 41 43 45 48 50 54 57
42 48 46 38 36 34 32 34 22 24 24 28 34 39 29 27 28 30 32 32 33 35 36 36 37 37 37 37 37 37 38 38 39 40 39 40 41 43 46 48 51 55 59 61
51 46 37 36 34 33 35 18 19 26 26 27 36 37 29 32 32 30 31 33 34 35 35 34 35 36 35 34 35 37 38 38 39 39 41 42 44 46 48 51 55 59 62 62
47 48 46 37 29 39 28 16 22 25 26 32 35 34 32 31 32 34 34 34 34 34 34 33 32 32 32 33 35 36 38 38 39 41 42 44 47 49 52 55 59 61 61 63
47 47 42 38 32 31 28 32 31 25 21 35 40 37 38 35 36 37 38 38 36 35 35 34 34 33 33 33 35 36 37 40 42 44 46 48 50 53 55 58 60 61 61 63
38 43 41 34 37 34 38 34 26 32 37 36 38 33 36 36 39 38 38 38 38 36 37 36 36 36 35 36 37 39 41 44 46 48 50 52 54 56 58 59 60 59 61 63
45 43 45 37 42 26 36 35 39 37 38 40 40 32 32 33 34 37 39 39 38 37 38 37 37 38 40 42 43 44 46 47 49 52 55 56 57 58 58 58 60 63 64 65
43 38 40 38 36 42 39 42 40 40 40 45 41 36 37 34 33 35 37 38 39 40 39 39 41 43 45 45 47 48 50 52 56 59 61 62 62 58 57 59 62 65 68 69
34 36 40 42 41 40 43 42 43 44 40 40 42 39 38 37 34 36 37 39 41 42 44 44 46 47 50 49 53 55 61 61 62 63 65 68 65 62 64 64 69 70 72 75
37 33 30 23 25 30 32 34 37 39 41 46 41 40 41 38 38 41 41 42 44 45 47 49 52 53 57 57 62 60 57 59 63 63 64 66 64 66 68 71 73 71 75 78
37 36 31 28 30 33 34 31 29 29 36 41 42 39 42 43 45 44 45 45 44 46 49 52 54 57 61 59 53 55 57 61 64 62 71 69 67 66 72 73 73 74 78 80
36 33 34 30 31 33 33 37 39 40 40 39 42 44 45 45 47 47 42 44 47 49 53 54 55 59 59 55 55 58 63 59 59 71 76 72 66 71 75 77 76 78 80 80
31 31 29 29 32 36 38 41 42 42 41 41 43 43 45 48 50 51 51 50 50 53 54 52 55 57 58 59 60 65 65 63 71 73 71 74 73 75 81 80 79 80 80 79
30 30 30 30 33 37 40 42 45 47 47 48 47 46 46 47 48 48 49 51 51 50 54 57 61 61 60 63 69 69 77 77 72 69 73 73 76 82 84 82 80 79 81 84
31 31 32 35 37 41 43 46 47 48 46 45 45 46 47 52 54 54 55 51 52 56 56 62 63 66 67 70 71 71 68 68 72 75 72 76 82 82 82 81 81 83 86 88
38 38 39 41 42 45 46 45 44 47 47 48 46 44 46 49 51 51 54 52 63 67 66 67 71 70 70 70 67 66 68 72 71 72 77 80 81 81 81 82 85 88 90 91
30 32 36 39 41 43 43 44 45 45 46 47 49 49 50 51 52 58 62 64 70 65 64 63 63 62 62 63 63 67 69 72 76 77 79 81 81 83 86 88 90 91 90 89
32 34 35 36 38 40 42 44 46 46 46 47 49 50 48 49 48 46 47 48 49 49 51 52 54 57 62 65 67 70 74 77 78 80 82 84 87 89 91 92 91 91 90 89
27 28 30 32 35 39 42 42 42 43 43 43 40 38 40 42 41 41 43 46 49 52 55 57 61 65 68 71 74 76 78 81 83 85 88 90 91 92 92 93 92 91 89 86
29 30 32 34 35 36 35 36 35 36 37 38 39 43 46 48 49 51 53 55 58 61 64 66 69 72 75 77 79 81 83 86 88 90 92 93 94 94 93 91 88 85 82 80
31 32 34 34 34 36 38 40 42 44 45 47 48 48 50 53 56 58 61 63 64 67 70 72 74 76 79 81 84 86 89 91 92 94 95 94 93 90 87 85 82 81 81 82
37 37 39 41 43 44 46 47 48 49 50 51 53 56 60 63 64 65 66 67 69 71 72 74 77 80 83 86 88 90 92 93 93 91 90 87 85 84 83 84 85 85 84 82
41 43 45 47 49 50 51 53 55 56 58 60 61 62 62 63 65 68 69 71 73 75 78 81 83 86 88 89 90 90 89 88 86 84 83 84 85 86 86 86 86 85 82 76

GFSNGP_500_spd_063.txt.gz
Wind_Speed
41 44 41 35 33 27 30 35 35 22 19 23 33 28 26 23 30 30 23 23 20 21 23 22 25 27 28 28 30 28 26 28 30 30 33 34 35 36 33 35 36 37 39 40
44 47 45 43 32 31 29 29 36 35 23 22 25 30 28 35 35 35 23 26 29 29 25 23 25 25 28 30 31 32 33 32 31 32 32 34 34 35 36 37 38 39 39 40
47 46 52 52 49 37 34 29 28 27 27 26 22 23 28 34 38 37 38 31 35 36 30 21 16 23 26 29 31 32 34 35 34 33 34 34 36 38 39 39 39 38 39 41
51 47 52 48 49 46 38 38 33 27 29 29 28 26 32 36 39 37 34 25 22 31 28 23 22 23 29 31 33 34 34 35 35 35 36 37 38 39 38 38 38 39 41 43
51 52 49 47 46 48 41 37 37 34 34 34 34 34 38 36 39 36 31 28 23 26 30 31 31 31 34 36 36 36 35 36 37 38 40 39 39 39 40 40 41 42 44 46
48 47 46 45 42 42 45 49 42 40 39 41 40 43 40 36 34 32 30 30 29 30 30 31 33 34 35 36 37 37 37 38 39 40 40 41 41 42 43 42 44 46 48 51
49 44 39 41 38 39 50 39 25 36 32 36 36 37 38 40 40 34 32 33 34 33 33 33 33 34 35 35 36 36 38 38 40 40 41 41 43 44 44 45 48 50 52 54
36 43 47 34 40 47 36 33 33 32 32 34 37 38 41 39 36 36 34 35 36 37 37 37 36 36 36 35 35 35 36 38 38 40 41 43 44 44 46 49 52 54 56 58
38 45 45 45 41 36 36 40 38 39 43 35 34 34 34 35 38 35 34 38 38 38 39 40 41 38 37 37 36 36 38 39 40 41 42 44 46 48 50 53 56 58 60 62
38 46 43 49 48 42 41 33 40 35 42 37 33 40 40 33 33 35 37 39 40 40 40 40 40 40 39 38 39 40 40 41 41 42 46 49 51 53 55 55 58 61 65 67
42 36 38 42 46 46 44 45 39 45 48 49 45 43 40 33 36 35 36 38 37 37 38 40 39 38 39 39 41 42 43 43 44 47 49 52 54 54 61 62 62 66 66 69
40 16 27 36 38 42 47 26 37 45 45 45 46 45 42 44 44 41 41 41 39 37 38 37 37 39 39 40 42 45 46 47 48 53 54 55 58 64 68 68 65 65 66 73
38 45 38 35 36 36 39 50 34 35 40 48 43 46 50 44 46 48 45 44 42 38 39 40 40 41 44 46 47 49 51 53 57 59 62 62 65 64 61 64 65 64 69 76
42 46 45 41 42 37 35 36 40 42 41 43 41 50 52 49 49 50 48 46 41 41 40 40 43 44 44 46 49 52 55 59 60 62 66 62 61 61 64 65 64 73 78 80
37 38 33 32 31 30 28 28 28 29 30 33 31 38 46 47 48 53 53 50 48 46 46 45 45 46 48 48 51 54 58 61 63 64 63 64 65 65 67 72 76 81 83 80
31 33 28 27 25 21 22 27 30 32 34 36 37 37 36 37 39 40 43 45 46 49 47 49 52 53 56 53 54 59 61 61 62 64 65 66 69 74 78 81 83 81 79 79
33 32 33 34 32 28 29 33 38 40 41 41 42 43 44 44 44 44 45 46 45 47 51 55 54 50 56 55 58 66 65 65 67 70 74 77 79 83 82 80 79 77 76 79
30 34 32 32 32 29 32 36 39 41 44 45 47 47 47 48 47 47 47 53 49 51 54 57 57 59 60 61 62 71 69 73 75 77 78 79 79 78 76 75 76 78 80 82
25 23 24 30 33 34 36 38 41 44 46 48 48 48 49 48 49 50 51 53 55 56 52 53 63 64 62 65 70 76 77 74 73 73 74 74 73 73 74 76 78 81 84 87
32 33 33 36 38 39 41 43 47 50 52 50 49 48 48 50 50 53 53 57 59 59 63 65 67 66 69 71 76 76 70 67 65 65 67 68 71 73 76 79 82 84 86 88
31 34 39 42 44 45 47 49 51 53 53 52 50 51 51 48 49 54 58 58 57 58 63 66 67 69 67 65 61 58 59 60 63 65 69 73 76 78 82 83 85 87 90 91
33 35 37 37 37 39 41 42 43 46 48 47 48 49 50 51 51 51 51 51 52 52 52 50 50 51 53 55 57 60 63 66 68 71 74 77 79 81 85 88 90 92 94 95
29 32 33 35 36 37 39 40 41 41 42 43 44 45 45 45 45 45 46 47 48 49 50 52 53 55 57 60 63 66 68 71 73 76 79 83 86 88 91 93 95 96 95 92
28 30 31 33 35 36 37 38 39 41 43 43 44 44 44 46 47 49 49 50 51 52 54 57 59 61 64 67 69 72 75 78 81 83 86 88 91 93 95 95 93 90 87 85
31 32 33 34 35 37 39 40 41 42 43 44 46 47 49 50 52 53 54 55 58 60 62 64 67 69 71 74 76 79 82 85 87 89 91 92 92 91 90 88 86 85 85 85
30 32 35 37 38 39 40 42 43 44 46 47 49 50 51 54 57 59 61 63 65 66 68 70 71 74 76 79 82 84 86 88 88 87 86 84 83 82 82 83 84 85 85 85
35 37 38 40 41 42 45 47 48 50 52 53 55 56 58 61 62 64 65 67 69 72 75 76 78 79 79 80 81 81 80 79 78 77 77 78 79 81 82 83 83 84 82 79

GFSNGP_500_spd_066.txt.gz
Wind_Speed
46 41 39 42 39 42 44 44 42 32 31 24 28 31 29 30 28 31 29 18 16 25 21 23 25 25 26 26 26 24 24 23 23 24 27 25 24 28 29 30 29 31 31 32
46 42 39 45 48 43 42 42 43 38 37 25 26 27 38 35 32 31 33 34 27 28 26 24 27 31 32 28 25 26 26 27 27 26 28 25 28 31 32 33 33 35 36 36
46 43 40 50 49 47 44 43 44 45 36 29 39 26 30 35 37 41 37 36 34 29 28 31 35 31 28 27 28 25 29 31 32 34 31 30 34 35 37 37 38 38 38 38
46 42 49 43 44 47 49 44 38 38 33 28 34 35 30 30 32 37 35 36 33 29 24 23 19 20 21 25 28 30 30 31 33 33 34 37 39 39 39 40 40 39 39 40
49 51 49 49 46 45 47 49 40 40 37 34 30 31 34 30 32 34 34 36 30 29 24 21 23 24 25 26 29 30 32 33 34 35 36 39 41 42 43 43 42 42 43 45
31 39 58 47 53 44 47 51 49 45 44 36 34 36 38 37 36 39 37 39 30 24 26 24 23 26 28 29 31 32 32 33 35 36 37 38 40 42 43 43 43 45 46 47
44 40 47 47 50 50 49 42 48 50 52 42 43 41 38 40 42 44 45 41 32 33 34 31 31 32 32 33 33 33 34 35 35 36 37 39 41 43 43 44 46 48 49 50
56 35 50 51 43 43 42 47 45 46 52 48 44 46 42 40 42 41 45 41 39 38 38 37 37 36 38 39 38 38 39 39 39 39 40 41 43 43 45 47 48 50 51 53
47 23 26 46 42 39 36 35 39 38 49 47 48 41 43 40 42 43 44 42 36 35 37 39 41 42 42 40 39 39 39 40 42 43 44 44 44 45 47 48 51 52 54 57
48 23 14 23 37 31 36 33 34 40 43 44 50 46 41 39 38 39 42 40 40 41 39 39 40 43 43 42 42 41 40 41 42 43 45 46 47 49 50 52 54 56 59 62
41 35 31 35 28 35 41 43 46 38 38 41 50 49 48 45 43 42 38 38 37 40 39 39 38 39 41 43 42 42 41 41 42 43 45 48 51 53 55 57 59 62 65 67
43 45 44 43 33 29 40 43 40 43 42 38 45 50 46 44 45 42 43 47 48 46 44 42 42 41 40 41 42 43 44 45 46 48 50 52 54 57 59 60 63 65 71 70
39 45 44 41 37 30 33 41 43 47 48 43 45 50 47 44 49 51 51 52 54 49 46 45 43 45 43 43 44 45 46 48 50 51 53 55 57 59 61 64 67 68 70 69
35 37 41 36 37 36 39 32 40 39 38 39 40 55 53 52 54 55 53 53 54 52 54 49 48 49 49 51 51 51 48 50 52 55 57 57 60 62 63 64 65 67 69 74
34 35 32 31 34 33 35 35 35 35 37 37 45 43 47 47 46 42 38 43 48 46 46 46 51 53 53 52 48 48 51 53 56 55 54 58 64 66 68 70 72 74 79 82
33 31 30 26 25 31 32 30 34 39 35 34 34 36 34 36 37 39 41 40 38 37 46 51 46 46 50 51 51 47 50 54 58 56 57 62 67 71 74 78 81 83 84 86
23 29 30 25 24 29 30 31 33 31 32 34 35 36 39 40 41 43 45 46 46 46 48 48 50 53 53 54 52 60 60 63 66 65 68 72 73 76 79 79 81 82 82 83
30 34 32 28 27 29 30 31 30 32 34 39 40 42 45 46 48 50 51 51 50 50 50 52 53 54 54 57 65 68 70 62 64 68 74 76 78 78 79 77 76 76 76 77
34 35 33 31 31 32 35 34 33 34 37 41 42 45 47 49 51 52 52 50 49 51 53 54 56 58 60 61 62 65 67 71 75 75 77 78 77 75 72 71 71 72 74 76
33 33 31 30 32 31 31 36 40 42 46 49 48 49 50 50 50 50 51 51 52 53 55 53 56 60 62 62 67 69 69 72 75 73 67 64 64 65 67 70 73 75 77 80
34 36 36 33 34 37 42 47 47 47 48 49 49 50 50 49 49 50 50 52 52 52 54 58 61 63 64 66 66 65 62 60 60 61 63 65 68 70 73 75 78 82 86 89
30 27 28 31 33 35 38 40 41 43 43 42 43 44 45 46 45 46 47 49 50 53 55 55 55 56 58 59 58 58 59 62 64 66 68 71 74 77 80 83 85 88 90 92
28 33 32 32 33 35 37 37 38 39 41 41 42 42 42 42 43 43 45 47 49 51 52 53 54 56 58 61 62 64 66 68 70 72 75 77 80 83 86 88 90 91 92 93
36 31 27 28 28 30 33 35 36 37 38 39 40 42 43 44 46 47 49 52 53 54 56 57 58 59 61 63 66 69 72 75 78 80 82 85 87 88 90 91 92 91 89 87
26 27 28 29 32 35 37 38 40 41 42 43 44 46 47 49 49 50 51 53 55 56 58 61 63 66 68 70 73 76 78 80 82 84 85 86 87 86 85 84 83 82 83 84
26 27 29 32 34 37 38 40 41 42 43 45 46 48 49 51 53 55 57 58 61 62 64 67 69 72 74 76 78 79 80 81 81 80 79 77 75 75 76 77 79 80 80 81
36 38 39 40 40 41 42 44 45 47 48 50 52 53 54 55 56 58 60 62 64 67 69 70 72 73 74 74 73 71 69 68 67 67 68 69 71 73 73 74 74 75 76 75

GFSNGP_500_spd_072.txt.gz
Wind_Speed
52 50 47 51 49 49 49 48 48 42 39 35 31 31 29 29 33 30 28 26 24 26 25 26 27 24 26 26 27 29 28 26 21 24 25 22 22 22 21 21 20 21 20 22
51 53 51 47 50 51 48 50 50 47 43 41 34 32 34 31 35 33 34 33 29 30 29 28 30 30 26 28 33 35 34 31 28 27 26 23 23 25 23 22 23 25 25 27
47 45 45 48 46 48 53 50 49 49 47 46 41 35 37 34 36 34 32 33 34 30 28 27 32 32 33 31 36 38 35 37 37 35 27 25 28 28 25 26 26 27 29 31
52 49 47 45 39 43 46 47 47 48 48 46 43 37 35 35 40 40 33 29 28 31 28 31 34 38 30 31 35 37 35 32 31 30 28 29 30 30 29 30 30 31 33 37
57 55 47 42 37 34 37 44 44 45 46 44 43 42 35 35 40 41 36 33 35 29 25 29 31 30 27 26 27 31 29 30 31 32 31 30 30 30 33 32 33 35 36 39
55 57 58 51 48 43 27 43 39 47 42 40 37 44 35 34 39 40 38 32 32 33 29 25 28 31 33 28 28 30 31 33 33 33 32 32 32 32 33 35 38 40 42 42
27 38 50 55 55 55 46 42 34 38 44 46 38 36 35 39 40 42 41 35 34 35 32 33 31 33 33 33 30 33 33 36 36 36 36 37 37 38 39 40 41 43 43 44
23 24 23 25 33 48 55 54 39 33 36 41 37 40 37 36 39 41 46 40 39 41 43 40 35 37 35 32 31 33 36 37 38 40 40 40 41 42 44 44 44 46 46 46
25 21 24 28 32 31 32 49 51 35 35 42 44 41 41 41 38 44 50 50 41 41 35 37 36 38 37 39 37 39 39 36 37 38 39 41 44 46 46 45 45 46 48 49
31 25 26 31 34 34 34 31 55 52 33 48 39 35 39 44 45 47 45 41 44 48 45 35 42 40 46 41 42 43 40 41 39 39 41 42 43 44 45 46 46 47 48 49
37 36 34 32 36 38 32 29 37 45 48 36 46 45 38 35 34 45 48 43 46 45 46 43 47 51 46 47 45 42 41 39 43 42 43 44 46 48 50 51 51 51 52 53
43 42 40 34 36 41 31 32 28 34 30 32 31 36 38 36 36 36 39 37 42 45 50 46 44 37 46 47 49 50 50 47 47 49 50 50 51 52 52 51 53 56 57 55
47 45 42 39 38 37 32 39 35 33 27 18 23 24 36 36 41 42 38 40 43 47 50 49 52 50 49 57 56 55 53 53 52 51 55 59 57 55 52 52 54 56 59 62
47 45 37 37 34 34 25 28 35 29 28 26 28 26 29 31 35 38 40 40 45 46 42 45 54 58 62 64 58 56 56 56 53 53 54 47 47 46 49 55 56 57 57 64
34 39 36 33 34 35 33 31 32 33 29 27 29 31 28 30 32 38 42 41 40 40 53 58 50 39 46 68 60 60 56 58 60 56 53 57 56 54 57 61 61 63 66 71
31 35 37 35 34 33 31 32 33 36 32 33 31 34 34 32 33 32 35 39 39 41 43 49 58 44 41 47 51 57 54 51 51 53 55 56 58 62 64 64 65 67 69 71
29 36 31 27 29 32 33 33 36 37 40 38 37 39 41 44 41 36 36 35 39 42 42 43 45 51 50 48 46 46 47 47 50 54 58 61 63 64 64 67 69 70 71 73
24 41 35 31 31 33 35 35 34 34 37 41 41 40 42 44 43 41 41 40 41 39 40 42 45 47 46 47 50 52 53 56 58 60 61 62 64 65 67 68 70 73 76 79
38 35 33 35 35 35 32 32 33 36 38 43 45 45 44 40 36 40 39 40 40 44 45 46 47 50 53 53 54 56 56 57 58 60 61 63 64 66 69 72 75 77 78 78
35 34 35 35 34 35 35 33 38 39 37 39 46 49 46 39 41 40 43 44 44 43 45 49 52 52 54 55 55 55 57 59 61 62 64 66 68 70 72 73 73 74 76 78
28 30 28 29 32 35 35 36 35 38 41 43 45 47 53 55 54 46 46 46 46 47 48 50 49 50 53 55 57 58 61 62 63 64 65 66 68 69 71 74 76 78 80 82
24 31 30 30 31 34 34 35 37 37 39 40 39 45 49 53 49 47 49 49 49 51 52 52 54 55 56 57 59 60 60 61 62 64 67 69 72 74 75 78 80 82 85 88
23 27 28 29 32 34 33 39 38 38 37 34 34 37 44 47 48 44 42 43 46 48 49 49 50 52 53 56 58 60 63 65 66 68 70 72 74 77 79 82 84 86 88 89
25 28 30 32 33 34 33 33 32 33 35 33 35 36 37 37 38 40 42 44 46 48 51 52 54 56 58 59 60 62 64 66 69 71 74 77 79 80 82 83 83 83 81 79
28 30 29 28 29 27 26 28 28 29 31 32 34 36 37 39 41 43 45 46 48 50 52 55 56 58 60 62 64 66 68 70 72 75 77 77 77 77 75 73 72 72 73 73
19 22 24 26 29 30 31 32 33 34 35 38 40 41 43 44 46 48 50 52 53 55 57 59 61 63 64 65 67 69 71 72 72 70 69 67 66 66 66 67 68 68 67 66
30 33 35 36 38 40 41 42 43 44 45 47 48 49 50 51 53 54 55 57 59 61 62 64 65 65 65 64 64 63 61 60 59 59 60 61 62 63 62 61 60 59 58 57

GFSNGP_500_spd_075.txt.gz
Wind_Speed
48 46 45 46 45 44 46 46 45 44 44 44 40 32 31 28 27 26 30 30 32 32 30 30 30 30 28 26 26 28 27 26 26 28 28 27 23 26 26 26 25 24 24 23
47 47 44 45 44 46 47 46 46 49 48 45 44 39 35 34 32 30 27 32 30 30 33 34 33 32 31 31 30 31 29 30 33 33 33 32 30 28 29 28 26 28 27 25
47 44 46 46 40 43 45 47 51 52 51 49 46 44 39 38 36 32 32 29 30 30 34 34 37 35 36 37 38 37 37 37 38 37 33 34 34 32 30 30 29 30 31 31
45 46 48 46 38 40 41 44 46 51 54 54 51 44 41 34 35 36 30 32 32 30 29 26 35 39 36 38 38 38 32 32 35 33 33 28 28 30 30 31 31 30 31 32
47 47 47 47 40 39 32 34 37 45 51 52 52 46 39 34 37 36 33 32 32 29 30 34 31 34 37 36 33 34 31 28 29 29 27 29 30 31 31 32 32 32 32 33
33 39 38 35 45 44 43 41 39 40 39 45 50 50 43 37 37 41 41 35 29 28 29 32 29 31 32 33 31 33 32 30 31 31 31 32 33 35 35 34 35 36 36 36
24 19 16 21 34 44 48 49 46 42 39 38 41 46 45 38 36 40 41 37 33 32 33 31 33 35 33 32 33 32 33 34 33 33 35 35 34 36 38 37 38 39 40 41
15 11 10 13 18 20 23 29 47 42 51 47 39 37 41 42 37 38 38 39 38 35 37 33 36 39 38 40 39 40 40 34 32 32 33 36 36 36 38 38 39 41 41 42
17 14 16 19 20 21 20 19 21 29 29 43 43 40 39 35 34 37 39 36 34 37 36 38 40 44 40 45 44 43 42 37 36 41 40 38 38 38 37 37 39 40 40 41
21 20 20 22 24 23 22 23 22 24 26 29 41 45 40 42 41 41 40 41 40 41 41 47 47 45 42 40 44 48 45 40 45 42 45 46 45 43 41 41 41 42 44 46
30 28 26 27 29 29 28 27 27 25 28 25 23 35 47 37 42 46 44 45 45 42 45 47 45 37 38 48 43 46 49 47 50 44 42 44 42 44 45 47 47 47 49 49
37 36 34 32 34 36 36 33 30 29 29 29 26 27 32 43 38 51 44 37 35 35 37 39 45 40 38 40 41 44 46 51 55 46 47 48 53 53 54 51 49 50 58 54
40 40 40 40 41 40 41 41 37 36 32 37 34 27 25 22 29 33 42 50 38 40 39 44 36 41 50 46 47 44 47 51 57 57 55 56 56 55 57 51 47 48 52 56
41 40 41 43 45 46 45 44 41 33 33 34 37 35 40 26 21 25 30 33 41 41 37 42 42 44 45 58 57 48 58 57 57 55 53 64 61 59 60 54 49 49 51 53
38 42 42 40 42 45 45 43 36 31 30 34 31 32 31 31 28 26 25 30 32 37 38 39 40 41 48 55 51 50 51 47 46 51 53 51 51 52 54 57 58 57 56 58
37 37 33 27 28 34 39 38 38 39 42 35 35 36 33 36 35 32 30 30 31 33 35 38 39 39 41 49 51 50 48 48 45 50 54 56 56 56 54 53 54 56 60 64
35 32 28 29 30 34 34 37 35 38 35 35 38 38 38 40 41 40 38 37 37 35 33 34 37 39 42 45 56 42 53 43 54 57 47 52 54 53 57 61 63 65 67 69
33 35 32 28 27 32 31 34 30 33 34 32 33 35 36 39 43 46 45 44 43 35 38 39 37 39 42 42 44 45 44 46 51 52 53 55 58 62 64 66 68 70 71 72
30 32 32 32 33 31 32 32 27 29 31 32 33 35 36 37 38 42 49 47 45 38 36 38 41 38 42 43 42 46 52 53 57 59 61 63 67 68 68 68 69 70 72 74
35 33 32 33 35 36 31 32 31 32 35 35 34 36 38 39 40 43 43 43 44 45 45 41 44 47 49 49 49 52 56 59 61 63 64 64 65 65 65 67 69 70 71 72
32 32 30 32 31 31 31 31 35 35 39 40 42 37 38 40 43 43 42 42 45 48 54 55 51 53 51 52 55 58 61 60 61 62 63 65 65 64 65 67 69 72 76 79
28 30 28 30 30 32 33 35 32 33 35 37 37 40 40 41 42 42 45 44 44 46 48 49 52 55 57 57 58 59 59 59 58 58 59 61 64 67 69 72 74 77 80 83
27 28 28 29 31 32 34 32 32 34 35 37 41 42 43 43 43 43 45 44 44 45 44 43 44 45 46 48 50 52 55 58 60 62 64 66 68 70 73 77 80 82 84 85
19 26 27 29 31 33 33 35 38 39 40 40 38 36 36 36 37 38 38 38 38 39 41 43 45 47 49 51 54 57 60 62 64 66 68 70 73 75 77 79 80 79 77 75
25 29 31 34 35 34 33 33 33 33 33 35 36 36 37 38 38 38 39 41 42 44 46 48 50 52 54 57 59 61 63 65 67 69 71 72 73 72 70 68 66 67 68 69
22 25 27 29 31 32 33 33 35 36 37 38 40 43 44 45 47 48 49 50 51 51 52 54 56 57 59 61 63 64 65 65 64 63 61 60 59 60 61 62 63 63 62 61
32 34 36 37 39 40 40 41 43 44 45 47 48 50 51 52 53 54 55 56 57 58 59 59 60 60 59 58 57 56 54 51 51 51 53 55 56 57 57 56 55 55 55 55

GFSNGP_500_spd_078.txt.gz
Wind_Speed
38 36 34 33 32 33 35 36 38 36 38 38 36 30 28 29 30 30 29 32 33 32 32 33 34 30 31 31 30 30 28 24 22 25 25 25 28 29 29 28 26 30 29 27
39 40 41 41 40 40 39 39 40 40 41 43 42 41 35 30 30 35 33 32 35 34 34 36 35 35 38 38 36 33 29 27 27 27 28 28 31 36 37 35 33 31 31 31
37 37 38 42 41 40 40 40 40 43 49 49 46 43 40 35 33 34 36 34 34 37 36 35 35 35 36 38 41 40 37 35 33 34 37 39 40 38 37 37 37 34 33 34
40 38 41 40 39 35 38 36 39 42 46 47 48 47 45 41 40 35 36 41 38 36 38 37 36 36 41 42 43 44 44 41 38 39 40 39 38 33 34 34 33 34 33 33
41 41 39 41 39 37 39 38 39 39 42 45 47 49 49 46 40 37 37 38 38 33 34 38 37 36 42 47 46 46 50 45 43 41 35 34 32 31 31 31 32 31 33 36
36 35 34 35 35 37 36 37 42 41 40 43 42 41 44 44 42 39 35 38 40 37 34 37 39 38 39 39 44 48 49 50 46 43 39 33 30 32 33 34 35 36 37 38
26 25 23 27 27 28 33 37 43 42 46 44 43 44 43 41 43 36 39 40 40 38 41 40 38 36 36 37 41 45 44 44 44 42 40 35 32 31 34 36 39 42 43 43
24 23 23 21 22 23 23 23 28 35 39 46 46 47 48 45 40 37 33 40 39 40 38 42 40 38 37 35 38 41 43 45 45 47 48 50 41 35 32 35 38 39 41 43
20 19 18 18 16 11 11 12 13 16 20 22 25 34 44 48 46 44 38 35 41 40 40 43 46 42 42 41 42 45 44 47 50 56 49 53 52 42 41 42 40 44 44 44
22 22 21 20 20 18 15 14 15 15 16 19 21 24 28 35 42 45 41 38 38 42 41 43 40 42 43 41 43 43 52 49 49 56 54 57 57 56 47 47 49 45 46 45
24 22 21 24 23 23 23 23 23 25 24 23 22 24 27 26 27 36 42 39 41 40 41 43 44 43 42 45 48 51 50 51 51 54 59 57 58 62 64 50 48 48 49 49
27 27 28 30 30 30 31 31 31 31 31 30 29 27 27 28 30 34 37 45 39 46 44 47 49 51 50 50 51 50 47 46 46 55 58 57 51 65 59 57 56 52 54 53
29 30 32 33 34 35 37 38 37 37 37 37 36 35 33 36 38 30 26 38 42 49 44 47 43 44 42 44 53 46 45 49 46 49 53 52 53 62 59 54 57 60 61 60
31 33 34 36 37 38 39 40 40 42 44 44 44 44 42 39 42 44 42 32 35 42 38 48 50 46 46 48 44 44 49 52 46 63 65 63 64 62 56 55 60 59 60 55
32 34 35 36 39 40 43 45 47 48 49 49 48 44 39 42 41 42 40 43 36 35 38 42 46 47 51 45 49 52 42 52 55 53 47 49 53 51 54 56 58 58 56 54
33 35 37 39 40 41 40 40 37 39 41 42 43 42 40 30 35 39 37 37 37 36 38 37 36 37 42 43 47 48 50 50 43 46 49 48 47 50 50 45 46 50 49 51
35 38 41 39 38 33 33 39 37 34 38 38 39 42 46 35 43 40 39 40 42 41 40 42 39 37 38 39 41 42 47 52 53 56 47 47 53 48 54 57 57 55 58 61
33 34 34 36 36 37 35 33 32 28 30 32 35 36 42 42 34 33 34 37 37 39 40 42 44 42 41 41 42 43 44 49 49 44 42 52 56 58 55 55 60 65 66 68
37 37 38 37 35 35 34 35 32 27 25 25 30 31 35 34 30 31 34 36 36 38 40 40 39 42 44 46 48 46 43 44 45 49 50 55 57 60 60 65 69 71 72 73
38 40 38 38 37 35 36 38 38 36 33 31 32 36 37 33 34 36 36 39 40 39 39 40 42 42 39 47 47 49 50 46 52 56 61 63 65 68 68 70 71 71 71 72
29 30 31 35 39 37 36 37 37 33 33 32 33 35 37 38 40 43 45 43 42 43 44 44 44 46 49 50 50 51 54 58 58 60 63 65 66 68 70 70 69 68 68 69
30 32 32 31 32 35 35 35 36 35 36 37 37 36 38 40 41 41 43 44 47 49 47 49 51 54 56 57 59 59 58 59 60 61 62 63 64 63 62 63 66 69 71 74
31 32 30 31 29 31 34 34 36 37 38 40 40 40 40 42 44 45 47 49 50 51 51 52 52 53 53 53 52 52 52 52 53 54 56 58 60 62 65 67 70 74 77 79
36 32 28 26 23 28 34 38 37 40 42 42 43 44 44 44 44 44 44 43 43 43 43 44 44 46 47 48 49 51 53 54 56 58 61 63 66 68 71 73 76 78 78 77
22 23 24 25 27 30 33 36 38 38 39 39 39 40 40 40 41 41 41 42 43 44 46 48 50 51 53 55 57 59 60 62 63 66 68 69 71 71 70 69 67 66 66 66
27 27 27 28 29 31 33 35 37 38 39 41 41 42 43 43 44 45 47 48 50 52 54 56 57 59 60 62 64 65 65 65 65 64 63 61 59 56 55 55 54 55 55 56
35 37 38 39 40 40 41 42 44 44 45 46 47 48 49 50 52 53 54 55 57 58 60 60 61 61 62 61 60 58 56 53 49 47 45 45 45 45 46 47 48 49 50 50

GFSNGP_500_spd_081.txt.gz
Wind_Speed
23 24 20 25 21 23 23 24 26 24 25 28 31 28 25 25 23 24 26 32 30 31 31 31 29 29 27 26 26 30 31 30 29 29 29 26 24 24 26 28 29 32 32 31
30 30 29 25 25 26 27 26 28 29 30 30 33 36 27 25 25 26 28 32 37 36 37 37 36 35 35 34 34 36 35 34 34 33 31 29 29 30 30 31 33 39 40 37
34 32 31 34 31 32 30 32 32 31 30 38 40 39 38 34 31 32 34 35 33 35 40 42 40 40 41 38 39 38 37 36 35 34 33 32 35 36 38 39 42 42 40 41
34 34 36 31 31 32 30 29 26 26 33 42 41 40 40 42 36 34 33 32 34 38 37 41 43 43 42 41 40 39 40 39 38 36 37 37 38 38 39 41 41 40 39 40
41 38 35 31 34 34 31 25 37 36 36 41 42 35 35 41 42 37 34 34 36 39 36 36 40 44 47 46 44 41 42 45 43 40 41 43 44 43 42 42 37 33 36 37
38 37 37 31 35 37 31 28 40 41 45 47 44 40 32 37 41 38 34 29 31 36 38 37 40 37 41 47 48 48 45 48 50 46 47 49 46 46 40 41 39 38 37 36
29 30 30 32 29 23 25 30 36 40 41 44 44 46 44 41 41 41 39 33 28 29 37 37 42 43 39 46 51 53 52 52 54 50 49 51 54 45 41 41 39 38 42 41
26 28 29 26 23 23 26 27 30 32 33 36 40 44 47 47 45 44 41 40 39 30 35 39 41 45 44 46 46 49 53 52 48 50 55 51 49 48 47 49 45 52 46 42
19 19 23 22 24 23 19 20 22 23 24 22 23 27 31 36 42 44 48 47 45 42 37 40 43 47 44 45 47 48 46 48 49 51 53 55 58 50 54 56 53 55 61 50
16 18 17 23 16 21 20 18 17 17 16 15 16 18 20 24 27 29 31 38 43 46 46 42 43 48 49 46 49 50 49 54 52 50 53 56 55 58 63 57 66 65 65 63
25 21 25 31 28 24 24 21 20 20 20 20 21 22 23 23 24 27 31 33 31 37 45 45 44 49 51 49 48 52 53 52 50 53 56 59 57 62 62 62 68 69 68 64
28 26 28 26 26 22 25 23 24 25 26 28 29 29 29 29 29 29 29 34 37 35 34 46 45 48 47 48 50 49 47 47 50 52 58 59 63 61 66 65 62 66 66 72
26 28 28 28 29 28 30 32 32 33 33 34 36 36 35 35 35 36 38 36 41 43 36 32 44 45 51 53 57 51 50 52 54 56 62 66 65 61 59 58 60 67 67 65
26 28 29 29 30 33 34 35 37 38 39 40 41 42 42 43 43 44 45 44 41 46 47 45 43 43 51 56 50 46 52 51 50 53 51 63 58 60 66 64 66 74 76 74
26 29 30 31 32 33 36 38 40 41 42 44 46 47 49 51 51 52 50 49 47 47 49 42 42 44 47 51 53 53 67 59 60 53 41 33 37 44 45 49 55 53 53 54
30 32 33 34 35 36 38 40 43 45 47 47 47 47 47 48 48 49 50 42 40 41 45 42 38 40 41 40 43 51 52 59 62 55 50 41 44 42 40 44 46 47 48 49
29 33 35 37 38 38 40 42 44 44 41 39 42 42 39 40 45 45 40 48 41 39 40 40 39 38 38 35 37 42 41 45 44 43 40 34 41 39 46 42 44 50 50 49
31 34 36 38 41 42 40 38 37 38 40 39 38 38 39 41 37 36 42 42 49 42 37 35 34 34 36 37 37 37 39 43 43 45 46 49 51 51 48 48 51 51 56 55
35 40 41 41 41 41 41 42 43 41 38 39 41 39 34 32 34 43 41 40 44 43 37 36 36 36 37 38 39 40 41 42 43 47 50 48 50 55 53 51 52 55 59 63
38 38 39 39 40 41 44 47 45 41 37 37 41 39 41 40 37 33 32 34 35 38 37 37 37 38 39 41 41 42 43 44 46 49 54 56 53 54 58 63 64 64 67 70
37 38 37 37 37 34 34 35 37 44 45 43 39 41 40 40 38 36 36 38 40 41 42 43 44 43 43 44 45 46 47 51 52 56 60 63 65 65 65 66 68 70 70 71
34 34 35 38 40 41 40 36 35 34 37 39 40 39 40 41 41 40 40 40 43 44 45 46 45 45 47 48 50 51 53 54 55 57 57 59 61 63 62 62 62 63 64 65
40 40 42 41 43 40 40 39 33 32 34 37 38 39 42 42 43 44 44 44 45 45 46 47 47 47 48 49 50 51 50 50 50 50 51 52 54 57 59 61 63 65 68 72
24 27 32 36 37 34 32 29 30 30 31 32 37 39 40 40 40 41 41 41 41 42 42 43 44 46 47 48 49 50 51 52 53 55 57 59 61 63 66 68 71 74 75 76
30 29 28 27 27 27 28 29 30 31 31 33 34 35 35 36 38 38 40 41 42 43 44 45 47 48 50 52 53 55 57 59 61 63 65 67 69 71 72 72 71 68 66 62
36 36 37 37 36 35 35 35 35 36 37 38 38 39 40 41 42 43 44 45 46 47 49 50 52 54 57 59 62 63 65 66 66 66 66 66 65 62 59 55 52 50 50 49
38 39 40 42 42 43 43 43 43 42 43 43 43 43 44 45 46 47 48 50 52 54 55 57 58 59 59 60 60 60 60 58 56 53 50 47 45 43 43 44 45 45 47 49

GFSNGP_500_spd_087.txt.gz
Wind_Speed
17 21 18 9 14 23 24 23 33 32 29 30 42 39 36 46 40 37 33 35 31 29 30 28 25 28 29 29 29 30 30 27 28 30 30 27 25 25 24 22 22 22 22 20
24 21 24 15 8 25 28 23 23 30 27 23 24 16 33 43 42 42 34 32 29 33 35 28 31 31 27 28 29 31 31 30 29 29 27 26 26 27 28 27 26 25 26 26
24 24 24 19 19 25 21 25 31 22 21 18 17 24 27 33 36 39 35 35 34 34 33 32 32 33 30 32 31 31 30 31 33 34 34 33 33 32 31 32 31 28 31 30
26 26 26 18 20 19 18 13 16 19 24 20 22 26 31 26 25 26 26 29 34 33 29 28 27 29 31 31 34 33 33 38 39 41 41 39 38 35 35 35 33 34 35 37
35 32 29 21 23 23 20 20 17 17 17 23 20 22 26 23 26 29 30 32 33 32 30 31 31 33 32 35 31 32 33 34 37 40 42 43 40 38 38 40 39 36 37 38
37 40 37 23 25 21 20 28 25 21 19 23 25 28 30 32 30 23 27 28 30 31 35 39 38 38 41 39 41 41 41 41 40 40 41 43 46 46 45 47 45 43 43 42
33 38 40 34 35 29 29 33 35 31 29 28 26 33 32 32 32 37 39 32 34 34 30 33 34 37 40 44 45 47 48 49 48 45 44 46 46 49 52 50 52 50 49 47
29 34 36 34 39 41 42 42 35 29 33 36 39 38 41 40 43 48 48 42 39 42 44 45 44 40 38 40 44 48 50 53 55 53 52 49 49 48 51 55 55 55 52 54
17 20 20 19 21 22 27 28 28 30 29 26 30 36 41 44 44 45 43 38 35 36 40 38 39 41 42 43 42 45 50 54 56 57 58 58 53 54 53 53 59 61 58 59
11 14 15 18 17 23 27 24 28 26 31 31 31 33 34 36 35 34 31 26 24 26 28 30 31 32 34 38 43 48 50 53 55 58 60 62 62 62 62 63 63 58 60 58
16 17 16 18 19 20 24 26 32 33 35 35 30 30 27 27 26 25 24 24 25 26 28 29 29 31 33 34 36 37 41 48 54 57 61 61 60 63 63 61 65 61 65 63
20 25 21 28 23 30 26 20 24 28 28 30 30 28 26 27 27 27 28 29 30 31 31 32 32 33 34 35 36 36 38 40 44 44 50 63 64 60 58 65 65 62 63 65
21 26 21 24 28 26 29 30 27 28 27 29 30 30 30 31 32 33 34 35 36 37 37 38 39 39 40 41 42 43 45 45 45 46 47 46 55 65 65 53 56 63 64 63
28 30 30 26 35 40 35 30 29 31 32 34 36 35 35 37 39 40 41 42 42 43 43 43 44 45 47 49 50 50 51 51 51 52 50 48 51 51 59 79 45 63 50 50
28 30 33 34 35 37 38 40 39 38 37 38 39 40 41 41 42 44 45 45 46 47 48 49 50 52 54 56 56 57 57 57 56 55 54 50 45 49 53 47 49 50 47 47
21 26 30 33 34 36 37 40 40 40 40 41 42 43 44 44 45 46 48 49 51 54 56 57 59 61 62 61 60 57 56 55 54 49 46 45 44 44 43 41 36 38 43 46
32 32 32 34 34 34 36 39 39 40 40 41 42 42 42 43 45 48 49 52 54 55 56 57 56 57 56 55 53 52 52 45 44 42 41 41 41 41 41 40 37 37 39 42
28 30 34 36 36 36 37 38 39 40 41 42 43 45 46 47 47 48 49 49 50 49 49 50 49 46 44 48 48 42 45 44 48 50 47 44 43 44 44 44 44 42 43 45
31 31 32 33 33 34 35 36 38 41 42 44 45 45 44 44 44 45 44 46 49 50 47 45 45 46 42 38 38 45 45 44 46 48 46 46 49 47 46 46 47 46 46 46
30 33 34 34 34 35 38 41 43 44 45 45 45 45 45 44 41 40 43 43 45 45 45 44 44 43 41 39 34 31 35 37 38 39 42 44 45 46 47 48 48 48 48 49
29 34 38 39 40 41 44 44 45 43 43 43 44 43 44 43 45 46 47 47 47 45 44 44 45 42 43 42 41 38 37 37 38 40 41 42 43 44 45 46 48 49 49 49
36 38 40 41 42 42 41 42 44 46 45 45 47 49 50 48 49 50 50 49 45 42 39 39 39 40 41 42 41 40 41 40 40 40 41 41 43 44 45 46 47 48 50 51
37 38 39 41 41 41 40 38 37 41 43 41 38 36 37 40 42 42 42 42 42 41 41 42 41 39 40 40 39 38 40 41 42 43 44 44 45 47 48 50 51 53 55 56
32 34 37 40 42 43 43 43 44 44 44 43 42 41 40 39 38 37 38 38 39 39 39 38 37 37 37 38 39 40 41 44 46 46 48 50 51 52 53 55 57 59 61 62
38 40 43 44 46 47 47 47 48 48 47 47 45 45 44 43 42 40 39 38 38 39 39 39 40 40 41 42 42 43 46 48 50 52 53 54 55 57 59 60 60 60 60 58
44 47 48 50 52 53 53 53 52 51 50 49 48 47 45 45 44 43 43 43 43 44 44 45 45 46 46 47 48 50 52 53 54 55 54 54 54 53 52 51 49 48 47 46
49 49 47 47 47 47 47 46 46 45 44 44 43 44 44 44 45 46 47 47 48 48 49 49 50 51 51 51 49 49 49 48 47 45 44 42 40 40 39 40 40 41 43 44

GFSNGP_500_spd_090.txt.gz
Wind_Speed
18 16 18 20 16 19 20 34 43 32 33 36 34 22 38 47 47 43 41 42 38 33 30 24 24 31 35 34 34 34 35 33 29 30 30 31 30 29 28 26 25 24 22 22
20 19 24 20 12 16 27 22 28 29 32 29 26 38 35 37 47 41 39 39 37 32 33 27 28 27 29 24 29 33 28 28 33 34 34 33 34 33 31 30 30 30 28 27
20 22 25 23 19 11 9 25 25 26 24 42 32 25 25 34 42 41 44 42 38 36 37 32 29 29 30 34 31 28 28 31 32 33 34 35 36 35 32 33 35 34 34 34
22 27 30 20 17 12 4 14 28 23 28 25 21 25 28 30 30 39 45 41 41 44 35 31 31 34 38 38 36 37 36 37 37 39 37 37 36 37 37 38 39 39 39 37
25 28 29 20 15 16 18 18 13 14 15 23 22 16 25 30 21 20 25 29 31 25 27 32 35 36 37 40 37 37 38 39 41 41 37 41 44 42 41 42 41 42 41 42
29 32 32 25 27 21 22 20 16 16 22 19 24 20 19 20 29 23 27 27 29 31 30 32 35 34 37 38 40 35 33 40 39 41 41 40 40 40 43 46 47 47 49 46
29 34 35 30 34 27 27 23 17 22 18 14 18 24 23 23 26 28 28 30 30 30 30 32 39 43 44 47 48 48 47 46 45 44 46 46 46 48 49 48 47 48 50 54
20 32 36 29 34 34 33 33 24 25 27 28 30 32 30 31 26 30 32 30 31 36 39 39 40 42 44 46 47 47 47 49 50 50 50 50 51 51 52 53 55 55 56 56
18 22 26 23 29 31 35 36 35 34 36 36 33 34 36 37 37 43 40 41 41 45 46 48 45 44 47 48 49 51 55 56 55 56 55 55 57 58 60 60 54 59 61 60
9 9 14 16 18 19 26 27 31 33 33 28 31 35 35 37 41 44 45 48 51 54 54 48 44 44 45 47 47 44 44 46 49 52 56 59 61 61 62 65 67 67 67 67
12 12 15 21 22 24 24 28 29 20 30 33 33 31 34 36 36 38 41 44 43 42 42 40 39 38 35 34 35 35 36 38 40 42 44 47 49 51 57 62 66 70 72 71
11 19 17 19 20 22 23 29 25 34 32 34 37 38 37 37 36 36 38 37 36 35 34 33 33 34 36 37 38 39 40 41 41 43 44 44 47 49 50 55 58 60 58 62
21 12 26 31 29 31 37 32 22 31 34 29 32 29 30 32 33 33 35 36 36 37 37 38 39 39 40 41 42 44 45 46 46 47 48 49 50 51 51 52 53 55 59 60
12 19 26 20 19 24 29 29 29 29 29 29 30 31 31 33 35 37 39 39 40 41 41 43 44 45 46 48 49 50 50 52 53 54 56 56 57 58 59 59 59 59 59 58
18 14 22 28 26 27 29 29 32 35 37 37 37 36 36 37 39 41 43 43 44 46 47 48 49 50 50 51 52 54 55 57 59 61 63 64 64 64 64 65 64 62 60 55
24 23 24 26 26 28 32 34 36 37 37 38 40 41 42 44 44 44 46 47 48 49 50 51 52 53 55 57 60 62 64 66 67 68 67 66 65 64 63 59 54 51 50 50
33 33 32 32 32 32 33 36 39 39 40 41 41 44 46 47 47 48 48 49 50 52 53 55 56 59 60 61 61 59 58 59 59 58 58 58 55 53 48 46 46 46 48 50
33 34 37 41 43 44 44 43 42 40 41 42 43 43 43 44 46 47 49 50 52 53 53 53 53 54 55 53 51 50 48 49 51 49 48 48 42 43 48 49 47 46 47 48
35 36 36 37 37 38 37 36 36 36 37 38 39 41 44 47 49 50 51 51 51 51 49 48 47 47 46 46 48 48 46 47 47 43 40 41 44 44 46 48 48 47 48 49
28 30 30 30 33 35 36 37 40 42 44 45 46 48 49 49 47 47 47 48 49 48 48 49 49 49 49 48 47 48 47 46 45 45 44 39 36 36 40 42 43 44 47 47
27 28 31 34 36 39 42 44 47 48 49 49 50 50 48 46 49 51 52 52 52 51 50 51 51 50 51 49 46 46 46 47 46 45 44 43 42 42 42 42 43 45 47 48
33 35 38 40 42 43 44 44 44 45 45 45 46 46 45 44 44 45 43 43 47 50 50 50 50 48 46 45 44 44 45 46 46 47 45 44 44 44 44 44 45 46 48 49
36 37 38 40 40 41 42 43 44 45 46 46 46 48 50 51 51 50 48 47 46 44 43 43 43 44 45 46 46 46 46 46 46 45 44 43 45 46 46 46 48 49 50 53
36 39 41 43 45 46 47 48 49 49 50 51 51 51 51 51 50 50 49 48 48 47 45 43 43 43 43 43 43 43 43 43 45 46 46 47 48 50 50 50 52 54 56 58
42 45 47 49 51 52 54 54 55 55 54 53 52 52 50 50 50 49 48 47 46 45 45 44 44 43 43 43 43 44 44 45 46 47 49 50 52 54 55 56 57 57 57 58
46 48 48 48 48 49 50 51 51 52 52 51 50 49 47 45 45 44 45 45 45 45 46 46 46 46 46 47 47 48 49 50 52 53 55 55 54 53 52 51 49 47 45 45
45 47 48 49 50 50 49 48 47 46 46 47 46 44 43 42 42 41 41 42 43 44 46 48 49 50 50 51 52 52 51 51 49 48 47 44 42 40 37 37 37 39 40 41

GFSNGP_500_spd_093.txt.gz
Wind_Speed
21 21 22 20 19 17 19 20 32 33 29 28 31 21 21 29 40 39 33 41 42 37 39 37 34 35 35 36 34 35 34 32 30 31 33 34 32 31 32 31 29 28 27 26
21 21 21 24 19 16 15 25 28 32 31 27 23 33 32 15 40 48 44 36 36 37 38 35 33 33 28 27 30 43 44 36 36 34 32 33 35 35 34 36 36 35 33 32
22 23 22 22 25 19 11 12 21 20 26 37 32 26 16 23 31 38 47 47 43 45 41 37 34 31 28 28 30 27 27 28 35 36 37 34 36 37 37 37 37 36 37 37
24 23 24 21 23 16 11 3 10 17 18 19 17 25 25 20 27 34 33 46 41 45 43 38 38 34 34 35 34 31 31 33 34 33 36 39 39 39 39 39 37 35 37 35
25 24 25 19 27 22 20 10 9 9 17 18 20 22 15 18 18 20 29 35 43 40 40 43 42 39 39 39 38 38 38 37 39 42 44 44 44 41 42 46 43 42 43 43
27 27 28 22 28 22 20 20 13 13 18 16 20 25 24 19 14 15 19 19 23 32 45 49 50 40 35 38 41 38 37 39 45 47 46 47 47 46 44 43 42 43 48 50
30 32 30 26 28 28 27 22 17 18 16 19 10 19 22 23 22 21 17 27 29 29 33 34 31 29 28 31 34 37 39 40 40 40 44 47 49 48 47 47 51 51 51 49
26 33 38 27 32 33 35 30 20 20 22 24 24 24 21 21 21 27 22 23 27 30 31 34 36 33 32 34 36 39 44 44 45 46 47 49 51 53 53 54 55 53 54 57
19 16 18 24 33 33 36 38 31 27 25 26 27 27 28 30 30 30 31 31 31 33 33 33 36 39 41 42 42 42 42 46 48 50 50 50 51 55 59 58 58 59 60 60
17 13 13 17 25 30 30 32 31 29 37 36 32 31 34 37 36 33 35 35 38 39 40 40 41 42 45 46 49 51 47 48 48 52 55 58 59 56 56 57 59 61 62 64
17 13 9 11 18 18 17 19 27 31 24 28 33 36 29 27 33 34 34 35 35 36 38 42 42 46 46 47 46 43 43 44 46 47 46 48 46 47 47 48 48 49 50 51
17 22 14 10 14 18 24 20 24 33 30 26 27 33 39 38 35 33 35 37 38 37 37 38 40 41 41 40 40 40 41 42 43 44 45 47 47 47 48 50 51 52 53 54
14 18 14 26 23 20 22 22 23 24 29 28 34 37 32 33 33 33 33 33 34 36 37 38 39 40 41 41 42 43 44 46 47 48 49 50 52 53 53 53 57 59 60 60
7 12 15 19 16 24 23 27 32 30 25 29 31 30 32 29 28 30 30 31 34 37 39 40 41 42 44 46 48 49 50 50 51 52 53 54 56 57 58 59 61 63 64 66
12 13 15 16 17 19 24 26 25 27 27 31 29 31 30 31 32 33 35 36 38 40 42 44 47 49 50 51 52 52 53 54 55 56 57 58 60 62 65 67 69 71 73 75
23 24 25 25 25 23 22 23 25 27 28 30 33 34 36 37 38 41 43 44 45 47 49 50 51 53 54 55 56 57 57 58 60 63 65 68 70 71 73 73 75 74 73 72
24 27 30 32 32 32 33 33 33 33 34 34 35 36 38 41 42 43 45 46 48 50 51 52 54 56 57 59 60 62 63 65 66 66 67 66 63 59 56 56 55 56 54 54
35 35 34 36 38 39 38 39 41 42 43 42 41 41 41 42 44 45 45 46 47 50 52 54 56 57 59 60 61 61 61 60 60 57 54 53 52 49 48 49 48 48 47 45
34 35 38 40 41 42 44 45 45 46 46 45 45 46 46 46 47 46 48 50 52 53 55 56 57 57 58 57 57 55 54 53 53 53 53 51 51 49 48 47 46 45 44 46
28 31 33 35 37 39 40 42 44 45 47 47 47 47 48 49 51 53 55 55 56 56 55 54 53 53 53 53 53 54 55 56 57 56 55 53 51 51 51 49 49 48 45 44
29 31 33 36 37 38 40 42 44 45 47 50 52 53 55 56 55 55 55 55 54 53 52 53 50 49 52 55 58 59 58 58 57 55 50 48 47 48 48 49 49 50 50 49
32 34 36 38 40 42 43 45 46 47 48 48 49 49 50 50 50 50 50 50 50 51 52 53 52 51 51 51 50 50 52 53 51 48 47 47 48 48 49 50 51 52 52 51
32 34 36 39 41 43 46 47 49 51 52 53 53 54 55 55 55 55 55 55 56 56 56 56 55 53 52 52 51 50 49 48 47 48 49 49 50 50 50 50 50 51 52 53
34 38 43 46 49 50 52 54 55 55 55 55 55 55 55 55 56 56 56 56 56 56 56 56 55 54 53 51 49 48 47 46 46 46 47 47 47 48 49 50 51 51 52 53
40 42 46 49 50 50 50 51 52 52 53 54 54 54 54 53 52 51 50 50 50 51 52 52 51 51 50 49 48 47 47 47 47 47 47 48 48 49 50 51 53 56 57 57
44 48 49 50 51 51 51 52 52 51 50 49 48 47 47 46 46 46 46 45 45 45 46 46 47 48 48 49 49 50 50 50 50 50 50 51 53 54 55 54 52 50 47 45
47 48 50 50 51 51 48 44 41 39 38 37 36 35 35 35 35 35 36 37 38 39 40 41 43 43 44 46 47 47 48 49 48 47 46 45 44 43 42 40 38 37 36 36

GFSNGP_500_spd_096.txt.gz
Wind_Speed
26 26 26 23 22 21 20 20 22 22 32 30 24 26 29 18 18 27 23 41 47 41 44 40 40 38 36 34 33 34 33 31 31 29 28 28 29 29 28 27 29 29 28 28
19 25 27 22 24 23 16 16 25 19 18 28 31 28 23 27 12 22 27 29 35 43 48 44 43 38 38 34 33 32 31 33 33 31 31 33 34 32 32 33 33 33 32 32
24 24 23 21 19 20 20 15 22 19 19 20 31 27 21 14 12 16 40 34 35 43 45 47 42 40 37 38 35 30 27 22 24 25 31 40 38 38 37 38 37 36 37 37
27 25 23 20 19 18 17 17 15 11 11 11 19 25 24 14 17 21 29 34 40 47 53 49 42 45 45 37 32 31 30 29 28 27 28 28 33 37 40 39 38 38 40 40
25 23 23 20 19 16 17 17 11 7 5 9 11 14 15 16 16 22 25 33 28 34 48 54 54 49 43 40 37 36 36 36 36 30 30 32 33 35 37 39 41 43 45 43
24 23 24 17 20 21 18 19 23 14 13 13 12 17 26 26 20 16 18 18 26 29 25 39 45 53 51 42 37 40 42 40 39 37 37 38 39 42 44 46 48 49 50 49
24 25 24 21 22 24 21 20 21 23 17 17 17 14 18 18 22 22 17 13 19 21 25 20 23 32 44 43 43 47 48 46 43 37 39 43 46 47 49 49 49 49 50 51
19 21 21 23 24 28 26 25 25 25 25 25 24 20 17 9 17 19 21 20 21 19 20 25 26 28 30 30 36 42 39 33 34 34 37 38 41 43 47 49 50 51 52 51
16 17 18 16 21 28 30 29 30 31 27 23 22 17 14 20 27 27 22 21 26 24 25 27 27 28 29 34 34 34 34 34 37 39 38 39 41 44 46 46 46 48 49 53
10 11 16 16 18 26 28 28 31 33 36 33 29 23 30 25 26 23 27 29 32 33 32 31 32 32 35 35 36 38 40 39 39 42 44 42 40 40 42 43 45 46 46 46
16 16 14 13 15 19 19 20 26 30 31 28 25 27 22 21 28 30 32 26 28 33 36 34 32 32 35 35 38 40 42 43 43 39 37 39 38 38 39 39 41 43 44 46
12 10 19 18 13 12 12 15 16 18 19 30 32 27 29 29 30 33 31 32 36 35 33 33 34 34 33 34 34 35 35 38 39 40 41 41 43 43 43 43 45 47 48 49
11 8 13 13 22 21 18 19 20 19 19 21 29 35 31 27 35 34 32 38 38 37 34 31 31 30 30 31 33 35 36 37 39 41 43 45 47 49 51 51 51 51 53 55
13 11 13 11 13 12 19 21 19 16 21 24 23 24 28 34 36 36 37 36 33 31 29 28 29 31 33 35 37 39 40 43 45 47 49 52 53 55 55 55 56 56 57 58
13 17 16 15 13 12 13 15 16 18 22 22 33 35 36 28 27 32 34 33 33 35 36 36 37 38 39 41 42 45 47 49 50 53 56 57 58 58 59 60 61 63 65 68
14 18 20 23 24 24 25 25 24 24 24 25 25 27 29 31 32 33 35 36 39 40 40 42 44 48 48 49 49 50 51 53 54 55 57 59 60 62 64 66 68 70 72 74
19 19 22 24 26 28 30 32 33 33 33 34 35 36 37 38 38 39 41 43 45 45 44 45 48 49 50 52 53 54 55 57 59 59 60 61 63 64 66 67 68 67 66 63
25 28 31 32 32 33 36 37 36 37 38 39 41 43 43 43 44 45 46 46 46 47 48 48 49 49 50 52 54 56 57 58 60 62 63 63 63 63 62 60 58 56 56 55
30 30 32 33 34 34 35 37 38 40 41 41 42 43 44 45 46 47 48 49 50 50 51 50 51 53 55 56 57 58 59 59 59 58 58 56 55 54 56 57 58 59 59 58
27 30 33 34 35 36 37 38 40 41 42 44 45 46 47 48 49 50 51 52 54 55 56 57 58 59 60 61 60 59 57 56 57 59 60 60 59 60 59 59 60 60 57 55
27 28 30 33 35 37 39 40 42 44 46 48 50 52 54 55 56 56 57 57 57 57 56 56 55 55 54 54 55 55 55 53 53 53 54 54 54 56 58 59 58 56 53 52
30 32 34 36 37 39 41 43 44 46 48 49 51 52 53 54 55 56 56 56 56 56 56 56 56 56 55 55 55 56 56 56 56 57 57 56 55 54 53 52 52 52 52 52
32 34 37 39 41 43 46 48 51 53 55 56 58 58 58 58 58 58 59 59 59 59 59 59 58 58 58 58 58 58 57 56 55 55 55 54 53 52 51 51 50 51 51 52
37 40 43 45 47 50 52 54 56 56 57 57 57 57 57 57 57 56 56 55 55 55 56 57 58 59 59 60 60 59 58 58 57 56 54 53 52 51 50 50 50 50 50 51
39 42 45 48 51 53 54 55 55 54 54 53 53 53 53 52 52 52 51 51 51 52 52 52 52 53 52 52 52 52 52 52 51 51 50 50 51 50 51 51 52 52 52 53
41 45 49 51 51 51 50 52 53 53 50 46 43 40 39 39 39 39 40 41 41 42 42 43 44 45 46 47 47 48 49 49 49 49 50 51 52 53 54 54 55 55 54 51
46 50 50 49 51 52 53 49 44 40 37 35 33 32 31 31 31 30 30 30 30 31 31 33 34 35 37 38 40 41 42 43 44 44 44 44 44 43 42 42 41 40 39 38

GFSNGP_500_spd_099.txt.gz
Wind_Speed
26 25 25 23 24 24 21 20 18 19 16 16 17 21 17 17 10 5 18 22 38 39 41 45 43 40 38 41 40 36 33 35 30 29 30 29 29 27 26 26 26 26 26 27
19 25 27 23 24 23 20 20 18 19 14 15 16 17 25 26 21 20 8 21 31 40 41 43 38 39 39 42 42 41 37 35 29 35 34 35 32 30 28 27 29 28 28 29
22 24 24 21 20 21 19 17 22 20 17 16 17 18 19 25 16 14 17 24 22 43 48 46 49 47 46 43 42 40 36 34 27 30 30 30 29 31 32 30 29 30 31 32
20 21 22 20 17 17 13 14 15 14 12 10 8 8 12 19 16 17 18 21 33 26 34 45 44 46 47 47 47 43 39 36 29 24 21 24 25 25 27 31 33 31 31 33
14 17 17 18 15 14 11 13 13 11 9 9 7 12 13 14 17 21 21 23 25 32 41 36 39 42 46 52 38 41 38 29 26 29 28 29 28 27 28 29 31 31 31 34
15 13 12 14 17 16 14 13 15 14 15 18 9 9 9 21 22 30 24 18 21 23 25 38 50 49 55 52 50 49 34 30 34 33 33 33 33 35 33 33 35 36 38 40
21 19 17 14 16 17 16 16 16 16 17 22 17 9 11 9 18 15 14 22 24 17 21 26 26 42 63 56 55 56 42 41 42 40 39 38 37 39 40 40 42 43 43 43
16 17 16 18 20 21 21 19 18 19 20 22 25 17 12 11 10 14 13 13 16 22 17 18 21 26 28 30 38 47 48 51 47 42 43 39 35 34 34 38 41 44 48 49
11 14 13 15 17 20 21 22 22 24 23 26 24 23 20 18 19 13 12 21 17 20 20 16 18 21 23 26 32 35 27 27 28 34 45 49 43 40 39 39 40 43 48 48
13 14 9 11 12 16 20 22 24 25 27 31 30 27 17 19 24 24 19 12 15 21 23 24 24 23 24 27 29 30 31 31 32 35 36 36 38 38 41 43 44 45 43 43
13 14 13 12 15 13 15 16 18 21 25 32 32 36 37 28 31 25 20 24 25 25 25 25 27 27 30 31 32 34 35 36 37 37 39 41 40 41 40 39 39 39 39 41
15 12 13 13 14 12 11 10 10 13 14 21 28 27 26 29 27 29 31 30 28 27 28 29 31 28 27 30 32 34 35 32 32 31 33 35 35 36 36 37 38 39 40 42
17 10 12 12 15 19 20 20 22 14 14 14 19 21 23 25 32 30 32 33 31 32 30 32 34 32 31 30 30 31 32 31 31 31 32 33 35 36 38 41 43 45 46 47
14 17 14 13 12 13 15 14 18 23 18 17 18 22 24 25 23 23 32 33 34 35 35 34 33 34 34 31 29 30 31 32 33 35 36 37 38 40 43 45 47 50 51 53
14 16 17 14 14 13 10 13 15 15 19 19 17 18 21 23 28 34 35 31 29 31 32 34 36 37 35 37 38 38 40 40 40 42 43 44 46 48 49 51 52 54 55 55
16 15 14 19 21 20 23 23 24 26 28 26 27 27 28 28 28 29 31 33 33 34 34 36 37 39 42 43 44 45 45 46 47 49 50 51 53 54 55 56 56 56 57 58
16 19 21 23 25 27 28 29 31 33 35 35 36 37 37 37 37 37 38 40 41 42 43 44 44 45 47 49 50 51 51 51 52 53 54 55 55 56 57 57 58 59 60 61
21 23 24 26 26 28 29 31 35 38 40 40 40 41 42 43 43 43 44 45 46 47 48 49 50 50 50 51 52 53 53 54 55 56 57 57 58 59 60 60 60 59 59 59
28 29 28 29 28 28 30 33 36 38 39 40 41 41 42 43 44 45 45 47 48 49 51 52 53 54 54 55 55 55 56 56 57 58 60 60 61 61 60 59 59 59 59 59
22 24 26 29 32 34 37 39 40 41 42 43 43 44 45 47 49 50 50 51 52 53 54 54 55 55 57 58 58 59 60 61 60 59 58 57 56 56 56 56 55 54 54 54
21 23 26 29 33 36 39 41 42 43 44 45 46 47 47 48 49 50 51 52 53 54 55 55 55 56 57 57 57 57 56 56 55 54 54 54 55 55 56 57 58 57 57 57
23 26 30 33 36 38 41 43 46 47 49 51 52 53 54 55 56 57 58 58 59 59 60 60 60 60 60 59 59 59 58 58 58 57 57 57 58 58 57 57 56 57 56 55
27 32 36 40 44 46 49 51 53 54 55 57 58 58 59 60 61 61 61 60 60 59 59 59 59 59 59 59 60 60 60 60 60 59 59 58 58 57 56 56 55 55 55 54
33 36 40 43 47 50 53 56 57 57 57 56 55 55 55 55 55 55 55 56 56 56 56 56 55 55 56 57 57 58 57 57 56 55 55 55 54 53 52 52 51 51 50 50
36 39 42 46 49 52 54 53 53 54 55 57 56 55 53 51 50 48 46 45 45 46 46 47 48 48 49 50 51 51 52 52 51 51 51 50 50 50 49 49 50 50 51 51
38 41 45 49 51 51 51 54 55 53 49 45 41 39 38 37 36 36 36 35 35 35 36 36 36 37 38 39 40 41 42 43 44 45 46 46 47 48 48 49 50 50 50 50
39 44 48 49 49 51 54 50 44 38 36 34 33 32 32 31 31 31 30 31 32 31 32 33 33 33 32 32 33 34 35 35 36 37 38 39 39 40 40 40 40 39 39 39

GFSNGP_500_spd_102.txt.gz
Wind_Speed
21 19 19 18 21 20 20 20 16 15 13 15 11 13 16 23 21 24 24 23 26 31 36 37 37 38 40 42 36 41 39 39 34 32 34 33 32 31 31 30 30 29 26 25
18 22 21 20 20 20 20 18 18 15 14 13 11 14 15 17 25 21 24 11 24 29 35 34 38 37 41 40 41 43 40 41 39 38 36 37 39 37 32 31 30 30 29 27
15 15 19 20 21 19 19 19 18 16 17 17 14 14 14 16 20 23 25 19 10 25 37 36 41 43 47 50 46 44 44 44 43 40 37 39 32 36 39 36 33 30 29 28
8 13 17 17 17 16 17 17 15 14 11 13 14 11 11 10 14 17 20 16 18 26 39 39 42 46 48 50 49 53 48 45 44 39 39 37 30 38 25 27 29 33 33 32
8 10 13 15 16 15 17 16 14 13 10 12 13 13 17 13 19 21 20 20 20 19 33 40 41 45 48 47 51 51 48 46 44 43 41 43 33 32 32 30 28 28 27 29
10 7 8 14 15 15 15 16 15 14 14 15 14 18 16 17 14 19 24 26 24 27 28 38 38 45 46 49 52 56 54 52 49 48 52 49 35 30 31 32 32 30 28 29
13 14 13 12 12 14 15 17 16 15 17 21 19 19 11 8 7 4 15 20 23 22 24 28 28 50 54 53 53 50 50 54 61 55 41 37 35 37 39 37 34 36 37 37
12 17 19 17 16 13 14 14 16 17 17 20 22 21 18 13 11 11 13 14 14 20 23 23 24 26 27 46 60 63 57 61 49 45 54 48 47 43 43 42 40 41 44 44
11 12 15 18 20 20 20 19 19 21 22 22 26 24 20 18 20 17 9 9 13 13 18 15 20 21 25 28 28 28 31 38 45 55 57 56 49 49 46 46 43 41 41 40
15 13 12 14 15 19 20 21 22 23 24 24 27 30 27 24 24 21 25 15 12 13 14 16 18 20 19 20 23 26 28 26 30 29 32 32 33 33 40 42 45 47 45 45
14 14 13 14 15 17 16 16 16 19 21 23 25 30 32 29 31 34 29 27 25 21 24 25 21 19 20 22 24 26 27 29 29 31 31 32 33 34 36 39 39 41 43 44
14 13 13 14 16 17 16 15 13 14 14 17 18 24 27 27 29 33 31 31 34 36 30 29 28 25 25 25 25 25 25 27 29 30 30 31 32 32 35 37 39 40 40 41
14 14 15 9 17 14 15 18 17 16 16 17 17 19 21 17 17 22 31 34 31 31 31 31 33 30 29 30 30 27 27 29 31 32 33 34 35 35 36 36 38 39 39 40
12 14 18 15 13 16 17 18 21 21 17 19 21 19 21 23 23 23 22 22 25 31 34 34 33 32 31 33 34 32 31 32 33 34 35 35 36 37 37 38 39 40 42 43
14 16 16 16 15 15 16 17 19 20 19 18 18 21 22 22 26 26 25 25 27 31 33 34 33 33 35 34 34 35 37 38 39 40 40 41 42 43 44 45 46 47 50 51
14 16 20 20 20 21 22 21 22 23 25 27 29 32 32 32 33 33 34 35 34 34 35 36 37 38 38 39 40 42 42 43 44 45 47 48 49 49 50 52 54 55 57 57
15 16 18 23 22 22 25 28 30 32 33 33 34 35 37 41 43 44 44 44 45 45 45 45 45 46 46 47 48 48 49 51 52 52 53 54 55 57 58 58 58 59 60 60
16 19 22 22 24 27 31 32 34 35 36 39 41 42 42 43 46 47 49 50 52 53 54 54 54 53 53 54 55 56 57 58 59 59 60 61 61 61 61 61 61 62 62 62
19 20 23 28 31 31 30 31 34 37 39 41 42 44 45 47 48 50 50 51 52 53 54 55 56 57 57 58 58 58 59 59 60 61 61 62 62 63 64 64 64 65 66 67
21 22 24 27 31 33 35 37 38 40 41 43 44 45 47 48 49 50 51 53 54 54 54 54 55 57 59 61 63 63 63 63 63 63 63 63 63 64 65 66 67 66 65 64
17 19 22 24 27 29 32 35 39 42 45 48 50 51 52 53 53 54 55 56 56 57 57 57 57 57 57 57 58 58 59 60 61 62 63 64 64 63 63 63 63 63 62 62
16 20 23 27 31 35 39 43 47 51 54 57 59 60 60 59 58 58 58 59 59 60 60 60 60 60 60 60 60 60 60 61 61 61 62 63 64 64 64 64 64 64 64 64
24 28 31 34 37 40 43 49 53 56 58 58 59 59 60 60 59 59 58 57 56 56 56 56 56 57 58 58 58 58 59 59 59 60 61 61 61 62 62 63 63 63 63 62
30 33 36 38 40 44 48 52 53 55 55 55 57 60 60 59 59 57 56 55 54 52 52 52 53 53 53 54 55 55 56 56 57 58 59 59 59 58 58 57 56 56 56 55
30 33 35 38 42 47 50 51 51 52 56 57 54 49 45 42 40 40 40 40 40 40 40 40 41 41 42 43 44 45 46 47 48 49 50 51 51 51 51 52 52 52 52 53
31 33 37 41 45 48 49 49 52 54 52 46 41 37 35 34 34 33 33 33 34 34 34 35 35 35 36 36 36 36 36 36 37 37 38 39 40 41 42 44 44 45 46 47
38 39 42 46 49 49 50 53 54 49 42 37 34 32 31 30 30 30 30 30 30 30 31 32 32 31 32 32 32 31 31 31 32 32 33 33 34 34 35 35 36 36 37 37

GFSNGP_500_spd_105.txt.gz
Wind_Speed
17 20 19 19 19 19 19 17 14 18 21 17 14 17 19 18 21 23 26 30 33 31 29 32 36 42 45 43 47 55 54 47 38 40 38 32 29 30 30 30 30 32 32 30
16 19 19 17 17 16 15 15 17 17 19 14 16 16 16 17 19 17 24 28 25 28 36 36 36 41 44 45 48 51 51 42 43 44 40 36 35 34 34 34 34 34 34 34
17 16 16 17 19 15 15 19 16 16 17 16 17 16 17 16 18 18 21 23 25 25 22 38 37 44 44 48 50 51 51 41 47 44 40 37 37 36 37 36 35 42 40 36
22 19 18 18 17 15 19 13 15 15 16 11 17 18 18 17 17 16 17 16 20 17 6 30 32 41 43 43 43 42 45 46 43 42 42 42 42 40 42 39 39 44 49 42
7 7 8 13 14 15 16 13 14 15 16 17 18 18 17 18 19 19 20 19 18 20 20 14 41 38 34 43 42 45 47 45 46 48 47 45 44 45 41 38 38 35 31 40
5 6 11 14 12 15 13 15 16 16 17 18 17 17 17 17 19 23 20 20 20 21 21 27 21 49 44 47 47 46 44 61 54 57 52 50 48 45 40 40 49 36 35 33
10 12 11 9 11 13 15 18 17 17 17 19 20 20 17 15 14 9 10 11 15 19 23 25 28 25 44 49 50 49 51 43 66 54 52 53 50 50 46 44 34 35 38 39
5 14 15 16 14 12 14 16 18 18 18 18 19 20 19 19 17 18 17 18 15 16 15 19 24 25 31 29 54 53 55 64 65 59 62 59 56 56 57 45 43 49 43 46
7 11 16 19 20 21 19 18 17 18 18 19 19 20 20 18 19 22 21 20 15 15 17 17 20 21 27 26 32 28 38 42 42 50 53 59 64 55 63 52 52 54 54 54
9 13 13 15 17 19 23 24 24 25 25 25 24 25 26 24 22 22 25 27 26 24 19 18 21 23 22 19 20 23 23 23 24 33 35 44 50 59 64 60 59 63 62 62
11 15 17 16 16 16 17 19 20 21 23 24 25 25 25 27 24 24 27 31 30 32 29 27 30 31 29 28 27 26 24 24 25 28 27 27 27 30 32 34 37 41 42 47
15 17 16 17 18 19 18 18 18 18 18 18 19 19 20 22 23 23 23 29 35 38 38 36 35 34 34 36 33 31 30 29 28 29 28 30 29 30 32 33 36 37 39 41
16 18 18 17 17 19 18 19 21 20 19 18 17 18 18 18 20 20 18 19 26 34 35 35 36 35 31 32 34 34 34 33 33 32 32 33 33 33 34 35 37 38 39 41
15 17 18 19 21 16 17 21 20 20 23 24 23 21 21 21 21 22 22 24 25 25 28 31 32 32 34 35 35 34 35 35 35 34 34 35 36 37 39 40 40 41 41 42
14 13 14 16 15 19 18 18 20 21 22 23 23 23 23 23 24 24 25 27 29 31 30 31 34 36 37 37 37 36 37 39 40 41 40 41 41 42 43 44 44 45 45 46
17 18 16 17 22 21 22 24 24 25 25 24 26 28 30 32 34 36 36 37 38 39 40 40 41 41 41 42 42 43 43 42 42 45 45 46 46 47 47 49 50 52 53 53
14 17 19 17 18 25 24 23 27 29 31 33 35 37 39 38 38 41 43 45 45 45 47 51 53 52 52 52 52 52 52 51 51 51 52 53 54 55 55 57 57 58 59 60
16 17 18 19 22 24 26 29 30 32 35 38 41 44 45 47 48 49 50 51 52 53 53 53 55 57 60 61 61 61 61 61 61 61 61 61 61 62 62 63 63 64 65 66
19 19 19 21 24 27 30 34 37 39 39 41 43 44 46 47 49 50 50 51 51 53 54 55 56 58 59 60 62 63 64 65 65 66 66 66 66 65 66 66 66 67 67 68
20 21 22 24 27 29 30 31 34 36 38 40 42 46 49 52 54 55 56 56 56 57 57 57 58 59 60 61 61 62 63 64 66 67 68 69 69 68 68 68 68 68 68 68
16 16 18 20 23 26 28 31 35 38 42 46 49 54 58 61 63 65 65 65 64 62 60 59 59 60 61 62 63 64 65 65 65 65 65 65 65 65 65 65 66 66 67 67
15 18 22 26 29 32 35 37 40 44 48 53 57 61 62 62 62 62 63 63 63 64 63 63 62 60 60 60 61 62 64 65 66 67 68 68 68 68 68 68 69 69 70 70
21 24 26 29 32 34 38 41 46 49 54 57 58 59 59 58 59 61 62 61 61 60 59 59 59 59 59 59 60 60 61 61 61 62 63 65 66 66 67 67 68 68 68 69
23 26 28 31 33 35 39 43 48 52 53 54 55 56 60 60 57 53 48 46 43 42 42 42 43 43 44 46 49 51 53 55 56 56 57 58 59 59 60 61 62 62 63 63
29 32 35 35 36 39 44 47 51 52 53 53 56 57 53 48 43 39 37 36 36 35 36 36 36 36 36 37 37 37 38 39 41 42 43 44 45 47 48 49 50 51 52 53
37 39 39 40 41 44 48 51 53 54 54 56 55 49 42 38 35 34 33 32 32 31 31 32 32 32 33 33 33 34 34 34 35 36 36 37 37 37 38 38 38 39 40 41
42 43 42 42 44 47 50 53 54 55 57 53 46 41 37 35 33 31 30 29 29 29 29 29 29 30 30 30 31 30 31 31 31 30 30 30 30 30 31 31 31 31 32 33

GFSNGP_500_spd_108.txt.gz
Wind_Speed
9 12 17 19 19 19 17 18 19 21 25 23 19 17 16 17 18 17 19 23 25 28 31 33 28 29 31 34 34 35 36 38 40 43 47 48 41 30 26 27 27 28 29 32
16 22 21 17 21 21 20 20 20 21 21 22 19 20 19 17 18 17 18 19 24 27 29 30 30 31 33 36 40 40 40 42 45 49 51 51 41 36 38 36 32 33 31 30
9 15 20 17 15 17 15 17 22 23 18 14 15 18 20 19 17 16 16 18 22 24 23 26 30 31 38 38 41 45 46 46 43 45 51 47 40 39 41 39 38 36 34 30
12 8 10 13 15 16 15 16 15 16 17 18 17 19 19 21 18 18 17 17 14 15 19 18 17 26 40 36 40 45 47 48 48 48 46 50 43 43 42 38 42 40 37 34
12 16 16 13 14 13 14 13 12 15 16 17 18 17 15 17 17 18 19 19 15 16 16 19 23 20 30 35 43 44 45 51 49 49 50 45 41 46 44 40 46 44 40 41
12 8 7 7 7 11 11 13 14 15 16 18 19 19 15 14 14 15 16 18 16 17 17 19 18 18 27 39 42 42 48 51 50 53 56 46 44 44 44 42 44 46 45 44
5 5 7 7 7 9 12 15 14 15 17 17 19 19 18 17 16 18 18 14 11 12 15 17 20 22 21 14 28 51 50 45 48 49 56 44 46 58 52 48 56 49 48 50
5 7 10 10 10 10 11 11 13 14 17 18 19 20 21 21 19 17 19 17 20 20 19 18 18 21 23 20 23 25 37 58 57 70 59 50 73 59 56 60 58 57 53 48
4 6 8 10 13 15 16 14 14 15 15 17 18 18 18 17 17 17 19 20 21 22 22 20 17 18 20 20 17 20 23 31 40 51 49 56 54 52 55 61 55 59 60 54
7 8 10 11 13 16 17 20 21 21 22 22 22 22 23 23 23 22 23 24 23 22 24 26 27 28 27 26 24 22 20 19 23 29 33 45 49 62 66 61 65 67 70 74
10 11 12 14 16 17 17 18 19 19 20 23 25 26 26 25 25 24 25 26 25 24 27 30 31 32 32 33 33 34 31 30 29 26 25 27 31 30 36 35 39 50 49 58
13 14 15 15 17 19 20 19 19 19 19 19 19 20 20 20 20 20 22 24 25 23 24 28 33 34 35 35 33 33 32 31 32 33 34 35 33 31 31 30 28 29 30 31
14 14 16 16 19 19 19 20 20 21 21 22 22 22 21 20 20 21 22 24 25 27 24 23 26 30 31 31 32 35 35 33 33 33 33 35 36 34 33 34 34 34 33 32
14 15 16 15 19 20 21 21 21 22 22 23 24 26 27 27 26 26 26 26 27 28 29 28 28 30 32 32 31 30 32 35 36 36 36 37 38 38 37 37 38 37 37 37
12 14 14 15 16 18 20 22 24 22 22 24 25 26 27 28 29 29 29 29 30 31 33 36 36 35 35 36 36 39 38 37 37 39 39 39 41 43 43 43 44 43 43 43
14 16 16 18 16 16 19 23 24 24 26 27 29 30 31 31 31 34 37 39 40 41 41 42 43 45 45 46 46 46 46 46 46 46 45 45 46 46 46 47 49 50 50 51
13 15 14 16 19 21 19 20 25 31 28 29 32 35 39 40 39 40 42 44 45 46 50 50 52 54 55 54 54 56 57 57 57 57 56 55 55 54 54 54 55 55 55 56
15 15 17 19 20 22 23 24 26 29 32 34 37 40 43 45 48 50 50 51 51 54 56 57 58 61 62 62 63 63 62 62 63 63 63 64 64 64 63 63 63 64 64 64
15 18 21 21 21 23 25 28 32 36 38 38 39 40 42 43 45 48 50 53 54 56 58 59 60 61 62 63 64 65 64 63 62 62 63 64 65 67 67 68 68 68 69 69
19 20 20 20 20 21 23 26 29 32 36 39 42 44 46 49 52 55 57 61 64 65 66 67 68 68 68 68 67 68 68 69 69 69 68 67 67 67 67 67 67 68 69 70
11 13 15 18 21 24 27 30 33 36 39 42 44 48 52 56 60 64 67 67 66 65 64 64 64 64 65 65 65 65 65 64 65 67 68 70 71 71 71 70 69 68 68 67
12 14 18 22 26 28 31 33 36 39 42 46 49 53 57 59 61 61 62 63 61 63 63 64 63 63 63 63 63 64 65 65 65 65 66 67 69 70 71 72 72 72 71 71
16 19 22 25 29 32 34 36 38 40 45 49 54 57 59 60 59 60 60 61 60 57 53 50 49 48 48 48 50 52 54 56 59 61 63 64 65 66 67 68 68 69 69 69
19 22 28 32 34 36 38 40 42 45 48 52 57 60 59 61 62 59 54 49 45 42 40 38 37 37 38 38 40 40 41 42 43 45 47 51 54 56 58 61 62 63 63 63
26 30 33 37 39 41 41 42 46 48 51 56 58 60 63 59 53 46 42 38 37 35 33 33 33 32 33 33 34 35 35 36 37 37 38 39 39 40 42 43 45 46 47 49
31 35 38 42 44 44 44 46 49 51 56 60 60 61 55 47 41 39 36 35 33 32 31 30 30 31 31 31 31 31 32 32 33 33 34 34 35 36 36 37 38 38 39 39
36 39 43 46 47 46 46 48 50 54 58 62 62 56 47 42 39 37 35 33 32 31 30 30 30 30 31 30 30 29 29 29 29 30 30 31 31 31 31 31 31 31 30 30

GFSNGP_500_spd_111.txt.gz
Wind_Speed
6 8 15 11 16 14 24 20 18 6 18 5 14 9 4 7 10 14 18 19 19 20 24 28 30 27 24 22 22 27 28 30 31 29 33 40 38 39 41 40 39 39 32 27
12 14 19 13 28 11 18 23 16 24 11 21 16 15 12 11 14 14 17 19 19 18 19 22 24 23 20 21 24 28 31 32 32 32 35 40 38 39 43 40 40 41 37 32
23 24 18 15 19 18 16 20 17 14 14 15 12 12 15 16 15 15 15 15 15 16 16 15 16 18 18 20 23 29 33 34 36 37 39 40 38 41 42 41 38 39 42 35
7 8 16 13 6 7 14 12 14 16 17 18 12 15 15 14 15 16 17 15 14 12 10 12 14 15 16 16 26 33 35 35 39 41 43 41 40 40 41 44 44 43 41 38
7 15 19 8 6 7 9 12 14 17 17 16 16 18 17 15 13 13 11 11 11 15 11 13 16 16 21 24 20 24 37 38 41 43 46 44 41 40 42 45 43 46 42 40
9 18 11 5 2 6 8 11 14 13 14 17 17 17 17 15 12 10 10 11 10 8 8 11 14 15 17 21 17 30 36 35 41 40 41 42 46 44 48 42 43 40 46 45
8 7 10 5 3 6 6 8 9 12 14 15 15 16 18 17 16 16 16 14 11 10 12 13 13 14 15 16 15 17 20 32 40 42 54 46 53 55 47 51 51 47 48 44
4 3 5 5 6 7 6 6 8 10 12 14 15 15 16 18 19 19 16 14 13 13 13 14 13 14 15 15 16 19 22 21 25 34 54 49 64 51 60 71 59 54 57 57
5 4 3 5 9 11 12 12 11 12 13 13 13 13 14 15 16 16 17 17 17 16 15 17 17 17 18 20 21 20 20 21 22 26 30 39 50 60 66 55 55 53 58 68
7 7 5 4 6 9 12 14 15 18 20 20 20 21 21 21 21 21 22 23 23 23 20 20 21 23 22 22 24 24 24 28 27 25 20 20 27 30 36 45 48 57 58 64
9 9 9 9 9 11 13 14 15 17 19 19 20 21 22 23 22 22 22 23 23 24 24 22 24 26 28 29 29 31 30 29 30 33 34 33 28 25 28 28 23 33 38 48
15 13 13 13 13 14 16 17 18 18 20 20 19 19 20 20 20 20 21 21 21 21 22 21 20 24 27 28 30 32 33 33 33 34 32 32 34 36 37 35 33 31 28 29
19 18 18 17 17 18 18 19 20 20 20 21 22 22 23 24 24 24 24 25 25 26 26 27 26 26 26 28 30 31 32 32 31 32 35 35 37 35 34 34 35 37 40 40
18 18 18 18 18 18 19 19 20 20 21 22 22 24 26 26 27 27 28 30 31 31 31 32 32 31 30 30 32 34 35 37 36 35 33 34 35 38 40 40 40 39 39 38
12 12 12 12 14 14 15 16 18 18 20 23 25 24 26 28 29 30 31 32 34 35 37 38 38 40 41 40 40 40 41 41 40 41 40 39 39 39 40 41 42 43 44 45
10 10 11 12 13 14 16 15 17 19 22 24 27 29 30 31 33 36 39 42 44 45 44 45 47 48 49 51 50 48 47 46 48 49 50 50 49 49 49 48 47 48 48 49
10 9 10 13 14 15 16 18 21 22 24 25 27 28 31 34 38 40 43 46 49 51 53 55 56 57 58 58 59 59 57 56 57 57 57 57 58 59 60 59 59 59 57 56
14 13 14 16 18 20 22 22 23 25 28 31 35 39 41 42 43 44 46 47 49 50 52 54 55 56 57 59 62 64 64 63 60 60 61 63 64 65 65 66 66 66 66 66
11 12 15 19 21 22 22 22 23 25 27 31 34 37 40 43 45 47 50 53 55 56 60 62 63 65 66 67 69 70 71 71 72 69 66 65 64 65 66 67 67 67 66 66
10 15 16 15 15 17 20 22 25 28 31 34 37 40 44 47 49 51 54 59 62 64 67 68 68 68 68 69 70 71 72 72 73 73 72 67 64 64 65 68 70 70 69 68
6 8 10 12 16 20 23 26 28 31 34 37 39 43 48 51 54 57 61 66 68 66 66 64 64 63 63 64 64 64 65 65 66 68 68 69 67 65 62 62 62 64 66 68
6 8 12 17 19 22 25 28 31 34 37 40 42 46 50 52 55 64 66 64 65 65 65 62 60 57 55 54 53 53 54 55 56 57 59 61 62 63 64 63 63 62 62 64
8 12 15 20 24 28 31 34 37 38 40 42 45 50 52 55 62 62 64 63 57 51 47 44 42 41 40 40 39 39 40 41 42 44 46 47 49 50 51 53 56 58 59 60
14 18 23 27 30 33 37 40 42 42 43 45 49 52 55 61 60 61 57 50 45 42 40 38 36 34 34 33 33 33 35 36 37 38 39 40 41 42 43 43 43 44 45 45
20 25 28 32 35 38 42 45 45 44 45 46 48 52 55 59 61 60 52 45 42 39 37 35 34 32 31 31 31 32 32 33 34 34 35 35 36 37 38 39 38 38 38 39
25 29 33 37 41 43 45 49 51 50 50 50 51 54 56 57 58 57 49 44 41 38 36 33 32 32 31 30 31 31 31 31 31 31 31 31 32 33 35 35 35 36 36 36
30 34 38 41 45 49 52 55 56 54 52 52 53 55 56 57 57 56 49 44 41 38 35 33 31 31 31 31 30 30 30 30 30 29 29 29 29 29 30 31 32 32 32 32

GFSNGP_500_spd_114.txt.gz
Wind_Speed
4 4 6 8 5 8 19 17 16 11 2 4 2 4 9 5 7 13 16 16 20 22 23 27 28 28 30 30 29 34 36 37 37 39 37 36 34 32 33 42 41 36 44 44
11 13 11 12 6 18 18 18 14 7 0 7 8 2 8 3 4 6 7 11 12 16 19 21 25 27 26 25 25 29 29 30 33 35 36 36 35 32 34 39 40 42 46 46
16 20 26 24 20 17 15 15 11 8 9 14 12 9 9 12 8 8 10 11 13 15 17 17 19 20 20 19 22 23 28 29 30 32 35 35 36 34 38 40 40 43 43 47
5 12 16 14 9 4 3 6 10 9 11 9 10 11 6 5 6 7 10 14 14 16 15 13 12 13 15 18 19 16 19 27 27 32 34 36 35 35 36 38 38 38 43 45
10 14 14 10 5 3 2 5 7 9 9 11 12 11 9 8 7 7 4 6 7 9 11 15 14 15 15 15 17 16 16 25 34 31 31 36 33 38 43 44 41 53 38 43
14 19 10 3 1 3 4 5 7 11 10 9 9 10 13 13 13 12 10 9 9 8 8 11 11 12 12 14 13 11 15 24 22 34 36 43 52 37 39 42 44 37 38 35
12 20 10 6 5 2 3 4 6 7 9 11 10 12 15 17 17 16 15 15 13 12 13 13 12 11 12 11 10 11 18 20 17 25 37 36 39 36 39 41 43 47 46 41
10 9 10 7 5 5 2 2 3 5 7 8 9 12 13 14 14 16 16 15 14 12 12 14 14 14 14 15 14 14 17 15 16 20 25 36 42 41 44 49 51 50 61 57
6 3 5 5 5 5 7 7 9 10 10 11 12 11 11 12 13 13 14 14 15 15 16 16 17 19 19 19 19 20 19 19 18 20 21 26 31 33 49 58 54 59 57 55
5 4 4 4 3 4 5 8 10 11 13 15 17 19 20 20 21 22 22 22 22 23 24 24 24 22 24 25 25 25 25 23 23 24 24 24 25 27 30 29 34 43 44 47
3 4 5 6 5 5 6 9 10 12 14 17 18 19 19 21 22 23 23 23 24 24 25 25 26 26 26 28 30 30 29 29 28 28 27 29 28 32 36 34 28 24 23 32
9 9 9 9 10 12 13 13 14 14 15 18 20 21 22 22 22 24 24 25 24 25 26 26 26 26 26 27 28 29 29 30 33 35 34 33 35 35 35 37 39 44 42 37
17 15 15 15 14 16 19 20 19 19 20 20 20 22 23 23 24 26 27 29 30 31 32 32 32 33 33 33 33 33 35 35 33 35 36 36 36 37 37 38 38 37 38 40
19 19 19 19 18 17 18 20 20 21 22 24 24 24 24 24 24 26 29 30 31 33 34 35 36 37 38 39 40 40 39 39 41 40 40 41 41 40 40 40 40 41 40 40
17 16 14 13 14 14 16 18 19 20 20 21 23 23 24 24 26 28 30 33 34 36 38 40 41 43 45 46 47 47 47 47 47 48 49 50 49 48 47 46 45 45 46 45
11 8 8 8 9 11 13 15 18 19 19 19 20 22 24 25 28 32 35 39 41 44 45 47 49 50 52 54 56 56 57 58 58 56 56 56 56 56 55 55 54 54 53 53
11 7 7 8 8 11 15 17 19 20 22 24 25 27 30 32 35 37 39 41 44 46 49 50 51 52 53 55 56 58 60 61 62 62 62 61 61 63 64 64 63 63 61 60
12 12 11 11 14 17 20 22 21 20 20 22 24 26 29 33 37 40 42 46 50 54 56 57 58 59 60 62 63 64 65 66 67 68 68 68 66 65 66 67 67 67 68 68
11 12 11 14 17 19 17 17 19 20 22 24 26 29 33 36 39 43 47 50 56 60 61 62 65 68 71 74 75 75 74 73 72 72 72 72 72 71 69 70 71 71 70 70
8 8 11 11 11 14 15 18 20 23 25 27 30 32 35 39 42 47 49 53 57 57 66 67 65 65 66 67 67 67 67 66 66 65 65 65 66 67 66 64 63 65 67 68
5 4 6 8 11 14 18 21 24 27 29 32 36 37 40 42 45 51 53 57 59 65 65 64 64 60 56 53 52 51 51 52 53 55 56 57 58 60 61 61 61 60 61 64
3 4 6 10 15 19 23 26 29 33 35 37 39 41 44 47 50 54 56 58 60 63 62 62 56 50 47 44 43 42 41 41 40 41 42 43 45 46 48 49 50 51 52 54
3 6 10 15 20 25 28 30 33 36 39 42 45 47 48 51 52 54 56 58 60 61 60 59 52 46 44 42 40 39 37 36 36 36 36 37 38 39 40 41 42 42 43 43
6 11 15 20 25 29 33 35 38 42 45 49 51 53 52 52 52 54 56 59 60 60 58 58 51 45 42 40 38 37 36 35 34 34 35 35 36 36 37 37 38 38 39 39
11 15 20 25 29 33 37 40 43 47 49 52 55 56 55 54 53 55 56 59 61 60 58 56 50 45 41 38 37 36 34 34 34 34 33 34 34 34 35 34 34 34 35 35
16 20 25 29 34 37 41 45 49 52 54 55 58 60 58 55 54 55 57 59 60 60 58 55 48 44 41 38 36 35 34 34 34 34 33 32 32 32 33 32 32 32 32 32
22 26 30 34 38 42 47 50 54 56 58 59 61 63 60 57 56 56 59 59 61 60 57 53 46 42 40 38 37 36 35 34 33 34 33 32 32 32 31 31 31 30 30 30

GFSNGP_500_spd_117.txt.gz
Wind_Speed
10 12 3 6 7 11 5 4 17 20 13 11 7 9 12 8 11 20 21 32 26 22 22 24 27 29 31 32 34 39 40 39 41 43 43 41 39 37 36 37 38 37 36 42
19 19 8 0 10 15 18 16 17 13 8 6 7 6 5 8 8 7 4 3 6 12 19 22 21 22 25 27 30 34 37 37 37 39 41 41 41 41 38 36 36 35 36 43
7 21 21 18 25 20 21 21 10 1 2 3 6 6 4 5 4 2 2 3 6 9 11 12 13 15 16 19 23 28 31 34 34 36 37 39 42 42 40 37 37 39 38 42
5 7 8 13 12 10 7 9 5 5 5 6 5 3 3 4 3 2 2 4 6 8 10 11 13 15 16 17 19 24 26 31 31 34 34 35 35 37 39 37 37 41 41 38
6 10 7 11 7 5 5 3 1 2 2 3 4 4 3 4 4 3 5 5 7 7 10 11 15 16 17 20 19 18 22 25 28 29 34 35 34 36 39 38 38 38 40 43
9 11 8 4 3 2 2 2 1 1 2 2 1 3 6 6 8 9 10 10 11 11 9 9 12 16 16 21 20 20 20 21 22 20 24 30 33 33 37 43 38 49 51 48
13 14 9 3 2 1 1 1 1 1 2 2 3 6 5 6 8 12 12 12 12 13 14 15 15 16 16 17 15 15 17 17 19 22 20 24 28 34 36 43 47 40 44 40
16 17 16 7 6 3 2 2 4 4 4 6 6 5 6 7 9 9 11 10 12 13 14 14 15 16 18 19 20 20 19 19 19 17 16 22 25 30 43 42 37 48 50 42
11 10 10 10 8 6 5 6 7 8 9 8 9 12 13 14 14 15 15 15 16 16 17 18 18 20 21 21 22 24 26 26 24 22 22 22 23 25 26 27 40 53 47 42
7 6 5 6 6 5 4 4 5 7 8 9 11 13 14 16 18 20 22 24 25 26 26 27 28 29 31 30 28 28 30 31 31 31 29 28 28 29 28 26 28 31 33 37
8 8 7 5 4 4 3 4 6 8 10 12 14 17 19 21 22 25 26 26 26 28 29 30 30 31 31 32 33 33 33 34 34 36 35 34 33 33 34 34 33 33 32 34
9 7 7 7 7 6 6 7 10 13 14 16 17 19 21 23 25 26 28 30 31 31 32 33 33 33 34 34 35 35 34 35 36 37 38 39 39 39 38 38 40 41 41 39
16 15 13 12 10 10 13 16 17 18 18 20 22 24 26 27 28 28 29 29 30 32 33 34 35 36 37 38 39 40 41 42 41 42 42 41 42 42 42 43 42 41 42 41
20 19 18 18 17 17 18 19 21 22 22 23 25 26 27 28 28 28 30 31 32 33 35 36 38 39 41 43 45 46 47 48 47 47 47 48 48 48 50 49 48 46 45 45
16 17 15 14 15 16 18 20 22 22 24 25 26 25 24 23 24 25 26 29 32 35 37 40 42 44 46 48 51 53 54 55 56 57 57 57 56 55 55 54 56 56 55 53
13 10 9 8 9 10 11 13 15 15 17 19 21 23 25 26 28 29 30 31 34 38 40 43 45 48 51 55 57 58 60 61 60 61 61 62 63 63 63 63 62 61 61 61
14 11 9 8 8 9 10 10 13 16 17 16 17 19 21 24 27 29 30 33 37 40 44 47 51 55 59 63 63 63 65 67 68 68 67 67 67 68 67 67 66 66 66 66
16 14 12 10 10 9 10 13 11 14 16 18 19 21 23 26 30 32 35 38 41 45 48 52 56 57 63 65 67 71 71 70 70 70 73 75 75 75 75 74 73 72 71 70
14 11 10 10 8 11 10 12 13 15 18 21 24 27 29 32 34 36 39 43 46 51 54 57 60 62 66 69 64 62 62 60 59 59 61 63 66 67 69 70 71 73 74 73
12 10 8 8 8 9 10 13 17 19 23 26 29 31 33 36 38 40 43 46 50 54 56 60 61 63 63 65 59 62 57 52 49 47 47 48 50 53 56 60 62 64 65 66
10 9 7 6 6 9 12 16 19 22 25 28 31 34 37 40 43 46 48 51 53 56 57 60 60 62 62 62 60 61 54 48 45 44 42 41 41 42 43 45 48 51 55 59
8 6 4 4 7 11 16 21 24 27 29 32 36 39 41 43 47 50 53 56 57 56 59 58 61 60 62 61 61 59 51 46 43 41 40 38 37 37 37 37 38 39 41 43
4 4 4 7 11 16 21 25 28 31 34 37 39 43 46 50 53 56 59 60 58 57 58 58 60 60 61 61 60 55 48 44 41 39 36 36 35 35 35 35 35 35 37 37
6 6 9 12 16 21 25 29 32 36 39 43 47 50 53 56 60 61 63 62 60 59 59 61 60 62 61 61 58 50 44 41 39 37 35 35 34 34 33 33 33 33 33 34
10 12 14 18 22 26 30 34 37 41 46 50 54 58 60 61 64 65 65 64 61 61 62 62 63 62 64 59 53 46 41 39 38 37 35 34 34 34 33 32 32 31 31 31
16 18 21 24 28 32 36 40 44 48 52 56 60 64 65 64 67 67 67 64 63 64 65 65 65 65 60 55 49 43 40 38 37 36 35 34 34 33 33 32 31 30 30 30
21 24 26 30 34 38 42 46 50 54 58 61 64 68 68 67 70 70 68 66 67 68 68 69 67 60 54 50 45 41 39 38 37 36 35 34 34 33 33 32 32 32 31 30

GFSNGP_500_spd_120.txt.gz
Wind_Speed
13 9 3 6 6 6 3 11 2 14 14 14 13 12 10 10 9 7 8 11 14 23 26 32 35 32 26 28 31 35 37 39 38 39 41 42 44 43 42 42 44 45 41 38
14 3 6 3 7 6 2 17 17 11 7 12 11 14 13 12 11 9 8 8 9 12 12 15 22 26 20 23 27 31 31 36 38 39 43 46 44 43 41 41 38 37 33 37
3 12 10 12 16 12 13 12 8 6 7 8 11 12 10 7 7 5 7 5 4 3 6 10 10 13 18 20 24 27 31 33 35 37 39 39 42 42 43 42 41 40 40 43
13 12 5 21 14 12 10 7 3 2 3 3 3 3 5 6 4 3 3 3 3 3 5 6 8 12 14 16 17 19 21 25 28 30 34 38 40 42 40 41 43 43 44 45
12 11 7 11 6 6 5 4 1 2 2 2 2 1 0 3 2 1 2 3 4 5 6 8 11 13 15 16 17 18 19 17 19 23 28 29 33 37 37 37 39 44 43 43
11 9 11 7 4 4 4 4 4 3 2 1 2 2 4 3 3 7 9 9 11 11 11 11 13 14 14 13 15 17 17 17 20 22 22 25 26 28 35 35 36 37 41 43
13 12 11 9 3 1 2 3 4 2 2 2 3 4 3 2 3 7 11 12 13 13 14 16 16 18 18 17 17 17 16 17 19 20 20 20 23 25 29 34 39 40 38 42
16 18 16 10 7 7 5 5 4 3 3 3 2 1 2 3 4 5 7 10 10 12 14 15 16 17 17 18 19 20 20 21 22 23 24 24 23 24 23 27 31 33 36 39
13 15 19 16 13 10 9 8 6 6 4 2 2 2 5 6 8 9 11 13 15 17 18 20 21 23 24 25 26 27 28 29 30 32 33 32 31 31 30 29 26 25 27 33
8 10 8 8 10 10 9 7 5 3 2 3 5 8 10 12 13 14 16 17 18 20 21 22 23 24 26 29 32 33 34 35 37 37 39 39 39 38 37 35 34 31 29 29
9 8 8 8 8 7 6 5 2 0 4 7 9 11 13 15 17 19 21 22 24 26 26 27 28 30 33 34 35 36 37 38 39 39 39 40 42 44 42 42 41 39 38 37
11 9 9 8 6 6 5 3 3 6 8 11 13 16 18 20 23 25 27 27 29 30 31 32 33 34 36 37 39 40 41 41 42 43 45 45 45 46 47 48 47 47 45 45
18 14 11 8 7 7 7 8 10 11 14 17 20 22 24 27 28 29 30 29 30 31 32 33 34 36 38 39 41 43 45 47 48 48 49 50 50 51 51 52 53 54 52 50
23 20 17 13 12 13 13 13 14 16 18 21 23 25 27 29 29 29 28 28 29 30 31 32 33 34 37 39 42 45 48 50 52 54 56 58 58 58 57 57 58 58 58 58
17 18 16 16 15 13 12 12 13 14 18 22 24 25 24 22 21 22 23 25 25 27 29 31 33 36 39 42 44 48 54 58 59 62 63 64 66 66 66 65 65 64 63 63
15 14 12 11 11 11 11 10 12 15 18 19 17 15 17 19 21 22 24 26 29 31 34 37 41 43 46 50 51 55 59 60 63 67 70 72 71 71 71 72 72 71 69 68
13 14 15 14 12 11 11 10 9 12 11 12 14 16 18 20 23 26 29 32 35 37 39 42 44 48 51 56 55 60 62 65 69 71 69 66 66 68 71 75 76 75 75 75
15 17 16 13 9 8 7 7 9 8 11 13 16 19 22 25 28 31 34 37 40 42 45 48 50 54 56 60 60 64 64 68 68 67 61 62 63 61 60 60 63 67 71 73
16 17 15 12 9 6 3 4 6 9 13 16 19 22 25 28 31 33 36 40 43 46 49 51 54 56 61 61 64 64 67 66 66 65 63 65 59 54 51 50 51 52 56 60
14 14 12 9 6 3 2 5 9 12 15 18 21 24 28 33 36 39 41 44 46 49 52 55 57 61 61 63 63 66 65 66 65 63 64 59 52 48 45 44 44 44 45 46
12 10 10 8 3 2 5 8 12 16 20 24 28 31 34 37 40 43 45 48 51 55 59 61 64 63 63 63 65 65 66 65 64 62 59 51 45 42 40 39 38 37 37 37
11 9 7 5 5 7 9 12 17 21 25 28 32 35 38 41 44 47 50 54 57 61 64 67 67 64 64 65 67 67 65 64 61 57 51 45 41 38 36 34 34 34 34 34
8 7 7 8 9 10 13 17 21 25 29 33 37 40 44 48 52 56 58 61 64 66 70 70 67 67 68 69 69 69 63 59 55 50 44 41 38 36 34 32 32 32 32 32
7 9 10 11 13 16 19 23 27 30 34 39 43 46 51 56 60 63 65 67 68 71 73 70 69 71 71 73 71 64 57 52 47 43 40 37 36 35 33 32 31 31 31 31
10 12 14 16 18 22 26 29 33 36 40 44 49 54 58 61 66 68 69 72 72 74 73 71 72 73 75 72 66 57 50 45 41 39 37 36 34 34 33 32 31 31 30 30
14 16 18 21 23 27 31 35 39 43 47 51 55 59 63 66 70 72 73 74 76 75 73 73 74 76 72 65 58 50 44 41 38 36 35 34 34 34 33 32 32 31 31 31
19 21 23 26 28 32 36 41 44 49 52 56 59 63 66 70 72 74 75 77 76 74 74 74 76 72 65 58 51 44 41 38 36 35 35 34 34 33 32 32 32 32 32 31

GFSNGP_500_spd_123.txt.gz
Wind_Speed
14 14 8 4 4 6 4 12 13 8 10 10 9 7 8 10 11 13 6 1 9 16 16 15 21 16 20 25 24 24 26 31 33 33 32 31 35 37 39 41 43 46 45 46
13 16 8 4 5 4 3 10 13 12 9 12 11 6 7 9 8 10 8 8 8 6 5 10 14 17 23 24 25 26 27 27 29 30 34 37 38 38 39 40 39 41 43 48
1 10 11 7 8 7 7 8 8 11 10 12 9 8 6 4 4 4 6 10 9 8 8 3 1 7 13 19 24 20 21 24 28 30 32 33 36 38 40 41 45 44 43 43
11 8 6 10 12 12 12 12 7 4 5 1 4 6 4 3 1 2 2 3 4 4 2 1 2 4 6 10 13 17 20 21 21 23 26 31 37 38 41 43 42 43 44 44
16 10 10 11 10 11 12 10 8 2 1 1 3 5 6 4 2 2 2 1 3 4 5 4 5 8 10 12 13 14 17 19 18 17 17 17 20 27 29 32 37 40 43 44
12 13 12 11 9 9 9 6 5 3 3 2 2 3 4 4 4 6 8 9 10 11 10 11 11 12 12 12 11 13 15 16 17 16 16 16 16 17 19 20 25 34 38 41
17 14 14 13 11 7 6 6 5 4 3 3 4 4 3 2 2 4 5 5 6 6 7 9 11 12 12 14 14 17 18 19 19 19 18 18 19 18 18 19 21 21 28 35
18 18 18 16 14 9 7 7 6 6 5 4 3 2 2 2 2 4 6 8 9 10 11 13 13 14 16 17 18 21 23 25 26 27 29 29 29 29 27 26 26 27 26 26
16 18 20 18 15 12 10 9 8 8 7 7 6 6 5 3 3 4 7 9 11 12 14 15 17 18 20 20 23 25 28 30 31 34 35 36 39 41 40 37 35 34 33 33
14 16 21 24 20 17 15 13 13 11 9 7 6 2 1 5 7 9 11 13 15 16 19 20 22 23 25 27 29 30 32 33 36 37 38 39 39 39 41 43 42 40 40 40
9 10 14 13 13 14 14 14 13 12 10 6 3 2 6 10 14 17 19 21 23 25 26 26 28 29 32 33 34 36 37 38 40 40 42 42 41 43 45 47 48 48 48 46
11 7 8 10 10 12 13 12 11 9 6 4 4 8 12 16 19 23 26 28 29 29 29 30 30 31 32 32 33 34 35 37 39 40 42 45 48 50 51 52 53 54 55 55
21 13 9 11 12 11 10 10 8 7 7 7 9 13 18 22 26 29 30 30 30 29 28 27 26 26 26 29 32 35 38 40 42 44 46 47 50 53 57 60 61 61 62 62
18 22 20 15 9 6 6 7 8 9 9 10 13 18 24 26 24 20 19 19 19 20 21 23 27 30 33 37 42 45 46 48 51 54 56 58 62 65 67 67 68 69 69 69
15 15 16 17 15 16 13 11 9 10 10 13 17 20 17 12 13 15 16 18 21 24 26 29 32 35 39 42 46 49 52 55 58 60 60 63 67 69 71 72 73 74 74 74
12 15 16 15 13 12 11 11 10 11 12 13 11 8 11 12 15 18 21 24 26 28 31 34 36 39 44 47 50 53 56 59 61 62 65 68 69 73 76 76 74 73 73 76
15 14 16 16 14 14 12 11 11 10 9 7 8 10 13 16 18 21 24 27 30 33 36 38 41 44 47 51 53 55 58 61 62 66 67 71 74 74 74 74 72 71 69 68
19 18 18 17 14 9 7 8 9 8 5 6 9 12 15 18 21 25 29 33 37 39 42 45 47 49 52 56 58 61 62 65 67 70 73 74 74 74 73 72 71 68 64 59
19 21 20 17 13 10 8 8 7 4 4 8 11 15 19 22 26 30 34 38 41 44 47 49 51 53 57 61 66 67 69 71 73 76 75 76 75 73 70 66 62 57 52 49
18 20 21 18 15 12 10 8 3 4 7 11 14 18 23 27 31 35 38 42 45 49 51 54 56 59 63 68 71 72 73 75 77 77 77 74 69 64 61 57 52 47 44 42
14 16 17 15 14 12 10 6 6 9 12 15 19 23 27 32 36 39 43 47 51 55 59 62 64 66 70 73 75 76 77 78 79 77 71 65 61 56 51 47 44 41 39 37
13 14 13 12 12 11 8 8 11 14 17 21 25 28 33 37 40 45 49 53 58 62 65 69 70 73 75 77 78 78 80 80 76 69 63 58 53 47 43 41 39 37 35 34
12 12 12 13 11 9 11 14 17 19 22 26 30 34 38 42 47 51 55 59 63 67 71 73 75 78 78 80 80 81 81 75 67 60 55 49 44 41 39 37 35 34 33 33
11 12 11 11 11 13 16 19 22 25 29 32 37 41 45 48 53 56 60 64 68 71 75 76 79 80 81 81 82 82 75 67 59 53 47 43 39 37 35 34 33 32 32 32
11 11 11 13 16 20 22 23 27 30 34 38 42 46 50 53 57 61 64 68 71 75 78 79 80 81 82 83 82 76 67 59 52 46 43 40 38 36 35 33 33 32 32 31
15 14 16 19 21 23 25 28 31 35 39 43 46 51 54 57 61 65 68 72 75 77 80 81 82 82 83 82 76 68 59 52 46 43 41 39 37 35 34 33 32 32 31 31
20 20 21 23 24 26 29 32 35 39 43 47 51 54 57 60 65 68 71 74 77 79 80 81 82 84 82 75 67 59 51 47 44 42 41 40 38 37 35 33 32 31 30 30

GFSNGP_500_spd_126.txt.gz
Wind_Speed
17 14 12 8 7 10 12 11 15 14 9 4 2 2 7 12 16 12 12 11 12 6 1 2 9 21 33 23 26 27 16 17 19 21 20 22 25 28 32 33 35 37 42 44
12 4 10 8 8 8 6 7 7 6 7 6 5 5 3 7 7 9 9 12 11 9 8 3 5 4 12 12 13 10 13 14 18 22 25 27 28 31 32 33 38 42 42 43
11 8 12 12 7 9 7 7 6 7 5 6 5 2 1 3 5 7 9 8 9 9 11 10 9 5 5 0 11 10 12 15 17 19 21 24 27 31 34 37 40 40 43 44
18 16 12 9 10 14 12 12 8 9 10 7 6 5 5 7 7 8 8 6 5 7 8 8 8 7 5 3 1 4 10 12 14 18 19 20 21 25 30 36 39 40 44 46
21 21 16 12 13 16 16 17 16 13 10 8 9 9 9 8 7 7 7 10 10 11 11 10 9 9 7 6 6 8 9 11 11 12 14 16 17 19 20 25 31 35 38 42
20 21 19 17 15 17 17 17 17 18 12 8 8 8 9 9 9 9 9 10 10 9 10 10 10 9 9 9 10 11 14 15 15 16 17 17 17 18 18 20 21 24 27 30
23 20 18 18 18 17 17 17 15 12 9 9 8 8 6 5 5 5 4 4 6 6 6 7 9 9 10 11 13 14 16 17 18 21 21 21 22 23 25 26 26 25 25 25
22 23 21 19 19 20 15 14 11 10 9 9 8 7 5 5 5 6 6 7 7 8 8 10 10 11 13 15 17 19 22 24 25 27 29 30 32 34 35 36 37 37 36 34
23 22 25 23 22 22 18 15 14 13 12 10 9 9 9 7 5 3 3 5 8 10 11 13 15 16 16 18 20 22 25 27 29 31 33 34 37 39 39 42 43 43 43 42
16 20 20 22 22 19 21 19 17 16 15 13 12 11 8 6 4 3 7 11 15 17 19 21 22 24 26 27 29 30 34 36 37 39 41 42 44 45 46 47 48 47 48 49
14 13 17 21 22 25 23 21 19 18 16 15 14 13 11 7 6 7 13 18 22 25 26 27 29 29 30 31 32 33 34 34 35 36 38 40 41 43 45 47 50 52 53 54
17 13 15 18 17 18 17 16 17 17 16 15 14 12 9 7 8 15 21 26 28 28 28 28 27 25 22 22 23 26 29 33 35 38 41 45 48 50 52 55 57 57 57 57
22 18 14 13 16 14 14 16 17 17 15 12 10 10 7 11 16 21 26 26 23 19 17 17 19 22 24 27 29 32 34 37 40 41 44 50 53 57 60 61 60 61 63 65
16 17 19 15 10 12 14 13 12 11 11 10 9 8 11 14 18 20 17 15 16 17 21 23 25 27 29 31 32 35 38 41 43 47 51 55 59 62 63 65 67 69 71 73
12 16 18 17 20 17 15 12 10 9 8 8 9 11 13 13 14 13 14 16 19 20 22 25 27 29 32 35 38 41 43 47 50 54 58 61 64 65 67 69 71 74 76 78
10 12 19 20 19 18 17 15 12 11 11 12 12 12 10 10 12 14 17 19 21 24 27 31 34 37 39 42 44 47 49 52 56 60 65 68 69 70 73 76 79 81 82 83
16 16 17 20 22 21 19 18 17 15 14 13 12 11 11 13 14 16 18 22 26 29 32 36 39 42 44 46 48 51 54 57 62 67 71 72 75 78 81 84 84 82 80 77
20 21 20 19 20 19 18 17 16 15 14 13 12 11 12 12 15 19 23 26 30 34 37 41 43 46 47 50 55 57 60 65 71 74 76 79 82 85 85 82 77 72 68 64
18 22 23 21 20 19 16 13 12 13 13 11 11 10 11 14 18 23 27 31 35 38 41 45 48 51 54 58 62 65 68 73 77 80 83 86 88 85 79 72 66 61 58 55
16 20 22 22 21 18 17 13 13 13 12 11 11 12 15 19 23 28 32 36 40 43 47 51 54 57 60 64 68 71 75 79 82 85 88 89 85 77 69 61 56 53 49 45
11 16 18 21 20 18 17 15 15 15 13 13 14 17 20 25 29 33 37 40 45 49 52 56 59 62 66 70 73 77 81 83 85 88 88 83 75 67 58 53 49 46 43 40
10 13 16 18 19 18 17 18 18 15 15 17 19 22 26 30 34 38 42 45 49 53 57 61 64 68 72 75 77 81 83 85 87 87 82 73 65 56 50 47 45 43 40 38
11 13 14 16 18 18 19 19 17 17 19 22 25 29 32 36 40 43 47 51 55 58 62 65 69 73 76 78 81 83 85 87 86 80 72 63 54 48 46 45 43 41 39 37
14 14 15 17 17 18 18 18 19 21 24 28 31 35 38 42 45 49 52 56 59 62 66 69 73 76 78 81 82 85 87 86 79 71 62 54 48 45 44 43 42 41 39 37
13 15 16 16 17 18 20 22 23 26 30 33 36 39 43 47 50 53 56 59 62 66 69 73 75 77 80 82 85 87 86 79 70 61 55 50 48 46 45 43 42 40 39 37
16 17 17 18 20 23 24 24 28 31 34 37 40 44 47 50 53 56 59 63 67 70 73 75 77 80 82 85 87 85 78 70 62 56 53 51 50 49 47 46 44 41 40 38
18 21 22 23 26 27 27 30 33 35 38 40 43 47 49 52 55 59 62 66 70 72 74 76 79 81 85 87 84 77 69 63 60 57 56 55 54 53 51 48 46 43 41 39

GFSNGP_500_spd_129.txt.gz
Wind_Speed
17 17 21 24 22 19 22 20 23 22 22 19 12 7 8 10 10 12 15 15 13 11 11 8 4 22 20 20 19 19 20 22 32 36 36 40 45 49 52 58 41 48 53 51
16 17 15 15 14 16 17 19 23 19 11 15 16 11 11 8 8 11 12 10 12 12 11 10 9 6 13 25 31 25 25 29 25 32 37 33 19 30 26 27 27 31 37 41
16 17 18 15 9 16 16 15 8 9 10 9 9 9 7 8 9 10 8 7 8 10 11 12 11 11 11 10 8 9 10 9 14 10 12 14 17 24 27 28 30 32 36 38
16 19 21 17 11 10 14 16 12 8 8 8 9 11 10 10 11 11 10 11 12 13 12 13 12 11 11 8 7 6 4 3 4 5 8 11 15 19 20 22 25 28 32 36
17 18 23 19 15 13 14 17 20 17 14 16 14 14 14 14 14 15 15 14 12 11 10 10 10 10 10 9 8 8 7 6 3 4 7 9 12 15 16 17 19 21 23 27
21 22 24 24 24 21 19 22 22 21 22 22 19 15 13 13 12 11 10 10 9 10 10 9 8 8 7 8 7 7 7 7 8 9 10 12 14 17 19 18 20 22 24 25
20 25 29 24 24 25 21 21 22 23 22 25 20 14 13 10 8 6 6 6 7 8 9 9 11 11 12 12 12 13 14 14 16 17 19 21 23 24 26 27 28 30 32 34
22 25 28 26 25 24 23 22 23 21 20 17 15 12 11 11 8 6 6 5 4 6 7 9 11 12 13 14 14 15 17 19 21 23 26 28 30 32 34 36 38 39 40 41
23 24 27 28 28 25 21 21 24 21 18 15 14 14 13 12 11 8 5 3 4 8 10 12 14 16 17 19 21 22 25 28 31 33 34 38 40 42 43 44 46 47 48 50
22 22 24 26 26 27 26 22 24 21 19 18 17 16 16 15 12 9 6 6 9 12 16 17 19 21 24 26 28 31 33 34 34 34 31 32 33 31 33 35 38 43 46 48
19 20 19 18 23 21 21 21 22 25 22 20 19 18 17 16 13 9 8 8 12 17 19 21 23 25 27 29 30 30 29 27 26 27 29 31 31 33 34 37 41 43 44 46
19 19 17 17 18 21 23 23 24 25 24 22 21 19 18 15 11 9 9 10 16 20 21 22 22 21 20 22 23 25 28 29 29 30 32 34 35 39 42 46 50 53 56 57
21 22 19 17 16 20 19 18 18 18 19 19 18 17 15 12 11 11 9 13 17 18 17 17 20 22 24 26 27 29 30 32 35 37 39 42 44 47 50 55 59 61 64 67
14 18 21 21 18 15 17 14 15 15 15 16 17 15 14 13 12 8 11 15 18 17 18 20 23 26 27 30 32 36 37 38 40 43 46 49 52 56 59 62 66 69 73 76
9 12 16 19 19 19 14 14 17 16 16 17 16 14 12 11 11 12 14 15 17 19 20 22 26 29 31 34 36 38 40 42 45 48 51 55 58 61 65 69 73 76 79 83
14 14 12 17 21 20 18 21 19 18 16 15 15 15 14 13 14 15 14 16 18 20 23 26 29 33 36 39 41 43 45 48 51 54 57 59 62 66 71 75 80 84 87 89
18 18 18 16 20 23 22 24 23 21 18 17 17 16 15 15 15 15 15 16 19 23 27 31 34 38 40 43 45 47 49 52 55 59 61 64 69 74 78 81 85 88 91 89
20 21 22 22 20 21 23 23 20 19 19 18 17 17 16 16 16 16 17 20 23 27 31 35 39 42 45 48 51 53 55 58 61 64 68 72 76 80 83 86 89 90 83 73
19 20 21 24 23 21 20 19 18 18 17 18 17 17 16 16 17 19 21 25 28 31 36 40 43 46 49 52 56 58 60 64 68 71 75 78 81 84 88 90 87 77 67 58
20 20 21 22 24 22 21 20 18 16 17 18 18 18 17 18 20 22 26 29 33 37 40 44 48 51 54 58 61 63 66 70 73 76 79 82 85 89 89 83 73 63 55 51
14 14 16 18 22 22 21 21 20 17 18 20 20 19 19 21 24 27 31 34 39 42 46 49 53 56 59 63 65 68 72 75 78 80 83 86 89 87 80 69 61 54 50 48
9 9 10 14 18 21 21 21 22 20 20 20 21 22 24 26 29 33 37 41 43 47 50 54 57 61 64 67 70 73 76 78 80 83 86 89 86 78 68 60 55 52 49 48
9 8 9 12 16 19 20 21 21 20 21 23 24 26 28 31 35 39 42 45 49 52 56 58 62 65 68 71 74 76 78 81 84 87 88 85 77 67 61 57 54 53 51 49
10 13 12 13 15 17 19 20 21 23 24 25 27 31 34 36 40 43 47 50 53 56 59 62 65 69 72 74 76 78 81 84 87 88 84 76 69 65 62 59 57 55 53 51
11 12 15 16 18 19 21 22 23 25 26 29 32 36 38 42 45 47 51 54 56 59 62 65 68 72 74 75 78 81 84 87 87 83 75 70 68 66 64 63 59 57 54 52
14 15 16 18 19 21 23 25 26 28 31 34 37 40 42 45 47 51 54 56 59 62 64 68 71 73 75 78 81 84 87 86 81 75 71 69 68 67 66 64 62 59 56 54
20 19 20 21 23 25 27 29 31 33 36 38 40 41 44 47 51 53 56 58 61 63 67 70 72 75 77 81 84 86 84 79 74 71 71 69 68 67 67 65 63 59 56 54